[[{"header":{"parameterUnit":"m.s-1","parameterCategory":1,"la1":30.6,"la2":29.2853,"lo1":-89.7004,"lo2":-87.6739,"dy":0.0162,"dx":0.0183,"nx":112,"ny":82,"refTime":"2024-05-16T18:00:00:Z","depth":0,"parameterNumber":2,"parameterNumberName":"U-component_of_WINDS"},"data":[0.0,0.0,0.0,0.0,0.0,0.0,0.0,0.0,0.0,0.0,0.0,0.0,0.0,0.0,0.0,0.0,0.0,0.0,0.0,0.0,0.0,0.0,0.0,0.0,0.0,0.0,0.0,0.0,0.0,0.0,0.0,0.0,0.0,0.0,0.0,0.0,0.0,0.0,0.0,0.0,0.0,0.0,0.0,0.0,0.0,0.0,0.0,0.0,0.0,0.0,0.0,0.0,0.0,0.0,0.0,0.0,0.0,0.0,0.0,0.0,0.0,0.0,0.0,0.0,0.0,0.0,0.0,0.0,0.0,0.0,0.0,0.0,0.0,0.0,0.0,0.0,0.0,0.0,0.0,0.0,0.0,0.0,0.0,0.0,0.0,0.0,0.0,0.0,0.0,0.0,-1.6497,-1.8084,-2.1856,-2.3891,-2.2985,-2.2902,-2.1193,-1.7247,0.0,0.0,0.0,0.0,0.0,0.0,0.0,0.0,0.0,0.0,0.0,0.0,0.0,0.0,0.0,0.0,0.0,0.0,0.0,0.0,0.0,0.0,0.0,0.0,0.0,0.0,0.0,0.0,0.0,0.0,0.0,0.0,0.0,0.0,0.0,0.0,0.0,0.0,0.0,0.0,0.0,0.0,0.0,0.0,0.0,0.0,0.0,0.0,0.0,0.0,0.0,0.0,0.0,0.0,0.0,0.0,0.0,0.0,0.0,0.0,0.0,0.0,0.0,0.0,0.0,0.0,0.0,0.0,0.0,0.0,0.0,0.0,0.0,0.0,0.0,0.0,0.0,0.0,0.0,0.0,0.0,0.0,0.0,0.0,0.0,0.0,0.0,0.0,0.0,0.0,0.0,0.0,0.0,0.0,0.0,0.0,0.0,0.0,0.0,0.0,0.0,0.0,0.0,0.0,-1.6704,-2.1174,-2.3684,-2.4712,-2.3953,-2.3226,-2.1669,-1.8979,0.0,0.0,0.0,0.0,0.0,0.0,0.0,0.0,0.0,0.0,0.0,0.0,0.0,0.0,0.0,0.0,0.0,0.0,0.0,0.0,0.0,0.0,0.0,0.0,0.0,0.0,0.0,0.0,0.0,0.0,0.0,0.0,0.0,0.0,0.0,0.0,0.0,0.0,0.0,0.0,0.0,0.0,0.0,0.0,0.0,0.0,0.0,0.0,0.0,0.0,0.0,0.0,0.0,0.0,0.0,0.0,0.0,0.0,0.0,0.0,0.0,0.0,0.0,0.0,0.0,0.0,0.0,0.0,0.0,0.0,0.0,0.0,0.0,0.0,0.0,0.0,0.0,0.0,0.0,0.0,0.0,0.0,0.0,0.0,0.0,0.0,0.0,0.0,0.0,0.0,0.0,0.0,0.0,0.0,0.0,0.0,0.0,0.0,0.0,0.0,0.0,0.0,0.0,-1.6287,-1.8224,-2.1953,-2.3954,-2.471,-2.3943,-2.3175,-2.1702,-1.9245,-1.6717,0.0,0.0,0.0,0.0,0.0,0.0,0.0,0.0,0.0,0.0,0.0,0.0,0.0,0.0,0.0,0.0,0.0,0.0,0.0,0.0,0.0,0.0,0.0,0.0,0.0,0.0,0.0,0.0,0.0,0.0,0.0,0.0,0.0,0.0,0.0,0.0,0.0,0.0,0.0,0.0,0.0,0.0,0.0,0.0,0.0,0.0,0.0,0.0,0.0,0.0,0.0,0.0,0.0,0.0,0.0,0.0,0.0,0.0,0.0,0.0,0.0,0.0,0.0,0.0,0.0,0.0,0.0,0.0,0.0,0.0,0.0,0.0,0.0,0.0,0.0,0.0,0.0,0.0,0.0,0.0,0.0,0.0,0.0,0.0,0.0,0.0,0.0,0.0,0.0,0.0,0.0,0.0,0.0,0.0,0.0,0.0,0.0,0.0,0.0,0.0,0.0,0.0,-1.8186,-2.0067,-2.2037,-2.3829,-2.4548,-2.3796,-2.2895,-2.1402,-1.914,-1.6459,0.0,0.0,0.0,0.0,0.0,0.0,0.0,0.0,0.0,0.0,0.0,0.0,0.0,0.0,0.0,0.0,0.0,0.0,0.0,0.0,0.0,0.0,0.0,0.0,0.0,0.0,0.0,0.0,0.0,0.0,0.0,0.0,0.0,0.0,0.0,0.0,0.0,0.0,0.0,0.0,0.0,0.0,0.0,0.0,0.0,0.0,0.0,0.0,0.0,0.0,0.0,0.0,0.0,0.0,0.0,0.0,0.0,0.0,0.0,0.0,0.0,0.0,0.0,0.0,0.0,0.0,0.0,0.0,0.0,0.0,0.0,0.0,0.0,0.0,0.0,0.0,0.0,0.0,0.0,0.0,0.0,0.0,0.0,0.0,0.0,0.0,0.0,0.0,0.0,0.0,0.0,0.0,0.0,0.0,0.0,0.0,0.0,0.0,0.0,0.0,0.0,0.0,-1.8802,-2.1786,-2.2077,-2.3727,-2.4532,-2.3845,-2.2329,-2.0709,-1.9097,-1.5857,0.0,0.0,0.0,0.0,0.0,0.0,0.0,0.0,0.0,0.0,0.0,0.0,0.0,0.0,0.0,0.0,0.0,0.0,0.0,0.0,0.0,0.0,0.0,0.0,0.0,0.0,0.0,0.0,0.0,0.0,0.0,0.0,0.0,0.0,0.0,0.0,0.0,0.0,0.0,0.0,0.0,0.0,0.0,0.0,0.0,0.0,0.0,0.0,0.0,0.0,0.0,0.0,0.0,0.0,0.0,0.0,0.0,0.0,0.0,0.0,0.0,0.0,0.0,0.0,0.0,0.0,0.0,0.0,0.0,0.0,0.0,0.0,0.0,0.0,0.0,0.0,0.0,0.0,0.0,0.0,0.0,0.0,0.0,0.0,0.0,0.0,0.0,0.0,0.0,0.0,0.0,0.0,0.0,0.0,0.0,0.0,0.0,0.0,0.0,0.0,0.0,0.0,-1.8019,-2.0743,0.0,-2.3729,-2.4251,-2.3666,-2.2658,-2.0933,-1.8358,0.0,0.0,0.0,0.0,0.0,0.0,0.0,0.0,0.0,0.0,0.0,0.0,0.0,0.0,0.0,0.0,0.0,0.0,0.0,0.0,0.0,0.0,0.0,0.0,0.0,0.0,0.0,0.0,0.0,0.0,0.0,0.0,0.0,0.0,0.0,0.0,0.0,0.0,0.0,0.0,0.0,0.0,0.0,0.0,0.0,0.0,0.0,0.0,0.0,0.0,0.0,0.0,0.0,0.0,0.0,0.0,0.0,0.0,0.0,0.0,0.0,0.0,0.0,0.0,0.0,0.0,0.0,0.0,0.0,0.0,0.0,0.0,0.0,0.0,0.0,0.0,0.0,0.0,0.0,0.0,0.0,0.0,0.0,0.0,0.0,0.0,0.0,0.0,0.0,0.0,0.0,0.0,0.0,0.0,0.0,0.0,0.0,0.0,0.0,0.0,0.0,0.0,-1.5084,-1.795,-2.058,0.0,-2.3803,-2.4174,-2.3554,-2.2634,-2.0806,-1.7838,0.0,0.0,0.0,0.0,0.0,0.0,0.0,0.0,0.0,0.0,0.0,0.0,0.0,0.0,0.0,0.0,0.0,0.0,0.0,0.0,0.0,0.0,0.0,0.0,0.0,0.0,0.0,0.0,0.0,0.0,0.0,0.0,0.0,0.0,0.0,0.0,0.0,0.0,0.0,0.0,0.0,0.0,0.0,0.0,0.0,0.0,0.0,0.0,0.0,0.0,0.0,0.0,0.0,0.0,0.0,0.0,0.0,0.0,0.0,0.0,0.0,0.0,0.0,0.0,0.0,0.0,0.0,0.0,0.0,0.0,0.0,0.0,0.0,0.0,0.0,0.0,0.0,0.0,0.0,0.0,0.0,0.0,0.0,0.0,0.0,0.0,0.0,0.0,0.0,0.0,0.0,0.0,0.0,0.0,0.0,0.0,0.0,0.0,0.0,0.0,0.0,0.0,-1.5101,-1.8881,-2.1826,-2.2712,-2.3935,-2.4357,-2.3557,-2.2092,-2.0145,0.0,0.0,0.0,0.0,0.0,0.0,0.0,0.0,0.0,0.0,0.0,0.0,0.0,0.0,0.0,0.0,0.0,0.0,0.0,0.0,0.0,0.0,0.0,0.0,0.0,0.0,0.0,0.0,0.0,0.0,0.0,0.0,0.0,0.0,0.0,0.0,0.0,0.0,0.0,0.0,0.0,0.0,0.0,0.0,0.0,0.0,0.0,0.0,0.0,0.0,0.0,0.0,0.0,0.0,0.0,0.0,0.0,0.0,0.0,0.0,0.0,0.0,0.0,0.0,0.0,0.0,0.0,0.0,0.0,0.0,0.0,0.0,0.0,0.0,0.0,0.0,0.0,0.0,0.0,0.0,0.0,0.0,0.0,0.0,0.0,0.0,0.0,0.0,0.0,0.0,0.0,0.0,0.0,0.0,0.0,0.0,0.0,0.0,0.0,0.0,0.0,0.0,0.0,-1.5725,-1.8898,-2.1555,-2.2997,-2.3745,-2.363,-2.2335,-2.2077,-2.0195,-1.5991,0.0,0.0,0.0,0.0,0.0,0.0,0.0,0.0,0.0,0.0,0.0,0.0,0.0,0.0,0.0,0.0,0.0,0.0,0.0,0.0,0.0,0.0,0.0,0.0,0.0,0.0,0.0,0.0,0.0,0.0,0.0,0.0,0.0,0.0,0.0,0.0,0.0,0.0,0.0,0.0,0.0,0.0,0.0,0.0,0.0,0.0,0.0,0.0,0.0,0.0,0.0,0.0,0.0,0.0,0.0,0.0,0.0,0.0,0.0,0.0,0.0,0.0,0.0,0.0,0.0,0.0,0.0,0.0,0.0,0.0,0.0,0.0,0.0,0.0,0.0,0.0,0.0,0.0,0.0,0.0,0.0,0.0,0.0,0.0,0.0,0.0,0.0,0.0,0.0,0.0,0.0,0.0,0.0,0.0,0.0,0.0,0.0,0.0,0.0,0.0,0.0,0.0,-1.6405,-1.9137,-2.1553,-2.3206,-2.37,-2.3433,-2.2314,-2.2174,-2.0371,-1.6229,0.0,0.0,0.0,0.0,0.0,0.0,0.0,0.0,0.0,0.0,0.0,0.0,0.0,0.0,0.0,0.0,0.0,0.0,0.0,0.0,0.0,0.0,0.0,0.0,0.0,0.0,0.0,0.0,0.0,0.0,0.0,0.0,0.0,0.0,0.0,0.0,0.0,0.0,0.0,0.0,0.0,0.0,0.0,0.0,0.0,0.0,0.0,0.0,0.0,0.0,0.0,0.0,0.0,0.0,0.0,0.0,0.0,0.0,0.0,0.0,0.0,0.0,0.0,0.0,0.0,0.0,0.0,0.0,0.0,0.0,0.0,0.0,0.0,0.0,0.0,0.0,0.0,0.0,0.0,0.0,0.0,0.0,0.0,0.0,0.0,0.0,0.0,0.0,0.0,0.0,0.0,0.0,0.0,0.0,0.0,0.0,0.0,0.0,0.0,0.0,0.0,0.0,-1.701,-1.9501,-2.1679,-2.3302,-2.3718,-2.3621,-2.3005,-2.2294,-2.0595,-1.7557,0.0,0.0,0.0,0.0,0.0,0.0,0.0,0.0,0.0,0.0,0.0,0.0,0.0,0.0,0.0,0.0,0.0,0.0,0.0,0.0,0.0,0.0,0.0,0.0,0.0,0.0,0.0,0.0,0.0,0.0,0.0,0.0,0.0,0.0,0.0,0.0,0.0,0.0,0.0,0.0,0.0,0.0,0.0,0.0,0.0,0.0,0.0,0.0,0.0,0.0,0.0,0.0,0.0,0.0,0.0,0.0,0.0,0.0,0.0,0.0,-1.2158,-1.1152,0.0,0.0,0.0,0.0,0.0,0.0,0.0,0.0,0.0,0.0,0.0,0.0,0.0,0.0,0.0,0.0,0.0,0.0,0.0,0.0,0.0,0.0,0.0,0.0,0.0,0.0,0.0,0.0,0.0,0.0,0.0,0.0,0.0,0.0,0.0,0.0,0.0,0.0,0.0,0.0,-1.701,-1.9396,-2.1498,-2.3159,-2.3491,-2.3328,-2.2743,-2.2117,-2.0425,-1.7353,-1.5642,0.0,0.0,0.0,0.0,0.0,0.0,0.0,0.0,0.0,0.0,0.0,0.0,0.0,0.0,0.0,0.0,0.0,0.0,0.0,0.0,0.0,0.0,0.0,0.0,0.0,0.0,0.0,0.0,0.0,0.0,0.0,0.0,0.0,0.0,0.0,0.0,0.0,0.0,0.0,0.0,0.0,0.0,0.0,0.0,0.0,0.0,0.0,0.0,0.0,0.0,0.0,0.0,0.0,0.0,0.0,0.0,0.0,0.0,0.0,-1.4196,-1.359,0.0,0.0,0.0,0.0,0.0,0.0,0.0,0.0,0.0,0.0,0.0,0.0,0.0,0.0,0.0,0.0,0.0,0.0,0.0,0.0,0.0,0.0,0.0,0.0,0.0,0.0,0.0,0.0,0.0,0.0,0.0,0.0,0.0,0.0,0.0,0.0,0.0,0.0,0.0,0.0,-1.758,-1.9935,-2.1878,-2.3165,-2.3359,-2.3363,-2.3218,-2.2236,-2.0798,-1.8904,-1.6556,0.0,0.0,0.0,0.0,0.0,0.0,0.0,0.0,0.0,0.0,0.0,0.0,0.0,0.0,0.0,0.0,0.0,0.0,0.0,0.0,0.0,0.0,0.0,0.0,0.0,0.0,0.0,0.0,0.0,0.0,0.0,0.0,0.0,0.0,0.0,0.0,0.0,0.0,0.0,0.0,0.0,0.0,0.0,0.0,0.0,0.0,0.0,0.0,0.0,0.0,0.0,0.0,0.0,-1.5991,-1.6038,-1.6082,-1.662,-1.7508,-1.8504,-1.6797,-1.677,-1.7775,-1.5316,0.0,0.0,0.0,0.0,0.0,0.0,0.0,0.0,0.0,0.0,0.0,0.0,0.0,0.0,0.0,0.0,0.0,0.0,0.0,0.0,0.0,0.0,-1.8304,-1.8822,-1.9393,-1.9117,-1.6554,0.0,0.0,0.0,0.0,0.0,0.0,0.0,0.0,0.0,0.0,0.0,-1.8407,-2.0638,-2.2336,-2.3218,-2.3301,-2.3447,-2.3824,-2.2519,-2.1352,-2.0615,-1.7819,-1.5816,0.0,0.0,0.0,0.0,0.0,0.0,0.0,0.0,0.0,0.0,0.0,0.0,0.0,0.0,0.0,0.0,0.0,0.0,0.0,0.0,0.0,0.0,0.0,0.0,0.0,0.0,0.0,0.0,0.0,0.0,0.0,0.0,-1.1344,-1.2431,0.0,0.0,0.0,0.0,0.0,0.0,0.0,0.0,0.0,0.0,0.0,0.0,0.0,-1.5972,-1.7288,-1.8488,-1.9704,-2.0856,-2.1489,-2.1807,-2.1807,-2.1902,-2.2044,-2.2202,-2.1918,0.0,-1.8518,-1.7555,0.0,0.0,0.0,0.0,0.0,0.0,0.0,0.0,0.0,0.0,0.0,0.0,0.0,0.0,0.0,0.0,0.0,0.0,0.0,0.0,0.0,0.0,-2.192,-2.1317,-2.1321,-2.1346,-2.0888,-1.8718,-1.6656,-1.5879,-1.5159,-1.4194,0.0,0.0,0.0,0.0,0.0,0.0,-1.924,-2.0989,-2.2336,-2.3218,-2.3301,-2.3418,-2.3711,-2.289,-2.1799,-2.0502,-1.8726,-1.7105,-1.5727,-1.4004,0.0,0.0,0.0,0.0,0.0,0.0,0.0,0.0,0.0,0.0,0.0,0.0,0.0,0.0,0.0,0.0,0.0,0.0,0.0,0.0,0.0,0.0,0.0,0.0,0.0,0.0,0.0,0.0,0.0,-1.1367,-1.2224,-1.2397,-1.2419,-1.2227,0.0,0.0,0.0,0.0,0.0,0.0,0.0,0.0,0.0,-1.7492,-1.855,-1.9373,-2.0004,-2.0652,-2.1079,-2.1236,-2.1568,-2.1728,-2.1728,-2.1728,-2.2155,-2.2866,-2.206,-2.1679,-2.1504,-2.0052,-1.8881,-1.7915,0.0,0.0,0.0,0.0,-1.6641,-1.7048,-1.7477,-1.7983,-1.8313,-1.749,0.0,0.0,0.0,0.0,0.0,0.0,0.0,-1.8404,-1.8819,-2.0378,-2.1862,-2.196,-2.2156,-2.2318,-2.2352,-2.1305,-1.9897,-1.8391,-1.7805,-1.679,-1.4405,-1.4377,0.0,0.0,0.0,-1.8678,-2.0128,-2.1662,-2.2799,-2.3253,-2.3301,-2.3407,-2.3678,-2.2959,-2.2074,-2.108,-1.9499,-1.8169,-1.7132,-1.5514,-1.4256,0.0,0.0,0.0,0.0,0.0,0.0,0.0,0.0,0.0,0.0,0.0,0.0,0.0,0.0,0.0,0.0,0.0,0.0,0.0,0.0,0.0,0.0,0.0,0.0,0.0,0.0,0.0,0.0,-1.2681,-1.3585,-1.3585,-1.4496,-1.4658,0.0,0.0,0.0,0.0,0.0,0.0,-1.7604,-1.8188,-1.9057,-2.0304,-2.1299,-2.1914,-2.2088,-2.2311,-2.2232,-2.187,-2.187,-2.1948,-2.2122,-2.2122,-2.2801,-2.3926,-2.2864,-2.3291,-2.452,-2.209,-2.0889,-2.0494,-1.9451,-1.8708,-1.8267,-1.882,-1.9356,-1.9846,-2.0399,-2.1069,-2.152,-2.0367,-1.9541,-1.8844,-1.8005,0.0,0.0,0.0,0.0,-1.9823,-2.0564,-2.1357,-2.2132,-2.2832,-2.3031,-2.3071,-2.3133,-2.2994,-2.2295,-2.0527,-2.0153,-1.9279,-1.665,-1.6694,0.0,-1.6299,-1.8372,-2.0251,-2.1006,-2.2277,-2.3144,-2.3241,-2.3277,-2.3383,-2.3578,-2.3092,-2.2391,-2.1492,-2.0327,-1.9275,-1.8389,-1.6977,-1.5746,-1.4769,0.0,0.0,0.0,0.0,0.0,0.0,0.0,0.0,0.0,0.0,0.0,0.0,0.0,0.0,0.0,0.0,0.0,0.0,0.0,0.0,0.0,0.0,0.0,0.0,0.0,0.0,0.0,0.0,0.0,-1.7954,-1.717,0.0,0.0,0.0,0.0,-1.6491,-1.7745,-1.9119,-2.051,-2.062,-2.1,-2.1774,-2.1853,-2.2202,-2.2835,-2.348,-2.4128,-2.478,-2.478,-2.5128,-2.574,-2.574,-2.6167,-2.6878,-2.6814,-2.6846,-2.6672,-2.3243,-2.2202,-2.274,-2.2661,-2.2629,-2.2598,-2.2629,-2.2661,-2.2693,-2.2724,-2.279,-2.2805,-2.2726,-2.1997,-2.1177,-2.1368,-2.1217,0.0,0.0,-2.2433,-2.322,-2.3959,-2.4239,-2.4411,-2.478,-2.4448,-2.3993,-2.389,-2.3358,-2.2658,-2.1924,-2.1791,-2.1295,-1.9721,0.0,-1.9503,-1.9468,-2.0198,-2.1024,-2.1832,-2.2628,-2.3089,-2.3119,-2.3229,-2.3301,-2.3313,-2.3394,-2.2847,-2.1393,-2.1241,-2.0551,-1.9122,-1.8292,-1.7103,-1.5481,-1.3989,0.0,0.0,0.0,0.0,0.0,0.0,0.0,0.0,0.0,0.0,0.0,0.0,0.0,0.0,0.0,0.0,0.0,0.0,0.0,0.0,0.0,0.0,0.0,0.0,0.0,0.0,0.0,0.0,-1.945,-2.0006,0.0,-1.9402,-1.9629,-1.97,-1.9325,-2.021,-2.0984,-2.1474,-2.1918,-2.2469,-2.318,-2.4065,-2.4444,-2.4242,-2.4918,-2.5171,-2.5005,-2.5005,-2.5128,-2.5365,-2.5365,-2.5724,-2.6372,-2.595,-2.6246,-2.6972,-2.525,-2.4681,-2.4855,-2.4416,-2.3973,-2.3544,-2.3544,-2.3544,-2.3518,-2.3346,-2.3579,-2.3887,-2.3681,-2.3489,-2.3297,-2.2965,-2.2895,-2.2948,-2.2994,-2.3194,-2.3539,-2.4029,-2.4316,-2.4533,-2.4641,-2.4703,-2.4729,-2.4684,-2.4514,-2.4181,-2.3509,-2.2963,-2.2141,-2.0662,-2.1223,-2.1557,-2.0567,-2.1481,-2.2382,-2.268,-2.2932,-2.3107,-2.3107,-2.3126,-2.3205,-2.3289,-2.3336,-2.2783,-2.1401,-2.1303,-2.0632,-1.9159,-1.8856,-1.7939,-1.6301,-1.5258,-1.3677,0.0,0.0,0.0,0.0,0.0,0.0,0.0,0.0,0.0,0.0,0.0,0.0,0.0,0.0,0.0,0.0,0.0,0.0,0.0,0.0,0.0,0.0,0.0,0.0,0.0,0.0,-2.0577,-2.0688,-2.1993,-2.2435,-2.131,-2.181,-2.2014,-2.1538,-2.2169,-2.258,-2.258,-2.323,-2.3815,-2.4255,-2.5171,-2.546,-2.5005,-2.5444,-2.5444,-2.5005,-2.5005,-2.5112,-2.5333,-2.5333,-2.5855,-2.6688,-2.6251,-2.6688,-2.7725,-2.7257,-2.7046,-2.6972,-2.6077,-2.5408,-2.4977,-2.4977,-2.4977,-2.4938,-2.4785,-2.5008,-2.5319,-2.4979,-2.4946,-2.4894,-2.4331,-2.4381,-2.4576,-2.4265,-2.4363,-2.4629,-2.4846,-2.5074,-2.5282,-2.5408,-2.5433,-2.5452,-2.5464,-2.5316,-2.5056,-2.4646,-2.3942,-2.3028,-2.1803,-2.2417,-2.2739,-2.1733,-2.2452,-2.3107,-2.3107,-2.3107,-2.3107,-2.3107,-2.3107,-2.3144,-2.3229,-2.2994,-2.2397,-2.1294,-2.0984,-2.0316,-1.9141,-1.8817,-1.8023,-1.6692,-1.534,-1.3997,-1.2673,0.0,0.0,0.0,0.0,0.0,0.0,0.0,0.0,0.0,0.0,0.0,0.0,0.0,0.0,0.0,0.0,0.0,0.0,0.0,0.0,0.0,0.0,0.0,-2.0463,-2.1182,-2.1789,-2.2017,-2.3099,-2.3093,-2.1149,-2.2118,-2.2916,-2.2968,-2.3544,-2.3904,-2.392,-2.459,-2.4989,-2.5005,-2.5053,-2.5049,-2.5017,-2.5116,-2.5112,-2.5116,-2.5112,-2.5476,-2.6103,-2.6103,-2.6846,-2.8126,-2.811,-2.8489,-2.9098,-2.9082,-2.9082,-2.8972,-2.7662,-2.7162,-2.713,-2.713,-2.7115,-2.7142,-2.712,-2.7142,-2.71,-2.6756,-2.6412,-2.6036,-2.5698,-2.5868,-2.6103,-2.569,-2.6133,-2.6742,-2.6725,-2.6708,-2.6825,-2.7202,-2.6713,-2.6159,-2.6229,-2.5687,-2.5209,-2.5331,-2.4764,-2.402,-2.327,-2.3125,-2.3107,-2.3107,-2.3107,0.0,-2.3107,-2.3107,-2.3107,-2.3107,-2.3107,-2.3107,-2.3107,-2.2452,-2.1771,-2.1145,-2.0364,-1.9685,-1.9115,-1.8297,-1.7463,-1.6653,-1.4288,-1.3399,-1.4046,0.0,0.0,0.0,0.0,0.0,0.0,0.0,0.0,0.0,0.0,0.0,0.0,0.0,0.0,0.0,0.0,0.0,0.0,0.0,0.0,0.0,0.0,-2.2078,-2.2078,-2.3216,-2.4276,-2.4883,-2.5001,-2.4923,-2.4673,-2.4711,-2.4652,-2.4439,-2.4097,-2.4144,-2.4669,-2.4381,-2.4444,-2.497,-2.5998,-2.6261,-2.5724,-2.7225,-2.7731,-2.7263,-2.7747,-2.8056,-2.8246,-2.8246,-2.8451,-2.8798,-2.8316,-2.8489,-2.9067,-2.8584,-2.8656,-2.9067,-2.8688,-2.8246,-2.7826,-2.7826,-2.7886,-2.7931,-2.757,-2.7874,-2.8329,-2.7885,-2.7933,-2.8028,-2.7648,-2.7851,-2.8066,-2.7351,-2.7334,-2.7436,-2.7209,-2.7154,-2.7153,-2.7266,-2.7173,-2.7063,-2.712,-2.7024,-2.6784,-2.6328,-2.6076,-2.5515,-2.419,-2.3488,-2.3107,-2.3107,-2.3107,-2.3107,-2.3107,-2.3107,-2.3107,-2.3107,-2.3107,-2.3107,-2.3107,-2.2914,-2.23,-2.1104,-2.0875,-2.0219,-1.9011,-1.8819,-1.8356,-1.7561,-1.5745,-1.49,0.0,0.0,0.0,0.0,0.0,0.0,0.0,0.0,0.0,0.0,0.0,0.0,0.0,0.0,0.0,0.0,0.0,0.0,0.0,0.0,0.0,0.0,-2.2026,-2.3646,-2.3646,-2.4712,-2.5461,-2.5427,-2.5608,-2.5678,-2.5449,-2.5465,-2.5362,-2.5029,-2.4729,-2.4757,-2.5192,-2.5403,-2.5691,-2.607,-2.7205,-2.7503,-2.6893,-2.781,-2.8056,-2.7683,-2.8094,-2.8261,-2.8261,-2.8261,-2.8419,-2.8656,-2.8268,-2.8489,-2.9051,-2.8379,-2.8505,-2.9098,0.0,0.0,0.0,0.0,-2.8584,-2.8605,-2.833,-2.8688,-2.9208,-2.8797,-2.8987,-2.9254,-2.8728,-2.8851,-2.9072,-2.8453,-2.8388,-2.8476,-2.8267,-2.7989,-2.7747,-2.7747,-2.7538,-2.7376,-2.7436,-2.7496,-2.7447,-2.7102,-2.6795,0.0,-2.5432,-2.4331,-2.3488,-2.3142,-2.3107,-2.3107,-2.3107,-2.3107,-2.3107,-2.3107,-2.3107,-2.3107,-2.3107,-2.2809,0.0,0.0,0.0,-1.9959,-1.8509,-1.8514,0.0,0.0,0.0,0.0,0.0,0.0,0.0,0.0,-1.4899,-1.4615,0.0,0.0,0.0,0.0,0.0,0.0,0.0,0.0,0.0,0.0,0.0,0.0,0.0,0.0,0.0,0.0,-2.2785,-2.504,-2.5109,-2.5781,-2.588,-2.4934,-2.5579,-2.5737,-2.4846,-2.5296,-2.5562,-2.538,-2.5567,-2.5756,-2.5935,0.0,0.0,0.0,0.0,-2.8555,-2.8006,-2.7557,-2.7288,-2.7209,-2.7367,-2.7446,-2.7446,-2.7446,-2.7826,-2.8426,-2.8284,-2.8647,-2.9288,-2.8616,-2.8695,-2.9209,-2.913,-2.9098,-2.9098,-2.9167,-2.9213,-2.9259,-2.9259,0.0,0.0,-2.9519,-2.9718,-2.9945,-2.9342,-2.9413,-2.9678,-2.922,-2.9365,-2.961,-2.9523,-2.9023,-2.8523,-2.8523,-2.7954,-2.7451,-2.7514,-2.7504,-2.7526,-2.7587,-2.7119,-2.67,-2.6616,-2.5327,-2.4062,-2.3335,-2.316,-2.3107,-2.3107,-2.3107,-2.3107,-2.3107,-2.3107,0.0,-2.3107,-2.2505,-2.2113,-2.2088,-2.0801,-1.9486,-1.8239,-1.8201,-1.8158,-1.8037,-1.7467,-1.7977,-1.9643,-1.8989,-1.8821,-1.9039,-1.6502,-1.5969,0.0,0.0,0.0,0.0,0.0,0.0,0.0,0.0,0.0,0.0,0.0,0.0,0.0,0.0,0.0,-2.3539,-2.4522,-2.5212,-2.5801,-2.6575,-2.699,-2.6788,-2.6371,-2.6148,-2.6253,-2.6387,-2.6805,-2.7586,-2.7165,-2.7387,-2.8593,-2.8401,-2.8096,-2.7697,-2.841,-2.8329,-2.7304,-2.823,-2.8435,-2.7921,-2.9042,0.0,-2.9603,-2.9603,-2.9959,-3.0543,-2.9398,-2.9619,-3.074,-3.0069,-2.9872,-2.9927,-2.9319,-2.9098,-2.9144,-2.9522,-2.9903,-3.0225,-3.0225,-3.0288,-3.0339,-3.029,-3.0323,-3.0449,-3.0634,-3.0984,0.0,-3.0538,-3.0402,-3.0317,-2.9679,-2.9403,-2.9299,-2.9299,-2.873,-2.8212,-2.8276,-2.7869,-2.7526,-2.7587,-2.7537,-2.7297,-2.6704,-2.5327,-2.4238,-2.408,-2.3523,-2.3107,-2.3107,-2.3107,-2.3107,-2.3107,-2.3107,-2.3107,-2.3107,-2.2967,-2.2628,-2.2048,-2.1295,-2.0791,-2.062,-2.0733,-2.077,-2.0761,-2.0608,-2.0724,-2.1089,-2.0587,-2.0372,-2.0417,-1.9499,-1.8881,0.0,0.0,0.0,0.0,0.0,0.0,0.0,0.0,0.0,0.0,0.0,-1.9732,0.0,0.0,-2.3101,-2.4229,-2.5042,-2.5678,-2.6042,-2.6799,-2.7144,-2.6747,-2.6695,-2.6692,-2.6691,-2.7215,-2.7606,-2.7734,-2.7968,-2.8416,-2.9152,-2.9223,-2.9015,-2.8522,-2.9587,-2.967,-2.867,-2.9899,-3.025,-2.9659,-3.064,-3.0951,-3.0701,-3.0701,-3.0891,-3.1151,-3.0456,-3.0704,-3.1598,-3.1496,-3.1117,-3.0525,-3.0133,-2.9637,-2.9121,-2.9357,-2.9589,-2.9815,-3.0075,-3.0309,-3.0539,-3.0727,-3.0965,-3.114,-3.1103,-3.143,-3.1677,-3.1078,-3.1067,-3.1145,-3.0765,-3.0386,-3.0093,-3.0093,-2.9506,-2.8851,-2.8521,-2.8205,-2.7919,-2.7611,-2.76,-2.7552,-2.7213,-2.6209,-2.5187,-2.4427,-2.3957,-2.3558,-2.3142,-2.3107,-2.3107,-2.3107,-2.3107,-2.3107,-2.3107,-2.3107,-2.2798,-2.2095,-2.1773,-2.1505,-2.1311,-2.1352,-2.1342,-2.1197,-2.1332,-2.148,-2.1608,-2.1432,-2.1488,-2.1741,-2.143,-2.0884,0.0,0.0,0.0,0.0,0.0,0.0,0.0,0.0,-1.9439,-2.005,-2.0678,-2.1554,-2.2901,-2.4026,-2.4712,-2.4508,-2.5387,-2.6146,-2.6301,-2.7006,-2.7264,-2.6626,-2.7126,-2.7341,-2.6859,-2.7773,-2.8186,-2.7675,-2.8686,-2.9393,-2.9529,-3.0125,-3.0256,-2.9886,-3.1045,-3.1336,-3.0695,-3.1656,-3.1907,-3.1494,-3.2053,-3.2134,-3.1693,-3.1595,-3.1625,-3.1768,-3.1643,-3.19,-3.2439,-3.2669,-3.2258,-3.144,-3.1316,-3.0655,-2.9763,-2.952,-2.9575,-2.9847,-3.0309,-3.0678,-3.0996,-3.1506,-3.1771,-3.1857,-3.1555,-3.1606,-3.1727,-3.1334,-3.1504,-3.18,-3.18,-3.1351,-3.0903,-3.0903,-3.03,-2.9575,-2.8972,-2.8658,-2.8375,-2.7811,-2.7659,-2.763,-2.7686,-2.721,-2.6349,-2.4958,-2.4484,-2.4062,-2.3418,-2.3195,-2.3107,-2.3107,-2.3107,-2.3107,-2.3107,-2.3107,-2.2863,-2.2329,-2.2329,-2.2147,-2.1716,-2.1732,-2.1662,-2.1448,-2.1631,-2.1829,-2.2012,-2.2035,-2.2243,-2.2642,-2.2497,-2.2095,-1.9237,-1.8493,-1.8197,-1.9917,-1.929,-1.9133,0.0,0.0,-2.2509,-2.316,-2.3371,-2.3698,-2.4591,-2.4301,-2.4594,-2.6575,-2.6454,-2.635,-2.7057,-2.7799,-2.8247,-2.8144,-2.823,-2.799,-2.7303,-2.7938,-2.8628,-2.9197,-3.004,-3.0798,-3.1452,-3.1555,-3.1711,-3.1962,-3.211,-3.2291,-3.2436,-3.2564,-3.2575,-3.2546,-3.3247,-3.3578,-3.3485,-3.3038,-3.3153,-3.3733,-3.3264,-3.3367,-3.3809,-3.3226,-3.3163,-3.3402,-3.2746,-3.2431,-3.2172,-3.1027,-3.1281,-3.2293,-3.2751,-3.2665,-3.2513,-3.3464,-3.306,-3.2295,-3.2593,-3.228,-3.18,-3.1744,-3.1746,-3.18,-3.18,-3.1731,-3.1679,-3.1679,-3.111,-3.0524,-3.0455,-2.9486,-2.8576,-2.8489,-2.8054,-2.7686,-2.7701,-2.7631,-2.7297,-2.6472,-2.5187,-2.4256,-2.4168,-2.3541,-2.3107,-2.3107,-2.3107,-2.3107,-2.3107,-2.3107,-2.3072,-2.2979,-2.3105,-2.3136,-2.3088,-2.3298,-2.3419,-2.3386,-2.3292,-2.3209,-2.3129,-2.2728,-2.2495,-2.2439,-2.2304,-2.222,-2.197,-2.1671,-2.1522,0.0,-2.2282,-2.2169,-2.3672,-2.338,-2.2985,-2.366,-2.3457,-2.3543,-2.4781,-2.4729,-2.4956,0.0,-2.6713,-2.6919,-2.7247,-2.8299,-2.873,-2.7851,-2.892,-2.9265,-2.8058,-2.861,-2.9179,-2.9489,-3.0644,-3.1662,-3.2403,-3.2438,-3.2591,-3.2923,-3.3326,-3.3467,-3.3327,-3.4052,-3.4231,-3.3928,-3.4543,-3.467,-3.4369,-3.4157,-3.4225,-3.4472,-3.4267,-3.4472,-3.4958,-3.4649,-3.4647,-3.4785,-3.4051,-3.4001,-3.4186,-3.2513,-3.2238,-3.2663,-3.2834,-3.2959,-3.3127,-3.3502,-3.3499,-3.3291,-3.2984,-3.2679,-3.2352,-3.1921,-3.18,-3.18,-3.18,-3.18,-3.18,-3.18,-3.1558,-3.1214,-3.0782,-3.0249,-2.9573,-2.8722,-2.8382,-2.8091,-2.77,-2.7672,-2.7596,-2.7297,-2.5928,-2.4783,-2.4374,-2.3593,-2.3107,-2.3107,-2.3107,-2.3107,-2.3107,-2.3107,-2.3107,-2.3107,-2.3139,-2.3217,-2.3301,-2.3476,-2.3544,-2.3476,-2.3578,-2.3474,-2.3182,-2.2998,-2.2769,-2.251,-2.2429,-2.2324,-2.399,0.0,0.0,-2.4259,-2.4239,-2.416,-2.4108,-2.3566,-2.32,-2.3698,-2.356,-2.3681,-2.4798,-2.5178,-2.5557,-2.6316,-2.6919,-2.7299,-2.7299,-2.8385,-2.8799,-2.773,-2.9058,-2.9627,-2.8506,-2.9075,-2.9506,-2.9506,-3.0938,-3.2127,-3.2869,-3.311,-3.3439,-3.3891,-3.4359,-3.4583,-3.4494,-3.5345,-3.5594,-3.5214,-3.5616,-3.5594,-3.5214,-3.5075,-3.4934,-3.4793,-3.4793,-3.5098,-3.5594,-3.5594,-3.5677,-3.5742,-3.5219,-3.5317,-3.5613,-3.4211,-3.3611,-3.3478,-3.3434,-3.3688,-3.4007,-3.4113,-3.4244,-3.4283,-3.3714,-3.3248,-3.28,-3.2248,-3.1955,-3.18,-3.18,-3.18,-3.18,-3.18,-3.18,-3.1645,-3.111,-3.0852,-3.0404,-2.9349,-2.8842,-2.8451,-2.8006,-2.7785,-2.7672,-2.7701,-2.6578,-2.5454,-2.4695,-2.3716,-2.3107,-2.3107,-2.3107,-2.3107,-2.3107,-2.3107,-2.3107,-2.3107,-2.3107,-2.3126,-2.3241,-2.3372,-2.3424,-2.3348,-2.351,-2.3406,-2.3037,-2.2985,-2.2782,-2.2433,-2.2415,-2.2338,0.0,0.0,-2.4761,-2.4383,-2.42,-2.4094,-2.4102,-2.3929,-2.3784,-2.3802,-2.4405,-2.4936,-2.4988,-2.5577,-2.6333,-2.7126,-2.7282,-2.7299,-2.7299,-2.7954,-2.842,-2.8368,-2.842,-2.8454,0.0,-2.9075,-2.9506,-2.9506,-3.0938,-3.2127,-3.2869,-3.3628,-3.4404,-3.5108,-3.5159,-3.5504,-3.6224,-3.6262,-3.628,-3.6259,-3.628,-3.628,-3.6237,-3.5771,-3.5299,-3.4793,-3.4793,-3.5098,-3.5594,-3.5594,-3.5876,-3.628,-3.6245,-3.6262,-3.628,-3.6207,-3.5916,-3.5504,-3.5504,-3.5526,-3.5593,-3.6066,-3.5749,-3.5145,-3.5128,-3.4093,-3.2904,-3.2869,-3.2352,-3.18,-3.18,-3.18,-3.18,-3.18,-3.18,-3.1783,-3.1765,-3.125,-3.0785,-3.0733,-2.9571,-2.8625,-2.8739,-2.8109,-2.7615,-2.7686,-2.7052,-2.6265,-2.5472,-2.4037,-2.3107,-2.3107,-2.3107,-2.3107,-2.3107,-2.3107,-2.3107,-2.3107,-2.3107,-2.3107,-2.3107,-2.3241,-2.336,-2.3494,-2.3372,-2.3194,-2.291,-2.2708,-2.2405,-2.2027,-2.2152,-2.2214,-2.4544,0.0,-2.5569,-2.4717,-2.4668,-2.4704,-2.4203,-2.4358,-2.4439,-2.3922,-2.4026,-2.4525,-2.5525,-2.5094,-2.5163,-2.7006,-2.6851,-2.6695,-2.7213,-2.8368,-2.8954,-2.8454,-2.9299,0.0,0.0,0.0,0.0,-2.9472,-3.0938,-3.2352,-3.3628,-3.4404,-3.5163,-3.5904,-3.5921,-3.6042,-3.6301,-3.6301,-3.6301,-3.6301,-3.6301,-3.6301,-3.6301,-3.6135,-3.5985,-3.5771,-3.5481,-3.5616,-3.6028,-3.5744,-3.5876,-3.6301,-3.6301,-3.6301,-3.6301,-3.6301,-3.6216,-3.6028,-3.5705,-3.5793,-3.6028,-3.5898,-3.5878,-3.5835,-3.5335,-3.4835,-3.4214,-3.3197,-3.2714,-3.2421,-3.1921,-3.1838,-3.1857,-3.1818,-3.1838,-3.1839,-3.1818,-3.1611,-3.1319,-3.0836,-3.0006,-2.9236,-2.8747,-2.8106,-2.7672,-2.7701,-2.7069,-2.6314,-2.5507,-2.4524,-2.3904,-2.3904,-2.3418,-2.3107,-2.3107,-2.3107,-2.3107,-2.3107,-2.3107,-2.3107,-2.3107,-2.3229,-2.3313,-2.336,-2.3499,-2.3435,-2.317,-2.3005,-2.2751,-2.2392,-2.2321,-2.224,-2.5259,-2.5695,-2.6026,-2.5458,-2.5481,-2.5422,-2.4669,-2.4771,-2.4767,-2.3974,-2.404,-2.4482,-2.519,-2.4741,-2.4948,-2.7001,-2.6883,-2.6902,-2.7937,-2.8678,-2.9023,-2.8816,-2.9437,-2.9592,0.0,0.0,0.0,-2.9472,-3.1179,-3.2748,-3.4027,-3.5042,-3.5801,-3.6284,-3.6301,-3.6301,-3.6301,-3.6301,-3.6301,-3.6301,-3.6301,-3.6301,-3.6301,-3.6301,-3.6301,-3.628,-3.5985,-3.6028,-3.628,-3.5985,-3.6028,-3.6301,-3.6301,-3.6301,-3.6301,-3.6301,-3.6301,-3.6259,-3.5963,-3.6049,-3.6259,-3.5963,-3.6049,-3.6215,-3.5732,-3.5404,-3.4938,-3.368,-3.3128,-3.2731,-3.199,-3.1838,-3.1839,-3.1818,-3.1838,-3.1839,-3.1818,-3.18,-3.1662,-3.1197,-3.056,-2.9866,-2.9101,-2.8235,-2.7672,-2.7701,-2.7297,-2.6718,-2.5928,-2.5156,-2.4589,-2.4326,-2.3852,-2.3418,-2.3125,-2.3107,-2.3107,-2.3107,-2.3107,-2.3107,-2.3107,-2.3193,-2.3253,-2.3301,-2.3412,-2.3377,-2.3156,-2.3109,-2.2897,-2.2494,-2.2474,-2.238,-2.6759,-2.6687,-2.6219,-2.6515,-2.6457,-2.615,-2.5369,-2.5086,-2.4781,-2.4026,-2.4493,-2.4843,0.0,0.0,-2.5571,-2.7132,-2.7312,-2.7764,-2.9299,-2.8903,-2.8747,0.0,0.0,0.0,0.0,0.0,0.0,-2.9679,0.0,-3.3266,-3.4113,-3.5508,-3.6301,-3.6301,-3.6301,-3.6301,-3.6301,-3.6301,-3.6301,-3.6301,-3.6301,-3.6301,-3.6301,-3.6301,-3.6301,-3.6301,-3.6301,-3.6301,-3.6301,-3.6301,-3.6301,-3.6301,-3.6301,-3.6301,-3.6301,-3.6301,-3.6301,-3.6301,-3.6301,-3.6301,-3.6301,-3.6301,-3.6301,-3.6301,-3.6301,-3.5801,-3.5094,-3.4372,-3.3611,-3.2835,-3.2059,-3.1852,-3.187,-3.1818,-3.1818,-3.1818,-3.1818,-3.18,-3.18,-3.18,-3.1214,-3.0455,-2.9695,-2.8489,-2.7667,-2.7686,-2.7701,-2.7455,-2.6739,-2.5949,-2.5173,-2.4444,-2.4321,-2.3975,-2.3177,-2.3107,-2.3107,-2.3107,-2.3107,-2.3107,-2.3107,-2.3107,-2.3168,-2.3289,-2.318,-2.3057,-2.2919,-2.3047,-2.2846,-2.2324,-2.2565,-2.2538,-2.6308,-2.6582,-2.6959,-2.6435,-2.5941,-2.5509,-2.5262,-2.5128,-2.5008,-2.4818,-2.4631,-2.4581,0.0,0.0,0.0,-2.7076,-2.6845,0.0,-2.9213,-2.9351,0.0,-3.1058,0.0,-3.1214,-3.1955,-3.2041,0.0,0.0,-3.2576,-3.349,-3.4835,-3.5801,-3.6301,-3.6301,-3.6301,-3.6301,-3.6301,-3.6301,-3.6301,-3.6301,-3.6301,-3.6301,-3.6301,-3.6301,-3.6301,-3.6301,-3.6301,-3.6301,-3.6301,-3.6301,-3.6301,-3.6301,-3.6301,-3.6301,-3.6301,-3.6301,-3.6301,-3.6301,-3.6301,-3.6301,-3.6301,-3.6301,-3.6301,-3.6301,-3.6301,-3.6163,-3.587,-3.5128,-3.4766,-3.43,-3.2972,-3.2684,-3.2619,-3.2014,-3.1875,-3.1875,-3.1875,-3.1838,-3.18,-3.18,-3.125,-3.0404,-2.9217,-2.8724,-2.8314,-2.7774,-2.7701,-2.7631,-2.7438,-2.6771,-2.5998,-2.5208,-2.4625,-2.3975,-2.3177,-2.3107,-2.3107,-2.3107,-2.3107,-2.3107,-2.3107,-2.3107,-2.3119,-2.3156,-2.3313,-2.3289,-2.3057,-2.3277,-2.3121,-2.2592,-2.2672,-2.2542,-2.7123,-2.7339,-2.7373,-2.673,-2.6534,-2.6268,-2.5436,-2.5527,-2.5506,-2.4483,-2.4321,0.0,-2.3475,-2.3836,0.0,0.0,0.0,0.0,-2.923,-2.9799,-3.0593,0.0,-3.2283,0.0,-3.3352,-3.3421,-3.3559,0.0,-3.3904,-3.4283,-3.5145,-3.5904,-3.6301,-3.6301,-3.6301,-3.6301,-3.6301,-3.6301,-3.6301,-3.6301,-3.6301,-3.6301,-3.6301,-3.6301,-3.6301,-3.6301,-3.6301,-3.6301,-3.6301,-3.6301,-3.6301,-3.6301,-3.6301,-3.6301,-3.6301,-3.6301,-3.6301,-3.6301,-3.6301,-3.6301,-3.6301,-3.6301,-3.6301,-3.6301,-3.6301,-3.6301,-3.6146,-3.5404,-3.5197,-3.4921,-3.3731,-3.3256,-3.2968,-3.2462,-3.21,-3.1894,-3.1857,-3.1819,-3.18,-3.18,-3.1232,-3.0404,-2.9343,-2.892,-2.8477,-2.7749,-2.7672,-2.7701,-2.7701,-2.735,-2.6788,-2.6016,-2.5559,-2.498,-2.4177,-2.3821,-2.3628,-2.3628,-2.33,-2.3107,-2.3107,-2.3107,-2.3107,-2.3107,-2.3253,-2.3253,-2.3107,-2.3377,-2.3218,-2.2699,-2.2825,-2.2642,-2.8356,-2.839,-2.7741,-2.7227,-2.7402,-2.7297,-2.5754,-2.5733,-2.5535,-2.3636,0.0,-2.3472,-2.1508,-2.2734,-2.4082,-2.428,0.0,-2.773,-2.942,-3.0248,-3.1282,-3.2869,-3.3145,-3.3524,-3.43,-3.4407,-3.4665,-3.5283,-3.5335,-3.5335,-3.5335,-3.5956,-3.6301,-3.6301,-3.6301,-3.6301,-3.6301,-3.6301,-3.6301,-3.6301,-3.6301,-3.6301,-3.6301,-3.6301,-3.6301,-3.6301,-3.6301,-3.6301,-3.6301,-3.6301,-3.6301,-3.6301,-3.6301,-3.6301,-3.6301,-3.6301,-3.6301,-3.6301,-3.6301,-3.6301,-3.6301,-3.6301,-3.6301,-3.6301,-3.6301,-3.6301,-3.6163,-3.5525,-3.5335,-3.518,-3.4441,-3.374,-3.3192,-3.2976,-3.2392,-3.1875,-3.1819,-3.1818,-3.18,-3.18,-3.1282,-3.0628,-2.9902,-2.9223,-2.8521,-2.7864,-2.7727,-2.7701,-2.7701,-2.7701,-2.742,-2.6669,-2.6598,-2.6265,-2.5472,-2.473,-2.4304,-2.4304,-2.3541,-2.3107,-2.3107,-2.3107,-2.3107,-2.3107,-2.3119,-2.3107,-2.3057,-2.3342,-2.3199,-2.2646,-2.291,-2.2769,-2.8138,-2.851,-2.8583,-2.7778,-2.6868,-2.6129,-2.5911,-2.424,0.0,0.0,-2.2629,-2.1883,-2.1968,-2.2876,-2.411,-2.5645,0.0,0.0,0.0,0.0,-3.149,0.0,0.0,0.0,0.0,-3.5921,0.0,0.0,-3.6111,-3.6111,-3.6111,-3.6232,-3.6301,-3.6301,-3.6301,-3.6301,-3.6301,-3.6301,-3.6301,-3.6301,-3.6301,-3.6301,-3.6301,-3.6301,-3.6301,-3.6301,-3.6301,-3.6301,-3.6301,-3.6301,-3.6301,-3.6301,-3.6301,-3.6301,-3.6301,-3.6301,-3.6301,-3.6301,-3.6301,-3.6301,-3.6301,-3.6301,-3.6301,-3.6301,-3.6301,-3.6301,-3.6266,-3.6146,-3.6111,-3.5939,-3.5197,-3.4458,-3.379,-3.319,-3.2426,-3.1838,-3.1875,-3.1838,-3.18,-3.18,-3.1696,-3.1406,-3.0786,-3.0073,-2.9389,-2.8778,-2.8107,-2.7701,-2.7701,-2.7701,-2.742,-2.6669,-2.6598,-2.6265,-2.5472,-2.473,-2.4304,-2.4304,-2.3541,-2.3107,-2.3107,-2.3107,-2.3107,-2.3107,-2.3217,-2.3107,-2.2777,-2.3139,-2.3003,-2.238,-2.2646,-2.2565,-2.8096,-2.8627,-2.8975,-2.7996,-2.7264,-2.6571,-2.5687,0.0,0.0,0.0,-2.2025,-2.1343,-2.0798,0.0,0.0,0.0,0.0,0.0,0.0,0.0,0.0,0.0,0.0,0.0,0.0,-3.6301,-3.6301,-3.6301,-3.6301,-3.6301,-3.6301,-3.6301,-3.6301,-3.6301,-3.6301,-3.6301,-3.6301,-3.6301,-3.6301,-3.6301,-3.6301,-3.6525,-3.6904,-3.649,-3.6525,-3.6887,-3.6473,-3.6301,-3.6301,-3.6301,-3.6301,-3.6301,-3.6301,-3.6301,-3.6301,-3.6301,-3.6301,-3.6301,-3.6301,-3.6301,-3.6301,-3.6301,-3.6301,-3.6301,-3.6301,-3.6301,-3.6301,-3.6301,-3.6301,-3.6215,-3.5852,-3.4962,-3.4071,-3.3748,-3.274,-3.1857,-3.1894,-3.1856,-3.18,-3.18,-3.18,-3.1613,-3.0959,-3.0264,-2.9581,-2.894,-2.8195,-2.7701,-2.7701,-2.7701,-2.7561,-2.721,-2.7174,-2.7016,-2.663,-2.591,-2.5314,-2.4892,-2.415,-2.3541,-2.3125,-2.3107,-2.3107,-2.3107,-2.3229,-2.3241,-2.3119,-2.3241,-2.3163,-2.291,-2.276,-2.2605,-2.8282,-2.8876,-2.9161,-2.8123,-2.7658,-2.7068,-2.5505,-2.43,0.0,0.0,-2.1455,-2.0851,-1.9759,0.0,-2.2338,0.0,-2.3344,0.0,0.0,0.0,0.0,0.0,0.0,0.0,0.0,-3.6301,0.0,-3.6301,-3.6301,-3.6301,-3.6301,-3.6301,-3.6301,-3.6301,-3.6301,-3.6301,-3.6301,-3.6301,-3.6301,-3.6301,-3.6301,-3.6715,-3.7478,-3.6663,-3.6732,-3.7461,-3.6646,-3.6301,-3.6301,-3.6301,-3.6301,-3.6301,-3.6301,-3.6301,-3.6301,-3.6301,-3.6301,-3.6301,-3.6301,-3.6301,-3.6301,-3.6301,-3.6301,-3.6301,-3.6301,-3.6301,-3.6301,-3.6301,-3.6301,-3.6266,-3.6111,-3.512,-3.411,-3.3783,-3.2796,-3.193,-3.1894,-3.1857,-3.1837,-3.18,-3.18,-3.1647,-3.115,-3.0369,-2.9634,-2.9152,-2.8285,-2.7701,-2.7701,-2.7701,-2.7701,-2.7701,-2.7701,-2.7701,-2.7701,-2.7016,-2.6335,-2.57,-2.4958,-2.4185,-2.34,-2.3353,-2.3295,-2.3107,-2.3205,-2.3289,-2.336,-2.3289,-2.3313,-2.3365,-2.2977,-2.2747,-2.8858,-2.9341,-2.9192,-2.8299,-2.7368,-2.651,-2.5801,0.0,0.0,-2.1927,-2.066,-1.9704,-2.0285,-2.0391,-2.0982,0.0,0.0,-2.5005,0.0,0.0,0.0,0.0,0.0,0.0,0.0,-3.6301,-3.6301,-3.6301,-3.6301,-3.6301,-3.6301,-3.6301,-3.6301,-3.6301,-3.6301,-3.6301,-3.6301,-3.6301,-3.6301,-3.6301,-3.6301,-3.6715,-3.7478,-3.6663,-3.6732,-3.7461,-3.6646,-3.6301,-3.6301,-3.6301,-3.6301,-3.6301,-3.6301,-3.6301,-3.6301,-3.6301,-3.6301,-3.6301,-3.6301,-3.6301,-3.6301,-3.6301,-3.6301,-3.6301,-3.6301,-3.6301,-3.6301,-3.6301,-3.6301,-3.6146,-3.5473,-3.4717,-3.3753,-3.243,-3.2106,-3.2055,-3.193,-3.1894,-3.1875,-3.1801,-3.18,-3.1856,-3.1968,-3.0767,-2.9842,-2.9953,-2.8684,-2.7701,-2.7701,-2.7701,-2.7701,-2.7701,-2.7701,-2.7701,-2.7701,-2.7016,-2.6563,-2.6493,-2.5752,-2.4963,-2.4221,-2.4185,-2.3852,-2.3107,-2.3119,-2.3052,-2.2957,-2.307,-2.3052,-2.297,-2.3022,-2.2922,-2.83,-2.8263,-2.804,-2.8709,-2.7461,-2.6125,-2.6377,0.0,-2.1807,-2.1972,-2.0652,-1.9571,-1.9908,-2.0167,-2.0708,-2.1841,-2.2469,-2.3551,-2.5677,0.0,0.0,0.0,0.0,0.0,0.0,0.0,-3.6301,-3.6301,-3.6301,-3.6301,-3.6301,-3.6301,-3.6301,-3.6301,-3.6301,-3.6301,-3.6301,-3.6301,-3.6301,-3.6301,-3.6301,-3.6715,-3.7478,-3.6663,-3.6732,-3.7461,-3.6646,-3.6301,-3.6301,-3.6301,-3.6301,-3.6301,-3.6301,-3.6301,-3.6301,-3.6301,-3.6301,-3.6301,-3.6301,-3.6301,-3.6301,-3.6301,-3.6301,-3.6301,-3.6301,-3.6301,-3.6301,-3.6301,-3.6301,-3.6128,-3.5387,-3.438,-3.3299,-3.228,-3.209,-3.2144,-3.2091,-3.1984,-3.1894,-3.1875,-3.1819,-3.1856,-3.2072,-3.082,-2.986,-3.0074,-2.8737,-2.7701,-2.7701,-2.7701,-2.7701,-2.7701,-2.7701,-2.7701,-2.7701,-2.7438,-2.7069,-2.6616,-2.63,-2.577,-2.498,-2.4963,-2.4805,-2.4489,-2.405,-2.3847,-2.3872,-2.336,-2.3102,-2.3144,-2.3109,-2.3192,-2.7873,-2.7873,-2.791,-2.9099,-2.7706,-2.6145,0.0,-2.4185,-2.1922,-2.168,-2.0548,-1.9609,-1.9609,-2.0099,-2.0692,-2.126,-2.2044,-2.3174,-2.4903,-2.6075,0.0,0.0,0.0,-3.3296,0.0,-3.6063,-3.6301,-3.6301,-3.6301,-3.6301,-3.6301,-3.6301,-3.6301,-3.6301,-3.6301,-3.6301,-3.6301,-3.6301,-3.6301,-3.6301,-3.6301,-3.6715,-3.7478,-3.6663,-3.6732,-3.7461,-3.6646,-3.6301,-3.6301,-3.6301,-3.6301,-3.6301,-3.6301,-3.6301,-3.6301,-3.6301,-3.6301,-3.6301,-3.6301,-3.6301,-3.6301,-3.6301,-3.6301,-3.6301,-3.6301,-3.6301,-3.6301,-3.6301,-3.599,-3.5525,-3.5007,-3.3887,-3.2733,-3.223,-3.2179,-3.2249,-3.2197,-3.209,-3.1984,-3.1912,-3.1857,-3.1874,-3.2019,-3.0785,-2.986,-3.0024,-2.8704,-2.7701,-2.7701,-2.7701,-2.7701,-2.7701,-2.7701,-2.7701,-2.7701,-2.7701,-2.7473,-2.6964,-2.6929,-2.6563,-2.5788,-2.5739,-2.5647,-2.5401,-2.4888,-2.4677,-2.4754,-2.4176,-2.3949,-2.4034,-2.4028,-2.4113,-2.7873,-2.8728,-2.9388,-2.9407,-2.8133,-2.6684,0.0,-2.3795,-2.1773,-2.0975,-2.0166,-1.9609,-1.9609,-2.0085,-2.0766,-2.1549,-2.2813,-2.4507,-2.6837,-2.7517,0.0,0.0,0.0,-3.1793,-3.4004,-3.548,-3.6301,-3.6301,-3.6301,0.0,-3.6301,-3.6301,-3.6301,-3.6301,-3.6301,-3.6301,-3.6301,-3.6301,-3.6301,-3.6301,-3.6301,-3.6715,-3.7478,-3.6663,-3.6732,-3.7461,-3.6646,-3.6301,-3.6301,-3.6301,-3.6301,-3.6301,-3.6301,-3.6301,-3.6301,-3.6301,-3.6301,-3.6301,-3.6301,-3.6301,-3.6301,-3.6301,-3.6301,-3.6301,-3.6301,-3.6301,-3.6301,-3.6301,-3.5249,-3.413,-3.4113,-3.3126,-3.2108,-3.209,-3.2249,-3.2354,-3.2232,-3.2197,-3.2144,-3.1948,-3.1894,-3.1894,-3.1894,-3.0734,-2.9826,-2.9891,-2.8656,-2.7701,-2.7701,-2.7701,-2.7701,-2.7701,-2.7701,-2.7701,-2.7701,-2.7701,-2.7701,-2.7683,-2.7683,-2.735,-2.6616,-2.6581,-2.6212,-2.5419,-2.5401,-2.5384,-2.5384,-2.5643,-2.577,-2.5783,-2.6039,-2.5882,-2.6089,-2.6265,-2.6191,-2.673,-2.6061,-2.5187,-2.4946,-2.3386,-2.1773,-2.0975,-2.0158,-1.9609,-1.9609,-1.9759,-2.0454,-2.2226,-2.2886,0.0,0.0,0.0,0.0,0.0,-3.3333,-3.4881,0.0,0.0,-3.6301,-3.6301,-3.6301,-3.6301,-3.6301,-3.6301,-3.6301,-3.6301,-3.6301,-3.6301,-3.6301,-3.6301,-3.6301,-3.6301,-3.6301,-3.6422,-3.6663,-3.6422,-3.6439,-3.6663,-3.6404,-3.6301,-3.6301,-3.6301,-3.6301,-3.6301,-3.6301,-3.6301,-3.6301,-3.6301,-3.6301,-3.6301,-3.6301,-3.6301,-3.6301,-3.6301,-3.6301,-3.6301,-3.6301,-3.6301,-3.6301,-3.6301,-3.5232,-3.4096,-3.4157,-3.3128,-3.2108,-3.2144,-3.2301,-3.2388,-3.2354,-3.2267,-3.2161,-3.2055,-3.1966,-3.1894,-3.1894,-3.115,-3.0402,-2.996,-2.9096,-2.8315,-2.7771,-2.7701,-2.7701,-2.7701,-2.7701,-2.7701,-2.7701,-2.7701,-2.7701,-2.7701,-2.7701,-2.7596,-2.7368,-2.735,-2.7227,-2.6981,-2.649,-2.6212,-2.6212,-2.5857,-2.5755,-2.5948,-2.6307,-2.637,0.0,-2.5094,-2.515,-2.5949,-2.5317,-2.4407,-2.4082,-2.2728,-2.1309,-2.0511,-1.9961,-1.9609,-1.9609,-1.985,-2.0604,-2.2293,-2.2829,-2.3824,0.0,0.0,0.0,0.0,0.0,0.0,0.0,-3.6206,-3.6471,-3.6322,-3.6301,-3.6301,-3.6301,-3.6301,-3.6301,-3.6301,-3.6301,-3.6301,-3.6301,-3.6301,-3.6301,-3.6301,-3.6301,-3.6301,-3.6301,-3.6301,-3.6301,-3.6301,-3.6301,-3.6301,0.0,-3.6301,-3.6301,-3.6301,-3.6301,-3.6301,-3.6301,-3.6301,-3.6301,-3.6301,-3.6301,-3.6301,-3.6301,-3.6301,-3.6301,-3.6301,-3.6301,-3.6301,-3.6232,-3.5956,-3.5007,-3.4027,-3.3775,-3.292,-3.2108,-3.2144,-3.2284,-3.2406,-3.2406,-3.2336,-3.2249,-3.2108,-3.202,-3.1948,-3.1875,-3.1323,-3.075,-3.0347,-2.95,-2.8719,-2.821,-2.7877,-2.7701,-2.7701,-2.7701,-2.7701,-2.7701,-2.7701,-2.7701,-2.7701,-2.7701,-2.7701,-2.7701,-2.7701,-2.7701,-2.7701,-2.7245,-2.7016,-2.7016,-2.6719,-2.671,-2.6982,-2.7112,-2.7077,0.0,-2.4816,0.0,-2.6293,-2.5383,-2.4101,-2.3221,-2.1866,0.0,-1.9776,-1.9609,-1.9627,-1.9664,-2.0296,-2.1105,-2.2033,-2.285,-2.4144,0.0,-2.7482,0.0,0.0,-3.4269,0.0,-3.5048,-3.6189,-3.6781,-3.6367,-3.6364,-3.6364,-3.6301,-3.6301,-3.6301,-3.6301,-3.6301,-3.6301,-3.6301,-3.6301,-3.6301,-3.6301,-3.6301,-3.6301,-3.6301,-3.6301,-3.6301,-3.6301,-3.6301,-3.6301,-3.6301,-3.6301,-3.6301,-3.6301,-3.6301,-3.6301,-3.6301,-3.6301,-3.6301,-3.6301,-3.6301,-3.6301,-3.6301,-3.6301,-3.6301,-3.6301,-3.6301,-3.6301,-3.6146,-3.5404,-3.4683,-3.3923,-3.311,-3.2519,-3.209,-3.2108,-3.2267,-3.2406,-3.2406,-3.2406,-3.2336,-3.2126,-3.209,-3.2037,-3.1838,-3.1358,-3.0959,-3.0907,-2.9854,-2.9018,-2.8912,-2.8245,-2.7754,-2.7701,-2.7701,-2.7701,-2.7701,-2.7701,-2.7701,-2.7701,-2.7701,-2.7701,-2.7701,-2.7701,-2.7701,-2.7701,-2.7701,-2.7701,-2.7701,-2.8049,-2.8322,-2.8562,-2.8268,-2.7996,-2.1343,0.0,-2.2765,-2.2338,-2.2412,-2.2375,0.0,-2.1068,-2.0567,-1.9776,0.0,0.0,-2.04,-2.066,-2.1484,-2.358,-2.4584,-2.5718,-2.7488,0.0,0.0,-3.3713,-3.5825,-3.7127,-3.7041,-3.7327,-3.7324,-3.6882,-3.6939,-3.6779,-3.6322,-3.6402,-3.6402,-3.6301,-3.6301,-3.6301,-3.6301,-3.6301,-3.6301,-3.6301,-3.6301,-3.6301,-3.6301,-3.6301,-3.6301,-3.6301,-3.6301,-3.6301,-3.6301,-3.6301,-3.6301,-3.6301,-3.6301,-3.6301,-3.6301,-3.6301,-3.6301,-3.6301,-3.6301,-3.6301,-3.6301,-3.6301,-3.6301,-3.6301,-3.6301,-3.6301,-3.6146,-3.5404,-3.4683,-3.3943,-3.3242,-3.2591,-3.2108,-3.2161,-3.2284,-3.2406,-3.2406,-3.2406,-3.2336,-3.2126,-3.2144,-3.2108,-3.1912,-3.1898,-3.169,-3.1149,-3.083,-3.0229,-2.9053,-2.8737,-2.8386,-2.7771,-2.7701,-2.7701,-2.7701,-2.7701,-2.7701,-2.7701,-2.7701,-2.7701,-2.7701,-2.7701,-2.7701,-2.7701,-2.7701,-2.7701,-2.7701,-2.8049,-2.8228,-2.8295,-2.8427,-2.8313,-2.0138,-2.1102,-2.1977,-2.1922,-2.1959,-2.1885,-2.1458,0.0,0.0,0.0,0.0,0.0,0.0,0.0,0.0,0.0,-2.4871,0.0,0.0,0.0,0.0,-3.5316,-3.7116,-3.8209,0.0,-3.7976,-3.7789,-3.7361,-3.7379,-3.721,-3.6739,-3.6719,-3.6615,-3.6402,-3.6322,-3.6301,-3.6301,-3.6301,-3.6301,-3.6301,-3.6301,-3.6301,-3.6301,-3.6301,-3.6301,-3.6301,-3.6301,-3.6301,-3.6301,-3.6301,-3.6301,-3.6301,-3.6301,-3.6301,-3.6301,-3.6301,-3.6301,-3.6301,-3.6301,-3.6301,-3.6301,-3.6301,-3.6301,-3.6301,-3.6301,-3.6059,-3.5628,-3.4887,-3.4128,-3.3388,-3.2686,-3.2295,-3.2108,-3.2144,-3.2267,-3.2406,-3.2406,-3.2406,-3.2354,-3.2179,-3.2179,-3.2161,-3.202,-3.2108,-3.2057,-3.1655,-3.1355,-3.0896,-3.0053,-2.9667,-2.9141,-2.8333,-2.8245,-2.8105,-2.7736,-2.7701,-2.7701,-2.7701,-2.7701,-2.7701,-2.7701,-2.7701,-2.7701,-2.7701,-2.7701,-2.7745,-2.7836,-2.8077,-2.8214,-2.83,-2.851,-2.8422,-1.9757,-2.0875,-2.2126,-2.2683,-2.2404,-2.1996,0.0,0.0,0.0,0.0,0.0,0.0,0.0,0.0,0.0,0.0,0.0,0.0,-3.0586,-3.3352,-3.543,-3.6641,-3.81,0.0,-3.8452,-3.8421,-3.8241,-3.7839,-3.7822,-3.7666,-3.7302,-3.7173,-3.6999,-3.6676,-3.6492,-3.6409,-3.6409,-3.6343,-3.6301,-3.6301,-3.6301,-3.6301,-3.6301,-3.6301,-3.6301,-3.6301,-3.6301,-3.6301,-3.6301,-3.6301,-3.6301,-3.6301,-3.6301,-3.6301,-3.6301,-3.6301,-3.6301,-3.6301,-3.6301,-3.6301,-3.6322,-3.6367,-3.6364,-3.6322,-3.6367,-3.5759,-3.4887,-3.4286,-3.3546,-3.2807,-3.2082,-3.2037,-3.2179,-3.2179,-3.2284,-3.2405,-3.2439,-3.2456,-3.2422,-3.2301,-3.2284,-3.2249,-3.2144,-3.2179,-3.2214,-3.2214,-3.1758,-3.1335,-3.1212,-3.065,-2.9966,-2.9176,-2.9088,-2.8754,-2.7947,-2.7877,-2.7824,-2.7701,-2.7701,-2.7701,-2.7701,-2.7701,-2.7701,-2.7701,-2.7701,-2.7774,-2.7954,-2.8109,-2.8246,-2.8367,-2.8497,-2.8422,-2.0453,-2.1284,-2.1866,-2.1309,-2.1588,-2.1996,-2.1996,0.0,0.0,0.0,0.0,0.0,0.0,0.0,-2.4491,0.0,0.0,-2.9824,0.0,0.0,-3.5163,-3.7434,0.0,-3.9059,-3.8984,-3.8984,-3.8789,-3.8321,-3.8387,-3.8227,-3.7666,-3.7702,-3.7684,-3.7524,-3.7098,-3.6884,-3.6884,-3.6495,-3.6301,-3.6301,-3.6301,-3.6301,-3.6301,-3.6301,-3.6301,-3.6301,-3.6301,-3.6301,-3.6301,-3.6301,-3.6301,-3.6301,-3.6301,-3.6301,-3.6301,-3.6301,-3.6301,-3.6301,-3.6301,-3.6301,-3.6364,-3.6698,-3.6577,-3.6346,-3.6701,-3.562,-3.4251,-3.413,-3.372,-3.3141,-3.2407,-3.2369,-3.2522,-3.2522,-3.2473,-3.2456,-3.2685,-3.2732,-3.2734,-3.2636,-3.2685,-3.2603,-3.2249,-3.2284,-3.2371,-3.2371,-3.2266,-3.1967,-3.1299,-3.1089,-3.0738,-3.0001,-2.993,-2.9597,-2.8789,-2.8719,-2.8421,-2.7736,-2.7701,-2.7701,-2.7701,-2.7701,-2.7701,-2.7701,-2.7701,-2.7716,-2.7745,-2.794,-2.8095,-2.8228,-2.8367,-2.8458,-2.0121,-2.1116,-2.1953,-2.1558,-2.2052,-2.2646,-2.2646,0.0,0.0,0.0,0.0,0.0,0.0,0.0,-2.5317,-2.7836,0.0,-3.2017,-3.3918,-3.4977,-3.6142,0.0,0.0,-3.9101,-3.9101,-3.9101,-3.9013,-3.8789,-3.8836,-3.867,-3.8209,-3.8178,-3.8044,-3.7824,-3.7488,-3.7323,-3.7323,-3.7076,-3.6739,-3.6301,-3.6301,-3.6301,-3.6301,-3.6301,-3.6301,-3.6301,-3.6301,-3.6301,-3.6301,-3.6301,-3.6301,-3.6301,-3.6301,-3.6301,-3.6301,-3.6301,-3.6301,-3.6301,-3.6301,-3.6301,-3.6385,-3.6761,-3.6618,-3.6385,-3.6781,-3.5593,-3.4113,-3.4113,-3.3481,-3.2722,-3.2388,-3.2437,-3.2606,-3.2606,-3.2507,-3.2473,-3.2732,-3.2795,-3.2842,-3.2986,-3.2908,-3.2749,-3.2554,-3.2456,-3.2406,-3.2406,-3.2523,-3.2432,-3.1913,-3.1975,-3.1707,-3.0789,-3.0685,-3.0211,-2.9,-2.8895,-2.8561,-2.7754,-2.7701,-2.7701,-2.7701,-2.7701,-2.7701,-2.7701,-2.7701,-2.7701,-2.7701,-2.7893,-2.8067,-2.8201,-2.834,-2.8471,-1.9899,-2.0879,-2.1891,-2.2224,0.0,-2.3545,-2.3749,0.0,0.0,0.0,0.0,0.0,0.0,-2.541,0.0,-2.9508,-3.1663,-3.3343,-3.4364,-3.5436,-3.6482,-3.7503,-3.8321,-3.8822,-3.8822,-3.899,-3.9101,-3.9101,-3.9101,-3.8984,-3.8733,-3.8606,-3.8452,-3.8178,-3.7928,-3.779,-3.7772,-3.7614,-3.7152,-3.6451,-3.6553,-3.6492,-3.6301,-3.6388,-3.6388,-3.6301,-3.6301,-3.6301,-3.6301,-3.6301,-3.6301,-3.6301,-3.6301,-3.6301,-3.6301,-3.6301,-3.6301,-3.6301,-3.6301,-3.6364,-3.6478,-3.6708,-3.67,-3.6643,-3.6767,-3.561,-3.4254,-3.4233,-3.3367,-3.2453,-3.2453,-3.2588,-3.2719,-3.2736,-3.2606,-3.2556,-3.286,-3.2983,-3.3105,-3.3379,-3.3154,-3.289,-3.2811,-3.2573,-3.2406,-3.2406,-3.2621,-3.2702,-3.244,-3.2638,-3.2453,-3.1578,-3.1475,-3.0931,-2.9562,-2.9281,-2.8842,-2.8035,-2.7789,-2.7701,-2.7701,-2.7701,-2.7701,-2.7701,-2.7701,-2.7701,-2.7701,-2.785,-2.8011,-2.8164,-2.8286,-2.8419,-2.0487,-2.0893,-2.1276,-2.2821,-2.381,0.0,-2.5346,-2.5476,0.0,-2.542,0.0,0.0,0.0,-2.8114,-3.0474,-3.1478,-3.2407,-3.3559,-3.5175,0.0,-3.4977,-3.6593,-3.7503,-3.7986,-3.7986,-3.8655,-3.9101,-3.9101,-3.9101,-3.9087,-3.9073,-3.9041,-3.9027,-3.9013,-3.8591,-3.8323,-3.8243,-3.7807,-3.7359,-3.686,-3.7246,-3.7036,-3.6322,-3.6698,-3.6658,-3.6301,-3.6301,-3.6301,-3.6301,-3.6301,-3.6301,-3.6301,-3.6301,-3.6301,-3.6301,-3.6301,-3.6301,-3.6301,-3.6301,-3.6536,-3.6796,-3.6541,-3.6916,-3.7381,-3.6649,-3.5652,-3.4709,-3.4616,-3.3739,-3.2856,-3.2856,-3.2954,-3.3086,-3.3144,-3.2972,-3.2876,-3.3184,-3.3508,-3.3734,-3.3748,-3.3494,-3.3169,-3.2842,-3.2573,-3.2406,-3.2406,-3.2621,-3.2702,-3.244,-3.2638,-3.2684,-3.2335,-3.2318,-3.1967,-3.1107,-3.0404,-2.9685,-2.886,-2.8105,-2.7701,-2.7701,-2.7701,-2.7701,-2.7701,-2.7701,-2.7701,-2.7701,-2.7716,-2.7821,-2.8028,-2.815,-2.8286,-1.9907,-2.0889,-2.1764,-2.2401,-2.4293,0.0,0.0,-2.5726,-2.6442,-2.6442,-2.752,0.0,0.0,0.0,-3.144,-3.1756,-3.289,-3.416,-3.5343,-3.5231,-3.5436,-3.6569,-3.6965,-3.7336,-3.7838,-3.8172,-3.8562,-3.9064,-3.9101,-3.9101,-3.9101,-3.8618,-3.8581,-3.9082,-3.8403,-3.8251,-3.8718,-3.852,-3.8163,-3.7702,-3.756,-3.7208,-3.6678,-3.6821,-3.6678,-3.6301,-3.6301,-3.6301,-3.6301,-3.6301,-3.6301,-3.6301,-3.6301,-3.6301,-3.6301,-3.6301,-3.6301,-3.6343,-3.6577,-3.6466,-3.628,-3.6661,-3.6494,-3.6125,-3.5856,-3.5129,-3.4319,-3.4058,-3.3602,-3.3211,-3.3211,-3.3202,-3.316,-3.319,-3.3003,-3.289,-3.3232,-3.355,-3.3842,-3.4023,-3.363,-3.3335,-3.3404,-3.2986,-3.2719,-3.2928,-3.3214,-3.3229,-3.2719,-3.2908,-3.2925,-3.2457,-3.1949,-3.1528,-3.1246,-3.0527,-2.9772,-2.8947,-2.8614,-2.821,-2.7719,-2.7701,-2.7701,-2.7701,-2.7701,-2.776,-2.7896,-2.776,-2.789,-2.8246,-2.8219,-2.8327,-1.9595,-2.0863,-2.223,0.0,0.0,0.0,-2.5782,-2.6702,-2.7687,-2.7687,-2.8597,0.0,0.0,0.0,0.0,0.0,-3.315,-3.4321,-3.4655,-3.4934,-3.5287,-3.585,-3.616,-3.6551,-3.7076,-3.7355,-3.7838,-3.8655,-3.8488,-3.8451,-3.8711,-3.7949,-3.7764,-3.8321,-3.7765,-3.7706,-3.8234,-3.821,-3.8,-3.7661,-3.7339,-3.7023,-3.6704,-3.6704,-3.649,-3.6107,-3.6107,-3.6042,-3.5942,-3.5928,-3.5983,-3.6107,-3.6107,-3.6042,-3.5973,-3.6215,-3.6011,-3.5714,-3.6344,-3.6174,-3.5741,-3.617,-3.6038,-3.5652,-3.5322,-3.4792,-3.4283,-3.4025,-3.3705,-3.3458,-3.3588,-3.3404,-3.3235,-3.3368,-3.3169,-3.3063,-3.3394,-3.3703,-3.3985,-3.4161,-3.3711,-3.3408,-3.3734,-3.3225,-3.2905,-3.3243,-3.3597,-3.3564,-3.289,-3.3093,-3.3065,-3.2457,-3.1897,-3.1581,-3.1581,-3.1124,-3.0492,-2.9685,-2.9404,-2.8807,-2.7736,-2.7701,-2.7701,-2.7701,-2.7701,-2.7806,-2.8014,-2.7864,-2.7979,-2.834,-2.8286,-2.8367,-1.9745,-2.0886,-2.2494,0.0,0.0,0.0,-2.7743,-2.8783,-2.9415,-2.9434,0.0,-2.9917,-3.1515,-3.1812,0.0,-3.1812,-3.3169,-3.3918,-3.3131,-3.3696,-3.4197,-3.4197,-3.4971,-3.5491,-3.5491,-3.6216,-3.7021,-3.7819,-3.7151,-3.7039,-3.7838,-3.7145,-3.6686,-3.6699,-3.6686,-3.666,-3.6604,-3.6604,-3.6564,-3.6496,-3.6477,-3.6425,-3.6292,-3.6292,-3.6076,-3.5682,-3.5682,-3.5505,-3.5192,-3.5136,-3.5349,-3.5682,-3.5682,-3.5486,-3.5287,-3.6008,-3.5396,-3.4361,-3.544,-3.5616,-3.5341,-3.4932,-3.5607,-3.6347,-3.515,-3.4797,-3.4787,-3.471,-3.4124,-3.3597,-3.3992,-3.3662,-3.3309,-3.3726,-3.3555,-3.3394,-3.3721,-3.4011,-3.4197,-3.4197,-3.3711,-3.3408,-3.3748,-3.3258,-3.2921,-3.3262,-3.3578,-3.3564,-3.289,-3.3093,-3.305,-3.2457,-3.2406,-3.2406,-3.2388,-3.2406,-3.2055,-3.1264,-3.051,-2.9386,-2.7771,-2.7701,-2.7701,-2.7701,-2.7701,-2.7806,-2.8014,-2.8014,-2.8067,-2.8219,-2.834,-2.8411,-2.0654,-2.1475,0.0,-2.4302,0.0,0.0,0.0,-2.9638,0.0,0.0,-3.2332,-3.2072,-3.2555,-3.2648,0.0,-3.2648,-3.3522,-3.4123,-3.3881,-3.4048,-3.4197,-3.4197,-3.442,-3.4587,-3.4587,-3.5361,-3.5956,-3.6197,-3.6532,-3.6811,-3.7052,-3.629,-3.6123,-3.6681,-3.616,-3.6129,-3.6679,-3.6679,-3.6639,-3.6545,-3.5999,-3.5688,-3.5593,-3.5593,-3.5243,-3.4664,-3.4876,-3.497,-3.4935,-3.5101,-3.5224,-3.5243,-3.5024,-3.4874,-3.4776,-3.4745,-3.4636,-3.4559,-3.5208,-3.5207,-3.493,-3.5152,-3.5084,-3.4797,-3.4251,-3.4191,-3.4258,-3.406,-3.3972,-3.3954,-3.4074,-3.385,-3.3652,-3.3762,-3.3721,-3.368,-3.3793,-3.4011,-3.4197,-3.4197,-3.3902,-3.373,-3.4036,-3.377,-3.3588,-3.3902,-3.4018,-3.3863,-3.3229,-3.2864,-3.2608,-3.2405,-3.2406,-3.2473,-3.267,-3.2506,-3.2156,-3.1586,-3.1131,-3.0176,-2.8614,-2.7999,-2.7701,-2.7701,-2.7701,-2.7847,-2.815,-2.8056,-2.8164,-2.8484,-2.8437,-2.8445,-2.1386,-2.2581,0.0,-2.5306,-2.713,-2.9006,-3.0493,0.0,0.0,0.0,0.0,-3.3113,-3.3417,-3.3224,0.0,-3.3001,-3.3677,-3.4086,-3.377,-3.3993,-3.4197,-3.4197,-3.4197,-3.4197,-3.4197,-3.468,-3.5138,-3.5473,-3.564,-3.585,-3.6197,-3.5454,-3.52,-3.5683,-3.5237,-3.5231,-3.5702,-3.5714,-3.5689,-3.5644,-3.5156,-3.4816,-3.4625,-3.492,-3.4804,-3.4359,-3.4429,-3.4457,-3.4431,-3.4433,-3.4616,-3.4839,-3.4482,-3.4358,-3.4358,-3.4344,-3.4194,-3.4108,-3.4844,-3.4776,-3.4412,-3.48,-3.4606,-3.4173,-3.4011,-3.4023,-3.4074,-3.3934,-3.3998,-3.4111,-3.4136,-3.4049,-3.3959,-3.3959,-3.3868,-3.3815,-3.3934,-3.4086,-3.4197,-3.4197,-3.3985,-3.3881,-3.4161,-3.3972,-3.3881,-3.4161,-3.4111,-3.3863,-3.3361,-3.288,-3.2506,-3.2405,-3.2507,-3.2621,-3.2797,-3.2654,-3.2444,-3.2137,-3.155,-3.0773,-2.9843,-2.8754,-2.8017,-2.7701,-2.7701,-2.7861,-2.8201,-2.8122,-2.8259,-2.86,-2.851,-2.8523,-2.1948,0.0,0.0,0.0,-2.8191,0.0,-3.2462,-3.3069,-3.3359,-3.4061,0.0,-3.3324,-3.4067,-3.3603,-3.3101,-3.3101,-3.3714,-3.3937,-3.3224,-3.3733,-3.4197,-3.4197,-3.4197,-3.416,-3.4104,-3.416,-3.4494,-3.5231,-3.4618,-3.455,-3.5343,-3.4637,-3.4197,-3.4197,-3.4197,-3.4197,-3.4197,-3.4197,-3.4197,-3.4197,-3.4197,-3.4018,-3.3671,-3.4312,-3.4575,-3.4501,-3.4189,-3.4002,-3.3881,-3.3508,-3.377,-3.4398,-3.4065,-3.3934,-3.399,-3.4394,-3.3944,-3.3295,-3.4328,-3.4311,-3.3868,-3.4124,-3.4197,-3.4197,-3.4197,-3.4161,-3.4124,-3.4185,-3.4161,-3.4124,-3.4185,-3.4197,-3.4197,-3.4197,-3.4011,-3.3895,-3.4148,-3.4197,-3.4197,-3.4197,-3.3998,-3.3908,-3.4161,-3.3998,-3.3921,-3.4161,-3.3972,-3.368,-3.335,-3.3016,-3.2718,-3.2456,-3.2654,-3.2827,-3.289,-3.2827,-3.2811,-3.2842,-3.1883,-3.1282,-3.1194,-2.972,-2.8561,-2.7824,-2.7751,-2.7876,-2.8201,-2.8201,-2.8353,-2.86,-2.86,-2.86,0.0,-2.3651,0.0,0.0,0.0,-3.1012,-3.2638,-3.3654,-3.4256,-3.4208,-3.4048,-3.3993,-3.416,-3.4048,-3.3937,-3.3937,-3.4086,-3.4141,-3.3956,-3.4086,-3.4197,-3.4197,-3.4197,-3.3956,-3.3324,-3.3826,-3.4011,-3.3577,-3.3949,-3.4271,-3.4457,-3.429,-3.4197,-3.4197,-3.4197,-3.4197,-3.4197,-3.4197,-3.4197,-3.4197,-3.4197,-3.4136,-3.3992,-3.3876,-3.3826,-3.3812,-3.3792,-3.3872,-3.3972,-3.3829,-3.3844,-3.3927,-3.3574,-3.3467,-3.3515,-3.3351,-3.333,-3.3465,-3.3738,-3.3939,-3.4049,-3.4161,-3.4197,-3.4197,-3.4197,-3.4185,-3.4185,-3.4197,-3.4185,-3.4185,-3.4197,-3.4197,-3.4197,-3.4197,-3.4161,-3.4136,-3.4185,-3.4197,-3.4197,-3.4197,-3.4161,-3.4136,-3.4185,-3.4161,-3.4136,-3.4185,-3.3972,-3.368,-3.335,-3.3016,-3.2781,-3.2734,-3.2765,-3.3014,-3.3536,-3.3105,-3.2905,-3.3169,-3.2528,-3.1861,-3.1246,-2.972,-2.8825,-2.8649,-2.8185,-2.8025,-2.8201,-2.8313,-2.8445,-2.86,-2.86,-2.86,0.0,0.0,0.0,0.0,0.0,0.0,-3.2887,-3.3974,-3.4689,-3.4431,-3.4293,-3.4197,-3.4197,-3.4197,-3.4197,-3.4197,-3.4197,-3.4197,-3.4197,-3.4197,-3.4197,-3.4197,-3.4197,-3.403,-3.3621,-3.3956,-3.403,-3.3615,-3.3956,-3.4197,-3.4197,-3.4197,-3.4197,-3.4197,-3.4197,-3.4197,-3.4197,-3.4197,-3.4197,-3.4197,-3.4197,-3.4185,-3.4148,-3.3923,-3.3858,-3.3897,-3.3868,-3.3895,-3.3998,-3.3895,-3.3815,-3.378,-3.3422,-3.3451,-3.3588,-3.3296,-3.3439,-3.3805,-3.3852,-3.3986,-3.4161,-3.4185,-3.4197,-3.4197,-3.4197,-3.4197,-3.4197,-3.4197,-3.4197,-3.4197,-3.4197,-3.4197,-3.4197,-3.4197,-3.4197,-3.4197,-3.4197,-3.4197,-3.4197,-3.4197,-3.4197,-3.4197,-3.4197,-3.4197,-3.4197,-3.4197,-3.4086,-3.3881,-3.3578,-3.3375,-3.3229,-3.3063,-3.3184,-3.3419,-3.3762,-3.3332,-3.3108,-3.3291,-3.2721,-3.2229,-3.189,-3.076,-2.9744,-2.8912,-2.8375,-2.8136,-2.8201,-2.8327,-2.8458,-2.86,-2.86,-2.86,0.0,0.0,0.0,0.0,0.0,0.0,-3.3133,-3.4178,-3.4879,-3.4689,-3.4443,-3.4257,-3.4209,-3.4197,-3.4197,-3.4197,-3.4197,-3.4197,-3.4197,-3.4197,-3.4197,-3.4197,-3.4197,-3.4197,-3.4197,-3.4197,-3.4197,-3.4197,-3.4197,-3.4197,-3.4197,-3.4197,-3.4197,-3.4197,-3.4197,-3.4197,-3.4197,-3.4197,-3.4197,-3.4197,-3.4197,-3.4197,-3.4197,-3.4148,-3.4148,-3.4197,-3.4061,-3.4011,-3.4011,-3.3868,-3.3815,-3.3802,-3.3536,-3.3634,-3.3908,-3.3684,-3.3818,-3.4124,-3.4185,-3.4197,-3.4197,-3.4197,-3.4197,-3.4197,-3.4197,-3.4197,-3.4197,-3.4197,-3.4197,-3.4197,-3.4197,-3.4197,-3.4197,-3.4197,-3.4197,-3.4197,-3.4197,-3.4197,-3.4197,-3.4197,-3.4197,-3.4197,-3.4197,-3.4197,-3.4197,-3.4197,-3.4197,-3.4099,-3.3829,-3.3807,-3.3694,-3.3422,-3.3638,-3.3815,-3.3855,-3.3522,-3.3321,-3.335,-3.2737,-3.2491,-3.2639,-3.1927,-3.08,-2.9215,-2.8682,-2.8443,-2.8443,-2.8438,-2.8484,-2.86,-2.86,-2.86,0.0,0.0,0.0,0.0,0.0,0.0,0.0,0.0,-3.5098,0.0,-3.4699,-3.4484,-3.4245,-3.4197,-3.4197,-3.4197,-3.4197,-3.4197,-3.4197,-3.4197,-3.4197,-3.4197,-3.4197,-3.4197,-3.4197,-3.4197,-3.4197,-3.4197,-3.4197,-3.4197,-3.4197,-3.4197,-3.4197,-3.4197,-3.4197,-3.4197,-3.4197,-3.4197,-3.4197,-3.4197,-3.4197,-3.4197,-3.4197,-3.4185,-3.4185,-3.4197,-3.4061,-3.4036,-3.4074,-3.3947,-3.3921,-3.3972,-3.3915,-3.3967,-3.4074,-3.403,-3.4099,-3.4185,-3.4197,-3.4197,-3.4197,-3.4197,-3.4197,-3.4197,-3.4197,-3.4197,-3.4197,-3.4197,-3.4197,-3.4197,-3.4197,-3.4197,-3.4197,-3.4197,-3.4197,-3.4197,-3.4197,-3.4197,-3.4197,-3.4197,-3.4197,-3.4197,-3.4197,-3.4197,-3.4197,-3.4197,-3.4197,-3.4099,-3.3829,-3.3807,-3.3775,-3.3734,-3.3762,-3.3895,-3.4124,-3.3616,-3.3364,-3.3545,-3.2836,-3.2542,-3.2852,-3.2105,-3.1235,-3.0294,-2.9697,-2.9413,-2.9413,-2.8853,-2.8574,-2.86,-2.86,-2.86,-2.0361,0.0,0.0,0.0,0.0,0.0,-3.274,0.0,-3.473,-3.5011,-3.5001,-3.4831,-3.4476,-3.4409,-3.4363,-3.4221,-3.4197,-3.4197,-3.4197,-3.4197,-3.4197,-3.4197,-3.4197,-3.4197,-3.4197,-3.4197,-3.4197,-3.4197,-3.4197,-3.4197,-3.4197,-3.4197,-3.4197,-3.4197,-3.4197,-3.4197,-3.4197,-3.4197,-3.4197,-3.4197,-3.4197,-3.4197,-3.4197,-3.4197,-3.4197,-3.4197,-3.4099,-3.4074,-3.4099,-3.3998,-3.3972,-3.3998,-3.3998,-3.4036,-3.4099,-3.4099,-3.4148,-3.4197,-3.4197,-3.4197,-3.4197,-3.4197,-3.4197,-3.4197,-3.4197,-3.4197,-3.4197,-3.4197,-3.4197,-3.4197,-3.4197,-3.4197,-3.4197,-3.4197,-3.4197,-3.4197,-3.4197,-3.4197,-3.4197,-3.4197,-3.4197,-3.4197,-3.4197,-3.4197,-3.4197,-3.4197,-3.4197,-3.4161,-3.4036,-3.4023,-3.4023,-3.4023,-3.4023,-3.4074,-3.4185,-3.3643,-3.3397,-3.3591,-3.2914,-3.2673,-3.2993,-3.267,-3.216,-3.1474,-3.0301,-2.9453,-2.8928,-2.8717,-2.8835,-2.9264,-2.9264,-2.9264,0.0,0.0,0.0,0.0,0.0,0.0,0.0,0.0,-3.4333,0.0,-3.512,-3.5176,-3.4821,-3.471,-3.4615,-3.4401,-3.4379,-3.4356,-3.4305,-3.4293,-3.4281,-3.4209,-3.4197,-3.4197,-3.4197,-3.4197,-3.4197,-3.4197,-3.4197,-3.4197,-3.4197,-3.4011,-3.3993,-3.4179,-3.3788,-3.3677,-3.3881,-3.3677,-3.3677,-3.39,-3.39,-3.3993,-3.4197,-3.4197,-3.4197,-3.4197,-3.4136,-3.4111,-3.4124,-3.4049,-3.4036,-3.4049,-3.4049,-3.4086,-3.4124,-3.4124,-3.4161,-3.4197,-3.4197,-3.4197,-3.4197,-3.4197,-3.4197,-3.4197,-3.4197,-3.4197,-3.4197,-3.4197,-3.4197,-3.4197,-3.4197,-3.4197,-3.4197,-3.4197,-3.4197,-3.4197,-3.4197,-3.4197,-3.4197,-3.4197,-3.4197,-3.4197,-3.4197,-3.4197,-3.4197,-3.4197,-3.4197,-3.4197,-3.4197,-3.4197,-3.4197,-3.4197,-3.4221,-3.4221,-3.4197,-3.3716,-3.3484,-3.3629,-3.3037,-3.2834,-3.3165,-3.2979,-3.26,-3.1978,-3.0594,-2.95,-2.8765,-2.8869,-2.921,-2.9802,-3.002,-3.011,0.0,0.0,0.0,0.0,0.0,0.0,0.0,0.0,-3.4206,-3.4237,-3.4916,-3.5424,-3.5209,-3.5019,-3.4889,-3.4879,-3.486,-3.4811,-3.4604,-3.4591,-3.4484,-3.4233,-3.4197,-3.4197,-3.4197,-3.4197,-3.4197,-3.4197,-3.4197,-3.4197,-3.4197,-3.3473,-3.3398,-3.4179,-3.2723,-3.2295,-3.3045,-3.2314,-3.2314,-3.3057,-3.3057,-3.3466,-3.4197,-3.4197,-3.4197,-3.4197,-3.4136,-3.4136,-3.4185,-3.4124,-3.4136,-3.4185,-3.4185,-3.4197,-3.4197,-3.4197,-3.4197,-3.4197,-3.4197,-3.4197,-3.4197,-3.4197,-3.4197,-3.4197,-3.4197,-3.4197,-3.4197,-3.4197,-3.4197,-3.4197,-3.4197,-3.4197,-3.4197,-3.4197,-3.4197,-3.4197,-3.4197,-3.4197,-3.4197,-3.4197,-3.4197,-3.4197,-3.4197,-3.4197,-3.4197,-3.4197,-3.4197,-3.4197,-3.4197,-3.4197,-3.4197,-3.4197,-3.4257,-3.4269,-3.4209,-3.3881,-3.3712,-3.3775,-3.322,-3.3026,-3.3364,-3.2643,-3.196,-3.136,-3.0514,-2.9982,-2.9735,-2.973,-2.9766,-2.9821,-3.0581,-3.0944,0.0,0.0,0.0,0.0,0.0,-2.7639,-2.9255,-3.0777,-3.1975,-3.2484,-3.3293,-3.3872,-3.3801,-3.4496,-3.5051,-3.4917,-3.4898,-3.486,-3.4792,-3.4801,-3.4752,-3.4651,-3.4641,-3.4607,-3.4473,-3.4461,-3.4393,-3.4209,-3.4197,-3.3956,-3.3466,-3.3169,-3.2908,-3.2667,-3.2109,-3.1942,-3.224,-3.1942,-3.1942,-3.224,-3.224,-3.2388,-3.2667,-3.2667,-3.2667,-3.2704,-3.3182,-3.3702,-3.4197,-3.4173,-3.4173,-3.4197,-3.4197,-3.4197,-3.4197,-3.4197,-3.4197,-3.4197,-3.4197,-3.4197,-3.4197,-3.4197,-3.4197,-3.4197,-3.4197,-3.4197,-3.4197,-3.4197,-3.4197,-3.4197,-3.4197,-3.4197,-3.4197,-3.4197,-3.4197,-3.4197,-3.4197,-3.4197,-3.4197,-3.4197,-3.4197,-3.4197,-3.4197,-3.4197,-3.4197,-3.4197,-3.4197,-3.4197,-3.4197,-3.4197,-3.4221,-3.4257,-3.4281,-3.4305,-3.4328,-3.3947,-3.3788,-3.4036,-3.3518,-3.3394,-3.378,-3.3513,-3.2781,-3.1513,-3.1084,-3.0325,-2.9229,-2.9092,-2.9554,-3.0581,-3.0871,-3.1274,-1.741,0.0,0.0,0.0,0.0,-2.5236,-2.7777,0.0,-2.9959,-3.1067,-3.1973,-3.2648,-3.2956,-3.3821,-3.4549,-3.4688,-3.4937,-3.51,-3.5008,-3.499,-3.4982,-3.4917,-3.4908,-3.486,-3.471,-3.4699,-3.4473,-3.3941,-3.3899,-3.351,-3.2648,-3.2351,-3.1831,-3.1013,-3.1255,-3.1273,-3.0995,-3.0995,-3.1125,-3.1403,-3.1403,-3.1533,-3.1794,-3.1794,-3.1794,-3.1831,-3.237,-3.3045,-3.3807,-3.4086,-3.4197,-3.4197,-3.4197,-3.4197,-3.4197,-3.4197,-3.4197,-3.4197,-3.4197,-3.4197,-3.4197,-3.4197,-3.4197,-3.4197,-3.4197,-3.4197,-3.4197,-3.4197,-3.4197,-3.4197,-3.4197,-3.4197,-3.4197,-3.4197,-3.4197,-3.4197,-3.4197,-3.4197,-3.4197,-3.4197,-3.4197,-3.4197,-3.4197,-3.4197,-3.4197,-3.4197,-3.4197,-3.4197,-3.4197,-3.4221,-3.4245,-3.4257,-3.4328,-3.4381,-3.4381,-3.4086,-3.3985,-3.4185,-3.3818,-3.3711,-3.3985,-3.3525,-3.2753,-3.1698,-3.0942,-3.0038,-2.8962,-2.8991,-2.9554,-3.0618,-3.1161,-3.1818,0.0,0.0,0.0,0.0,0.0,0.0,-2.6024,0.0,-2.8367,-3.0036,-3.1028,-3.1857,-3.2725,-3.2985,-3.3324,-3.4106,-3.4955,-3.5419,-3.517,-3.5139,-3.5059,-3.486,-3.4851,-3.4851,-3.4823,-3.4823,-3.4405,-3.3347,-3.326,-3.2828,-3.1816,-3.0995,-3.0214,-2.9415,-3.0158,-3.0196,-2.9396,-2.9396,-2.9787,-3.0567,-3.0567,-3.0976,-3.1738,-3.1738,-3.1738,-3.1738,-3.1756,-3.2221,-3.3039,-3.3826,-3.4179,-3.4197,-3.4197,-3.4197,-3.4197,-3.4197,-3.4197,-3.4197,-3.4197,-3.4197,-3.4197,-3.4197,-3.4197,-3.4197,-3.4197,-3.4197,-3.4197,-3.4197,-3.4197,-3.4197,-3.4197,-3.4197,-3.4197,-3.4197,-3.4197,-3.4197,-3.4197,-3.4197,-3.4197,-3.4197,-3.4197,-3.4197,-3.4197,-3.4197,-3.4197,-3.4197,-3.4197,-3.4197,-3.4197,-3.4257,-3.4281,-3.4209,-3.4374,-3.445,-3.4316,-3.4305,-3.4269,-3.4221,-3.4086,-3.4011,-3.4023,-3.2625,-3.1842,-3.1804,-3.0053,-2.9134,-2.9097,-2.9557,-2.9784,-2.9875,-3.1487,-3.2632,-1.7813,0.0,0.0,0.0,0.0,0.0,0.0,0.0,-2.5731,-2.7419,-2.8424,-2.9298,-3.0168,-3.1332,-3.2222,-3.2463,-3.3219,-3.3759,-3.3628,-3.3615,-3.3563,-3.3468,-3.3453,-3.339,-3.3247,-3.3231,-3.3042,-3.26,-3.2494,-3.2045,-3.1123,-3.0224,-2.9619,-2.9407,-2.9619,-2.9619,-2.9396,-2.9396,-2.9508,-2.9731,-2.9731,-2.9842,-3.0065,-3.0065,-3.0065,-3.0103,-3.0679,-3.1385,-3.2184,-3.3001,-3.3658,-3.4197,-3.4197,-3.4197,-3.4197,-3.4197,-3.4197,-3.4197,-3.4197,-3.4197,-3.4197,-3.4197,-3.4197,-3.4197,-3.4197,-3.4197,-3.4197,-3.4197,-3.4197,-3.4197,-3.4197,-3.4197,-3.4197,-3.4197,-3.4197,-3.4197,-3.4197,-3.4197,-3.4197,-3.4197,-3.4197,-3.4197,-3.4197,-3.4197,-3.4197,-3.4197,-3.4197,-3.4197,-3.4197,-3.4257,-3.4305,-3.434,-3.4439,-3.4506,-3.4517,-3.4374,-3.4351,-3.4484,-3.4316,-3.4281,-3.4439,-3.3492,-3.267,-3.2033,-3.0822,-2.9837,-2.9097,-2.898,-2.9536,-3.0708,-3.2325,-3.2886,0.0,0.0,0.0,0.0,0.0,0.0,-2.3093,-2.3557,-2.4234,0.0,-2.7093,-2.7716,-2.861,-2.9553,-3.0327,-3.0694,-3.1183,-3.1867,-3.291,-3.3028,-3.2991,-3.2954,-3.2923,-3.2859,-3.2752,-3.2718,-3.2477,-3.1846,-3.1722,-3.1252,-3.0269,-2.971,-2.9396,-2.9396,-2.9396,-2.9396,-2.9396,-2.9396,-2.9396,-2.9396,-2.9396,-2.9396,-2.9396,-2.9396,-2.9396,-2.9444,-2.9898,-3.0549,-3.1366,-3.2165,-3.3157,-3.4197,-3.4197,-3.4197,-3.4197,-3.4197,-3.4197,-3.4197,-3.4197,-3.4197,-3.4197,-3.4197,-3.4197,-3.4197,-3.4197,-3.4197,-3.4197,-3.4197,-3.4197,-3.4197,-3.4197,-3.4197,-3.4197,-3.4197,-3.4197,-3.4197,-3.4197,-3.4197,-3.4197,-3.4197,-3.4197,-3.4197,-3.4197,-3.4197,-3.4197,-3.4197,-3.4197,-3.4209,-3.4233,-3.4293,-3.4351,-3.4404,-3.4484,-3.4539,-3.455,-3.4484,-3.4484,-3.4583,-3.4495,-3.4334,-3.4113,-3.3306,-3.2461,-3.1616,-3.0623,-2.9768,-2.9097,-2.8845,-2.9379,-3.0665,-3.192,-3.2447,0.0,0.0,0.0,0.0,0.0,0.0,-2.3441,-2.3383,-2.3538,0.0,-2.6281,-2.6532,-2.743,-2.7739,-2.8107,-2.8896,-2.9089,-3.0008,-3.2466,-3.2759,-3.2711,-3.2721,-3.2666,-3.2628,-3.2628,-3.2622,-3.2178,-3.1094,-3.098,-3.0516,-2.9465,-2.9396,-2.9396,-2.9396,-2.9396,-2.9396,-2.9396,-2.9396,-2.9396,-2.9396,-2.9396,-2.9396,-2.9396,-2.9396,-2.9396,-2.9396,-2.9396,-2.9861,-3.066,-3.1366,-3.2611,-3.4067,-3.416,-3.4197,-3.4197,-3.4197,-3.4197,-3.4197,-3.4197,-3.4197,-3.4197,-3.4197,-3.4197,-3.4197,-3.4197,-3.4197,-3.4197,-3.4197,-3.4197,-3.4197,-3.4197,-3.4197,-3.4197,-3.4197,-3.4197,-3.4197,-3.4197,-3.4197,-3.4197,-3.4197,-3.4197,-3.4197,-3.4197,-3.4197,-3.4197,-3.4197,-3.4209,-3.4233,-3.4293,-3.4381,-3.4416,-3.4416,-3.4517,-3.4591,-3.4517,-3.458,-3.4612,-3.4612,-3.4508,-3.4151,-3.3427,-3.248,-3.1635,-3.0912,-2.9912,-2.9322,-2.9137,-2.9088,-2.9368,-3.0009,-3.1004,-3.1785,-2.2648,-2.3055,0.0,0.0,-2.2594,0.0,-2.2381,-2.2555,-2.3039,0.0,-2.3635,-2.3906,-2.4776,-2.6033,-2.7015,-2.7189,-2.7793,-2.8906,-3.0752,-3.0993,-3.0983,-3.1,-3.0929,-3.0887,-3.0887,-3.0883,-3.079,-3.0542,-3.0289,-2.9912,-2.9427,-2.9396,-2.9396,-2.9396,-2.9396,-2.9396,-2.9396,-2.9396,-2.9396,-2.9396,-2.9396,-2.9396,-2.9396,-2.9396,-2.9396,-2.9396,-2.9396,-2.9861,-3.0604,-3.0772,-3.1775,-3.3287,-3.3956,-3.4197,-3.4197,-3.4197,-3.4197,-3.4197,-3.4197,-3.4197,-3.4197,-3.4197,-3.4197,-3.4197,-3.4197,-3.4197,-3.4197,-3.4197,-3.4197,-3.4197,-3.4197,-3.4197,-3.4197,-3.4197,-3.4197,-3.4197,-3.4197,-3.4197,-3.4197,-3.4197,-3.4197,-3.4197,-3.4197,-3.4197,-3.4197,-3.4197,-3.4245,-3.4281,-3.4293,-3.4416,-3.4484,-3.4484,-3.455,-3.4583,-3.4572,-3.4583,-3.4612,-3.4612,-3.3982,-3.3569,-3.3408,-3.1944,-3.1062,-3.0893,-2.9912,-2.9392,-2.9343,-2.9791,-2.9768,-2.9344,-3.1489,-3.2156,-2.4428,-2.4525,-2.466,-2.3813,-2.3906,0.0,0.0,-2.3232,-2.3155,-2.4022,-2.3499,-2.3174,-2.4041,-2.4892,-2.5604,-2.6029,-2.6803,-2.7808,-2.9071,-2.925,-2.9255,-2.9245,-2.9196,-2.9315,-2.9764,-2.9795,-2.9936,-3.0235,-3.0034,-2.9777,-2.9512,-2.9502,-2.9471,-2.9407,-2.9396,-2.9396,-2.9396,-2.9396,-2.9396,-2.9396,-2.9396,-2.9396,-2.9396,-2.9396,-2.9396,-2.9396,-2.9396,-2.9619,-3.0028,-3.0437,-3.1087,-3.1924,-3.3131,-3.3844,-3.4197,-3.4197,-3.4197,-3.4197,-3.4197,-3.4197,-3.4197,-3.4197,-3.4197,-3.4197,-3.4197,-3.4197,-3.4197,-3.4197,-3.4197,-3.4197,-3.4197,-3.4197,-3.4197,-3.4197,-3.4197,-3.4197,-3.4197,-3.4197,-3.4197,-3.4197,-3.4197,-3.4197,-3.4197,-3.4221,-3.4245,-3.4245,-3.4305,-3.4351,-3.4404,-3.4461,-3.4517,-3.4539,-3.4572,-3.4612,-3.4612,-3.4612,-3.4433,-3.4038,-3.3625,-3.3033,-3.2188,-3.1719,-3.1504,-3.1504,-3.0618,-3.0354,-3.0747,-3.0655,-3.0328,-2.9893,-3.157,-3.2231,-2.6153,-2.5975,-2.5936,-2.5778,-2.5337,-2.4989,0.0,0.0,0.0,0.0,0.0,0.0,0.0,0.0,0.0,-2.4873,0.0,0.0,0.0,-2.7157,0.0,-2.7936,-2.7947,-2.8203,-2.8907,-2.8819,-2.8969,-2.9575,-2.9372,-2.9274,-2.9399,-2.9409,-2.942,-2.945,-2.944,-2.9419,-2.9407,-2.9396,-2.9396,-2.9396,-2.9396,-2.9396,-2.9396,-2.9396,-2.9396,-2.9396,-2.9396,-2.9396,-2.9452,-3.0103,-3.0456,-3.0734,-3.2202,-3.325,-3.3956,-3.3956,-3.4067,-3.4197,-3.4197,-3.4197,-3.4197,-3.4197,-3.4197,-3.4197,-3.4197,-3.4197,-3.4197,-3.4197,-3.4197,-3.4209,-3.4221,-3.4221,-3.4221,-3.4221,-3.4221,-3.4221,-3.4209,-3.4197,-3.4209,-3.4221,-3.4221,-3.4221,-3.4221,-3.4257,-3.4305,-3.4316,-3.4393,-3.445,-3.4495,-3.4506,-3.4539,-3.4583,-3.4612,-3.4612,-3.4612,-3.4612,-3.4264,-3.3446,-3.3239,-3.2545,-3.1194,-3.1748,-3.2105,-3.2105,-3.1456,-3.1438,-3.2105,-3.1438,-3.104,-3.091,-3.1787,-3.2418,-2.776,-2.772,-2.7527,-2.6764,-2.7078,-2.7004,-2.4834,0.0,-2.4815,-2.3461,0.0,0.0,0.0,0.0,0.0,0.0,0.0,0.0,-2.358,-2.4138,-2.5468,-2.7735,-2.798,-2.8019,-2.814,-2.7436,-2.7222,-2.7841,-2.7205,-2.7361,-2.8634,-2.8701,-2.8986,-2.9561,-2.957,-2.9531,-2.9407,-2.9396,-2.9396,-2.9396,-2.9396,-2.9396,-2.9396,-2.9396,-2.9396,-2.9396,-2.9396,-2.9396,-2.9407,-2.9489,-2.9954,-3.0697,-3.1589,-3.2425,-3.3138,-3.3138,-3.3584,-3.4197,-3.4197,-3.4197,-3.4197,-3.4197,-3.4197,-3.4197,-3.4197,-3.4197,-3.4197,-3.4197,-3.4197,-3.4209,-3.4269,-3.4293,-3.4293,-3.4293,-3.4293,-3.4269,-3.4209,-3.4197,-3.4221,-3.4281,-3.4293,-3.4293,-3.4293,-3.4293,-3.4316,-3.4374,-3.445,-3.4495,-3.4495,-3.455,-3.4583,-3.4602,-3.4612,-3.4612,-3.4612,-3.4612,-3.4264,-3.3446,-3.2668,-3.2161,-3.1973,-3.2048,-3.2105,-3.2105,-3.2011,-3.2011,-3.2105,-3.2011,-3.1944,-3.1953,-3.2825,-3.309,-2.8193,-2.8438,-2.8586,-2.7675,-2.7764,-2.7639,-2.6026,-2.5178,-2.4679,-2.4467,0.0,0.0,0.0,0.0,0.0,0.0,-2.3213,0.0,0.0,0.0,-2.3851,-2.4915,-2.5039,-2.5414,-2.6406,-2.6625,-2.6993,-2.7725,-2.6987,-2.6952,-2.7972,-2.8503,-2.886,-2.9013,-2.9504,-2.9742,-2.969,-2.969,-2.9626,-2.9522,-2.9522,-2.9481,-2.9396,-2.9396,-2.9396,-2.9396,-2.9396,-2.9396,-2.9396,-2.9396,-2.9601,-2.9935,-3.027,-3.118,-3.237,-3.2834,-3.3224,-3.3566,-3.403,-3.4197,-3.4197,-3.4197,-3.4197,-3.4197,-3.4197,-3.4197,-3.4197,-3.4197,-3.4221,-3.4257,-3.4293,-3.4328,-3.434,-3.4305,-3.4293,-3.4281,-3.4209,-3.4197,-3.4221,-3.4281,-3.4293,-3.4316,-3.4397,-3.4427,-3.4439,-3.4461,-3.4517,-3.455,-3.455,-3.4572,-3.4612,-3.4612,-3.4612,-3.4612,-3.4612,-3.4612,-3.4264,-3.3446,-3.2574,-3.233,-3.2837,-3.2856,-3.3062,-3.3531,-3.31,-3.3081,-3.355,-3.3081,-3.31,-3.355,-3.3456,-3.343,-2.9118,-2.9449,-2.9787,-2.8384,-2.8061,-2.7796,-2.6633,-2.5604,-2.5008,-2.541,-2.4679,0.0,0.0,0.0,0.0,0.0,0.0,-2.2749,0.0,-2.242,0.0,0.0,0.0,-2.338,-2.4602,-2.5081,-2.5764,-2.6819,-2.6087,-2.6097,-2.7294,-2.7948,-2.8402,-2.8666,-2.9293,-2.9714,-2.9902,-2.9902,-2.9828,-2.9689,-2.9689,-2.9636,-2.954,-2.954,-2.954,-2.954,-2.954,-2.954,-2.954,-2.954,-2.954,-2.954,-2.954,-3.036,-3.1629,-3.2392,-3.2816,-3.3131,-3.3918,-3.4197,-3.4197,-3.4197,-3.4197,-3.4197,-3.4197,-3.4197,-3.4209,-3.4221,-3.4257,-3.4305,-3.434,-3.4386,-3.4416,-3.434,-3.4328,-3.4305,-3.4245,-3.4221,-3.4257,-3.4328,-3.4351,-3.4386,-3.4506,-3.4517,-3.4506,-3.4517,-3.4561,-3.4612,-3.4612,-3.4612,-3.4612,-3.4612,-3.4612,-3.4612,-3.4612,-3.4612,-3.4264,-3.3446,-3.2818,-3.2743,-3.3371,-3.3607,-3.4001,-3.4594,-3.4038,-3.402,-3.4612,-3.4051,-3.4081,-3.4636,-3.4011,-3.3855,-3.1092,-3.1256,-3.1305,-2.8731,-2.8091,-2.7647,-2.5937,-2.6107,-2.6416,-2.5642,-2.6068,-2.6358,-2.5604,0.0,0.0,0.0,0.0,0.0,0.0,0.0,0.0,0.0,0.0,0.0,-2.2977,-2.2304,-2.2548,-2.4188,-2.3508,-2.4095,-2.6602,-2.6685,-2.7358,-2.8836,-2.8917,-2.9241,-2.9883,-2.9902,-2.9894,-2.9894,-2.9894,-2.9886,-2.9886,-2.9886,-2.9886,-2.9886,-2.9886,-2.9886,-2.9886,-2.9886,-2.9886,-2.9886,-2.9886,-3.0269,-3.091,-3.1592,-3.2332,-3.3131,-3.3918,-3.4197,-3.4197,-3.4197,-3.4197,-3.4197,-3.4197,-3.4197,-3.4209,-3.4281,-3.4293,-3.4328,-3.4461,-3.4495,-3.4484,-3.4397,-3.4404,-3.4374,-3.4305,-3.4293,-3.4328,-3.4473,-3.4495,-3.4517,-3.4572,-3.4539,-3.4517,-3.4591,-3.4602,-3.4612,-3.4612,-3.4612,-3.4612,-3.4612,-3.4612,-3.4612,-3.4612,-3.4612,-3.4264,-3.3446,-3.3371,-3.3371,-3.339,-3.4151,-3.4564,-3.4612,-3.4564,-3.4564,-3.4612,-3.4699,-3.4769,-3.4788,-3.4618,-3.4446,-3.2646,-3.3093,-3.3087,-3.047,-2.986,-2.9285,-2.6955,-2.7076,-2.729,-2.5865,-2.6653,-2.7191,-2.5761,0.0,0.0,0.0,0.0,0.0,0.0,0.0,0.0,0.0,0.0,0.0,0.0,-2.1511,-2.2168,-2.326,-2.3075,-2.376,-2.5741,-2.637,-2.7147,-2.8203,-2.8794,-2.9452,-3.0216,-3.0235,-3.0157,-3.0037,-3.0037,-2.9985,-2.9902,-2.9902,-2.9902,-2.9902,-2.9902,-2.9902,-2.9902,-2.9902,-2.9902,-2.9902,-2.9902,-3.0268,-3.0893,-3.1703,-3.2407,-3.3131,-3.3918,-3.4197,-3.4197,-3.4197,-3.4197,-3.4233,-3.4416,-3.4363,-3.4305,-3.445,-3.4476,-3.445,-3.4484,-3.4528,-3.4539,-3.4484,-3.4473,-3.445,-3.4374,-3.4381,-3.4386,-3.4484,-3.4495,-3.4517,-3.4602,-3.4572,-3.4561,-3.4602,-3.4612,-3.4612,-3.4612,-3.4612,-3.4612,-3.4612,-3.4612,-3.4612,-3.4612,-3.4612,-3.447,-3.4207,-3.4189,-3.4189,-3.4189,-3.4451,-3.4612,-3.4612,-3.4687,-3.4737,-3.4737,-3.483,-3.4879,-3.4879,-3.4821,-3.4701,-3.3567,-3.3997,-3.4071,-3.1763,-3.1224,-3.0587,-2.7959,-2.8026,-2.824,-2.6813,-2.7143,-2.7529,-2.7023,-2.5686,0.0,0.0,0.0,0.0,0.0,-1.9241,0.0,0.0,0.0,0.0,0.0,-2.0637,-2.1375,-2.2787,-2.2622,-2.335,-2.5336,-2.5953,-2.6616,-2.7446,-2.8309,-2.9143,-2.9971,-3.0268,-3.0327,-3.0203,-3.0209,-3.0155,-3.0082,-3.0082,-3.0082,-3.0082,-3.0082,-3.0082,-3.0082,-3.0082,-3.0082,-3.0082,-3.0082,-3.047,-3.109,-3.1834,-3.266,-3.3503,-3.4118,-3.434,-3.4351,-3.4443,-3.4458,-3.4483,-3.4651,-3.463,-3.4559,-3.4643,-3.4641,-3.4604,-3.455,-3.458,-3.4572,-3.4517,-3.4495,-3.4484,-3.445,-3.4439,-3.4484,-3.4626,-3.4639,-3.467,-3.4763,-3.4742,-3.4678,-3.4604,-3.4612,-3.4612,-3.4612,-3.4612,-3.4612,-3.4612,-3.4612,-3.4612,-3.4612,-3.4612,-3.4612,-3.4612,-3.4612,-3.4623,-3.4666,-3.4666,-3.4666,-3.4666,-3.478,-3.481,-3.4798,-3.4917,-3.4964,-3.4964,-3.5001,-3.4945]},{"header":{"parameterUnit":"m.s-1","parameterCategory":1,"la1":30.6,"la2":29.2853,"lo1":-89.7004,"lo2":-87.6739,"dy":0.0162,"dx":0.0183,"nx":112,"ny":82,"refTime":"2024-05-16T18:00:00:Z","depth":0,"parameterNumber":3,"parameterNumberName":"V-component_of_WINDS"},"data":[0.0,0.0,0.0,0.0,0.0,0.0,0.0,0.0,0.0,0.0,0.0,0.0,0.0,0.0,0.0,0.0,0.0,0.0,0.0,0.0,0.0,0.0,0.0,0.0,0.0,0.0,0.0,0.0,0.0,0.0,0.0,0.0,0.0,0.0,0.0,0.0,0.0,0.0,0.0,0.0,0.0,0.0,0.0,0.0,0.0,0.0,0.0,0.0,0.0,0.0,0.0,0.0,0.0,0.0,0.0,0.0,0.0,0.0,0.0,0.0,0.0,0.0,0.0,0.0,0.0,0.0,0.0,0.0,0.0,0.0,0.0,0.0,0.0,0.0,0.0,0.0,0.0,0.0,0.0,0.0,0.0,0.0,0.0,0.0,0.0,0.0,0.0,0.0,0.0,0.0,-0.4536,-0.4488,-0.4149,-0.3971,-0.4053,-0.3474,-0.272,-0.1832,0.0,0.0,0.0,0.0,0.0,0.0,0.0,0.0,0.0,0.0,0.0,0.0,0.0,0.0,0.0,0.0,0.0,0.0,0.0,0.0,0.0,0.0,0.0,0.0,0.0,0.0,0.0,0.0,0.0,0.0,0.0,0.0,0.0,0.0,0.0,0.0,0.0,0.0,0.0,0.0,0.0,0.0,0.0,0.0,0.0,0.0,0.0,0.0,0.0,0.0,0.0,0.0,0.0,0.0,0.0,0.0,0.0,0.0,0.0,0.0,0.0,0.0,0.0,0.0,0.0,0.0,0.0,0.0,0.0,0.0,0.0,0.0,0.0,0.0,0.0,0.0,0.0,0.0,0.0,0.0,0.0,0.0,0.0,0.0,0.0,0.0,0.0,0.0,0.0,0.0,0.0,0.0,0.0,0.0,0.0,0.0,0.0,0.0,0.0,0.0,0.0,0.0,0.0,0.0,-0.4593,-0.5255,-0.4872,-0.4385,-0.3955,-0.3679,-0.2997,-0.1786,0.0,0.0,0.0,0.0,0.0,0.0,0.0,0.0,0.0,0.0,0.0,0.0,0.0,0.0,0.0,0.0,0.0,0.0,0.0,0.0,0.0,0.0,0.0,0.0,0.0,0.0,0.0,0.0,0.0,0.0,0.0,0.0,0.0,0.0,0.0,0.0,0.0,0.0,0.0,0.0,0.0,0.0,0.0,0.0,0.0,0.0,0.0,0.0,0.0,0.0,0.0,0.0,0.0,0.0,0.0,0.0,0.0,0.0,0.0,0.0,0.0,0.0,0.0,0.0,0.0,0.0,0.0,0.0,0.0,0.0,0.0,0.0,0.0,0.0,0.0,0.0,0.0,0.0,0.0,0.0,0.0,0.0,0.0,0.0,0.0,0.0,0.0,0.0,0.0,0.0,0.0,0.0,0.0,0.0,0.0,0.0,0.0,0.0,0.0,0.0,0.0,0.0,0.0,-0.4844,-0.5247,-0.5908,-0.564,-0.5309,-0.5062,-0.4321,-0.3437,-0.2406,-0.1997,0.0,0.0,0.0,0.0,0.0,0.0,0.0,0.0,0.0,0.0,0.0,0.0,0.0,0.0,0.0,0.0,0.0,0.0,0.0,0.0,0.0,0.0,0.0,0.0,0.0,0.0,0.0,0.0,0.0,0.0,0.0,0.0,0.0,0.0,0.0,0.0,0.0,0.0,0.0,0.0,0.0,0.0,0.0,0.0,0.0,0.0,0.0,0.0,0.0,0.0,0.0,0.0,0.0,0.0,0.0,0.0,0.0,0.0,0.0,0.0,0.0,0.0,0.0,0.0,0.0,0.0,0.0,0.0,0.0,0.0,0.0,0.0,0.0,0.0,0.0,0.0,0.0,0.0,0.0,0.0,0.0,0.0,0.0,0.0,0.0,0.0,0.0,0.0,0.0,0.0,0.0,0.0,0.0,0.0,0.0,0.0,0.0,0.0,0.0,0.0,0.0,0.0,-0.5647,-0.6111,-0.6475,-0.6302,-0.6092,-0.5878,-0.4919,-0.3918,-0.301,-0.2313,0.0,0.0,0.0,0.0,0.0,0.0,0.0,0.0,0.0,0.0,0.0,0.0,0.0,0.0,0.0,0.0,0.0,0.0,0.0,0.0,0.0,0.0,0.0,0.0,0.0,0.0,0.0,0.0,0.0,0.0,0.0,0.0,0.0,0.0,0.0,0.0,0.0,0.0,0.0,0.0,0.0,0.0,0.0,0.0,0.0,0.0,0.0,0.0,0.0,0.0,0.0,0.0,0.0,0.0,0.0,0.0,0.0,0.0,0.0,0.0,0.0,0.0,0.0,0.0,0.0,0.0,0.0,0.0,0.0,0.0,0.0,0.0,0.0,0.0,0.0,0.0,0.0,0.0,0.0,0.0,0.0,0.0,0.0,0.0,0.0,0.0,0.0,0.0,0.0,0.0,0.0,0.0,0.0,0.0,0.0,0.0,0.0,0.0,0.0,0.0,0.0,0.0,-0.6223,-0.7026,-0.6882,-0.6748,-0.6316,-0.5505,-0.5129,-0.4402,-0.3153,-0.2636,0.0,0.0,0.0,0.0,0.0,0.0,0.0,0.0,0.0,0.0,0.0,0.0,0.0,0.0,0.0,0.0,0.0,0.0,0.0,0.0,0.0,0.0,0.0,0.0,0.0,0.0,0.0,0.0,0.0,0.0,0.0,0.0,0.0,0.0,0.0,0.0,0.0,0.0,0.0,0.0,0.0,0.0,0.0,0.0,0.0,0.0,0.0,0.0,0.0,0.0,0.0,0.0,0.0,0.0,0.0,0.0,0.0,0.0,0.0,0.0,0.0,0.0,0.0,0.0,0.0,0.0,0.0,0.0,0.0,0.0,0.0,0.0,0.0,0.0,0.0,0.0,0.0,0.0,0.0,0.0,0.0,0.0,0.0,0.0,0.0,0.0,0.0,0.0,0.0,0.0,0.0,0.0,0.0,0.0,0.0,0.0,0.0,0.0,0.0,0.0,0.0,0.0,-0.6849,-0.7652,0.0,-0.7681,-0.7184,-0.6231,-0.5518,-0.4569,-0.3299,0.0,0.0,0.0,0.0,0.0,0.0,0.0,0.0,0.0,0.0,0.0,0.0,0.0,0.0,0.0,0.0,0.0,0.0,0.0,0.0,0.0,0.0,0.0,0.0,0.0,0.0,0.0,0.0,0.0,0.0,0.0,0.0,0.0,0.0,0.0,0.0,0.0,0.0,0.0,0.0,0.0,0.0,0.0,0.0,0.0,0.0,0.0,0.0,0.0,0.0,0.0,0.0,0.0,0.0,0.0,0.0,0.0,0.0,0.0,0.0,0.0,0.0,0.0,0.0,0.0,0.0,0.0,0.0,0.0,0.0,0.0,0.0,0.0,0.0,0.0,0.0,0.0,0.0,0.0,0.0,0.0,0.0,0.0,0.0,0.0,0.0,0.0,0.0,0.0,0.0,0.0,0.0,0.0,0.0,0.0,0.0,0.0,0.0,0.0,0.0,0.0,0.0,-0.6403,-0.7344,-0.8081,0.0,-0.808,-0.7506,-0.6643,-0.5775,-0.4779,-0.3629,0.0,0.0,0.0,0.0,0.0,0.0,0.0,0.0,0.0,0.0,0.0,0.0,0.0,0.0,0.0,0.0,0.0,0.0,0.0,0.0,0.0,0.0,0.0,0.0,0.0,0.0,0.0,0.0,0.0,0.0,0.0,0.0,0.0,0.0,0.0,0.0,0.0,0.0,0.0,0.0,0.0,0.0,0.0,0.0,0.0,0.0,0.0,0.0,0.0,0.0,0.0,0.0,0.0,0.0,0.0,0.0,0.0,0.0,0.0,0.0,0.0,0.0,0.0,0.0,0.0,0.0,0.0,0.0,0.0,0.0,0.0,0.0,0.0,0.0,0.0,0.0,0.0,0.0,0.0,0.0,0.0,0.0,0.0,0.0,0.0,0.0,0.0,0.0,0.0,0.0,0.0,0.0,0.0,0.0,0.0,0.0,0.0,0.0,0.0,0.0,0.0,0.0,-0.6803,-0.77,-0.8378,-0.852,-0.7806,-0.71,-0.656,-0.5842,-0.5023,0.0,0.0,0.0,0.0,0.0,0.0,0.0,0.0,0.0,0.0,0.0,0.0,0.0,0.0,0.0,0.0,0.0,0.0,0.0,0.0,0.0,0.0,0.0,0.0,0.0,0.0,0.0,0.0,0.0,0.0,0.0,0.0,0.0,0.0,0.0,0.0,0.0,0.0,0.0,0.0,0.0,0.0,0.0,0.0,0.0,0.0,0.0,0.0,0.0,0.0,0.0,0.0,0.0,0.0,0.0,0.0,0.0,0.0,0.0,0.0,0.0,0.0,0.0,0.0,0.0,0.0,0.0,0.0,0.0,0.0,0.0,0.0,0.0,0.0,0.0,0.0,0.0,0.0,0.0,0.0,0.0,0.0,0.0,0.0,0.0,0.0,0.0,0.0,0.0,0.0,0.0,0.0,0.0,0.0,0.0,0.0,0.0,0.0,0.0,0.0,0.0,0.0,0.0,-0.75,-0.8737,-0.9738,-1.0149,-0.9264,-0.8281,-0.7419,-0.6409,-0.5223,-0.3839,0.0,0.0,0.0,0.0,0.0,0.0,0.0,0.0,0.0,0.0,0.0,0.0,0.0,0.0,0.0,0.0,0.0,0.0,0.0,0.0,0.0,0.0,0.0,0.0,0.0,0.0,0.0,0.0,0.0,0.0,0.0,0.0,0.0,0.0,0.0,0.0,0.0,0.0,0.0,0.0,0.0,0.0,0.0,0.0,0.0,0.0,0.0,0.0,0.0,0.0,0.0,0.0,0.0,0.0,0.0,0.0,0.0,0.0,0.0,0.0,0.0,0.0,0.0,0.0,0.0,0.0,0.0,0.0,0.0,0.0,0.0,0.0,0.0,0.0,0.0,0.0,0.0,0.0,0.0,0.0,0.0,0.0,0.0,0.0,0.0,0.0,0.0,0.0,0.0,0.0,0.0,0.0,0.0,0.0,0.0,0.0,0.0,0.0,0.0,0.0,0.0,0.0,-0.8023,-0.9102,-1.0022,-1.0637,-0.9847,-0.8878,-0.7902,-0.6965,-0.5769,-0.4178,0.0,0.0,0.0,0.0,0.0,0.0,0.0,0.0,0.0,0.0,0.0,0.0,0.0,0.0,0.0,0.0,0.0,0.0,0.0,0.0,0.0,0.0,0.0,0.0,0.0,0.0,0.0,0.0,0.0,0.0,0.0,0.0,0.0,0.0,0.0,0.0,0.0,0.0,0.0,0.0,0.0,0.0,0.0,0.0,0.0,0.0,0.0,0.0,0.0,0.0,0.0,0.0,0.0,0.0,0.0,0.0,0.0,0.0,0.0,0.0,0.0,0.0,0.0,0.0,0.0,0.0,0.0,0.0,0.0,0.0,0.0,0.0,0.0,0.0,0.0,0.0,0.0,0.0,0.0,0.0,0.0,0.0,0.0,0.0,0.0,0.0,0.0,0.0,0.0,0.0,0.0,0.0,0.0,0.0,0.0,0.0,0.0,0.0,0.0,0.0,0.0,0.0,-0.8342,-0.9016,-0.9652,-1.0375,-0.9855,-0.9097,-0.8175,-0.7541,-0.6518,-0.4952,0.0,0.0,0.0,0.0,0.0,0.0,0.0,0.0,0.0,0.0,0.0,0.0,0.0,0.0,0.0,0.0,0.0,0.0,0.0,0.0,0.0,0.0,0.0,0.0,0.0,0.0,0.0,0.0,0.0,0.0,0.0,0.0,0.0,0.0,0.0,0.0,0.0,0.0,0.0,0.0,0.0,0.0,0.0,0.0,0.0,0.0,0.0,0.0,0.0,0.0,0.0,0.0,0.0,0.0,0.0,0.0,0.0,0.0,0.0,0.0,-0.8652,-0.7773,0.0,0.0,0.0,0.0,0.0,0.0,0.0,0.0,0.0,0.0,0.0,0.0,0.0,0.0,0.0,0.0,0.0,0.0,0.0,0.0,0.0,0.0,0.0,0.0,0.0,0.0,0.0,0.0,0.0,0.0,0.0,0.0,0.0,0.0,0.0,0.0,0.0,0.0,0.0,0.0,-0.8342,-0.933,-1.0139,-1.0738,-1.0336,-0.9723,-0.893,-0.8159,-0.7033,-0.5367,-0.4615,0.0,0.0,0.0,0.0,0.0,0.0,0.0,0.0,0.0,0.0,0.0,0.0,0.0,0.0,0.0,0.0,0.0,0.0,0.0,0.0,0.0,0.0,0.0,0.0,0.0,0.0,0.0,0.0,0.0,0.0,0.0,0.0,0.0,0.0,0.0,0.0,0.0,0.0,0.0,0.0,0.0,0.0,0.0,0.0,0.0,0.0,0.0,0.0,0.0,0.0,0.0,0.0,0.0,0.0,0.0,0.0,0.0,0.0,0.0,-1.0267,-0.9671,0.0,0.0,0.0,0.0,0.0,0.0,0.0,0.0,0.0,0.0,0.0,0.0,0.0,0.0,0.0,0.0,0.0,0.0,0.0,0.0,0.0,0.0,0.0,0.0,0.0,0.0,0.0,0.0,0.0,0.0,0.0,0.0,0.0,0.0,0.0,0.0,0.0,0.0,0.0,0.0,-0.8598,-0.9696,-1.0523,-1.0864,-1.0676,-1.0189,-0.9322,-0.8619,-0.7673,-0.6348,-0.536,0.0,0.0,0.0,0.0,0.0,0.0,0.0,0.0,0.0,0.0,0.0,0.0,0.0,0.0,0.0,0.0,0.0,0.0,0.0,0.0,0.0,0.0,0.0,0.0,0.0,0.0,0.0,0.0,0.0,0.0,0.0,0.0,0.0,0.0,0.0,0.0,0.0,0.0,0.0,0.0,0.0,0.0,0.0,0.0,0.0,0.0,0.0,0.0,0.0,0.0,0.0,0.0,0.0,-1.1618,-1.1652,-1.1658,-1.2048,-1.272,-1.3475,-1.2203,-1.2073,-1.2649,-1.095,0.0,0.0,0.0,0.0,0.0,0.0,0.0,0.0,0.0,0.0,0.0,0.0,0.0,0.0,0.0,0.0,0.0,0.0,0.0,0.0,0.0,0.0,-0.9377,-0.9565,-0.9908,-0.9846,-0.8595,0.0,0.0,0.0,0.0,0.0,0.0,0.0,0.0,0.0,0.0,0.0,-0.8953,-1.0038,-1.0743,-1.0889,-1.0896,-1.0531,-0.9595,-0.907,-0.8357,-0.7376,-0.6201,-0.5235,0.0,0.0,0.0,0.0,0.0,0.0,0.0,0.0,0.0,0.0,0.0,0.0,0.0,0.0,0.0,0.0,0.0,0.0,0.0,0.0,0.0,0.0,0.0,0.0,0.0,0.0,0.0,0.0,0.0,0.0,0.0,0.0,-0.6484,-0.7562,0.0,0.0,0.0,0.0,0.0,0.0,0.0,0.0,0.0,0.0,0.0,0.0,0.0,-1.1578,-1.259,-1.3463,-1.4349,-1.5222,-1.5613,-1.5807,-1.5807,-1.5876,-1.5979,-1.6094,-1.5888,0.0,-1.3423,-1.2754,0.0,0.0,0.0,0.0,0.0,0.0,0.0,0.0,0.0,0.0,0.0,0.0,0.0,0.0,0.0,0.0,0.0,0.0,0.0,0.0,0.0,0.0,-1.1441,-1.1245,-1.107,-1.0935,-1.0845,-0.964,-0.8395,-0.7809,-0.7414,-0.6942,0.0,0.0,0.0,0.0,0.0,0.0,-0.9384,-1.0209,-1.0743,-1.0889,-1.0896,-1.0641,-0.9973,-0.9657,-0.8974,-0.7793,-0.7025,-0.6226,-0.5377,-0.4618,0.0,0.0,0.0,0.0,0.0,0.0,0.0,0.0,0.0,0.0,0.0,0.0,0.0,0.0,0.0,0.0,0.0,0.0,0.0,0.0,0.0,0.0,0.0,0.0,0.0,0.0,0.0,0.0,0.0,-0.6562,-0.7601,-0.7803,-0.8377,-0.8621,0.0,0.0,0.0,0.0,0.0,0.0,0.0,0.0,0.0,-1.2709,-1.3478,-1.4107,-1.4567,-1.5005,-1.5315,-1.5464,-1.567,-1.575,-1.575,-1.575,-1.606,-1.6575,-1.5991,-1.5751,-1.5659,-1.4568,-1.3687,-1.2956,0.0,0.0,0.0,0.0,-1.1952,-1.2188,-1.2495,-1.2592,-1.2527,-1.1965,0.0,0.0,0.0,0.0,0.0,0.0,0.0,-1.0895,-1.1113,-1.1618,-1.2087,-1.211,-1.1874,-1.1649,-1.1543,-1.0973,-1.0166,-0.9119,-0.8805,-0.8303,-0.7045,-0.7012,0.0,0.0,0.0,-0.911,-0.979,-1.0565,-1.0997,-1.0905,-1.0896,-1.0667,-1.0051,-0.9745,-0.9228,-0.8357,-0.7681,-0.6952,-0.6151,-0.5513,-0.5031,0.0,0.0,0.0,0.0,0.0,0.0,0.0,0.0,0.0,0.0,0.0,0.0,0.0,0.0,0.0,0.0,0.0,0.0,0.0,0.0,0.0,0.0,0.0,0.0,0.0,0.0,0.0,0.0,-0.7488,-0.8592,-0.8592,-0.9663,-1.0121,0.0,0.0,0.0,0.0,0.0,0.0,-1.282,-1.3245,-1.3877,-1.4752,-1.551,-1.5958,-1.6085,-1.621,-1.6153,-1.5853,-1.5853,-1.5946,-1.6072,-1.6072,-1.6566,-1.7343,-1.6612,-1.6922,-1.7855,-1.6049,-1.5177,-1.489,-1.4132,-1.3593,-1.3302,-1.3705,-1.4063,-1.4419,-1.4821,-1.4959,-1.486,-1.4261,-1.343,-1.2472,-1.136,0.0,0.0,0.0,0.0,-1.2357,-1.2756,-1.2769,-1.2682,-1.2754,-1.2472,-1.2106,-1.1946,-1.1874,-1.1483,-1.0262,-1.0048,-0.9612,-0.8143,-0.8142,0.0,-0.7928,-0.8936,-0.985,-1.0217,-1.0865,-1.1226,-1.1023,-1.0947,-1.0718,-1.0283,-0.9981,-0.9533,-0.8848,-0.8342,-0.7714,-0.6921,-0.6347,-0.5848,-0.5394,0.0,0.0,0.0,0.0,0.0,0.0,0.0,0.0,0.0,0.0,0.0,0.0,0.0,0.0,0.0,0.0,0.0,0.0,0.0,0.0,0.0,0.0,0.0,0.0,0.0,0.0,0.0,0.0,0.0,-1.111,-1.0445,0.0,0.0,0.0,0.0,-1.1926,-1.2892,-1.3891,-1.4901,-1.4982,-1.5257,-1.582,-1.5877,-1.6094,-1.6552,-1.706,-1.753,-1.7962,-1.7962,-1.8215,-1.8701,-1.8701,-1.9011,-1.9528,-1.9482,-1.9505,-1.9378,-1.6887,-1.6094,-1.6484,-1.6426,-1.6403,-1.638,-1.6403,-1.6426,-1.6449,-1.6472,-1.6482,-1.6493,-1.6436,-1.5474,-1.4184,-1.3678,-1.2812,0.0,0.0,-1.3214,-1.3609,-1.4008,-1.3994,-1.3811,-1.3385,-1.2761,-1.2324,-1.2437,-1.2063,-1.1545,-1.0961,-1.0835,-1.0559,-0.9645,0.0,-0.9512,-0.9495,-0.9824,-1.0226,-1.0619,-1.1036,-1.1293,-1.1276,-1.1049,-1.0896,-1.0871,-1.06,-1.0053,-0.9136,-0.9044,-0.8618,-0.7677,-0.7067,-0.6565,-0.6157,-0.5248,0.0,0.0,0.0,0.0,0.0,0.0,0.0,0.0,0.0,0.0,0.0,0.0,0.0,0.0,0.0,0.0,0.0,0.0,0.0,0.0,0.0,0.0,0.0,0.0,0.0,0.0,0.0,0.0,-1.1428,-1.2471,0.0,-1.3148,-1.368,-1.402,-1.404,-1.4683,-1.5246,-1.5602,-1.5888,-1.6325,-1.6841,-1.7484,-1.776,-1.7573,-1.8104,-1.8288,-1.8084,-1.8084,-1.8215,-1.8387,-1.8387,-1.869,-1.916,-1.8811,-1.9069,-1.9597,-1.8345,-1.7932,-1.8058,-1.7699,-1.7378,-1.7105,-1.7105,-1.7105,-1.7008,-1.6271,-1.6243,-1.6417,-1.5674,-1.4856,-1.4241,-1.4807,-1.4516,-1.4063,-1.4579,-1.4847,-1.4888,-1.4653,-1.4288,-1.3951,-1.38,-1.3239,-1.2771,-1.2815,-1.2592,-1.2255,-1.1721,-1.1417,-1.1009,-1.0077,-1.0351,-1.0514,-1.0004,-1.0448,-1.0916,-1.1062,-1.1215,-1.1301,-1.1301,-1.1217,-1.1099,-1.0922,-1.082,-1.0293,-0.9167,-0.9097,-0.8678,-0.7741,-0.7499,-0.7111,-0.6524,-0.603,-0.5353,0.0,0.0,0.0,0.0,0.0,0.0,0.0,0.0,0.0,0.0,0.0,0.0,0.0,0.0,0.0,0.0,0.0,0.0,0.0,0.0,0.0,0.0,0.0,0.0,0.0,0.0,-1.1701,-1.2095,-1.3378,-1.4293,-1.4476,-1.5025,-1.545,-1.5612,-1.6107,-1.6405,-1.6405,-1.6839,-1.7263,-1.7622,-1.8288,-1.8455,-1.8084,-1.8444,-1.8444,-1.8084,-1.8084,-1.8203,-1.8364,-1.8364,-1.8742,-1.939,-1.9028,-1.939,-2.0189,-1.9803,-1.9695,-1.9597,-1.8902,-1.846,-1.8189,-1.8189,-1.8189,-1.8077,-1.7315,-1.7268,-1.7401,-1.626,-1.5399,-1.4921,-1.5278,-1.5051,-1.473,-1.5236,-1.5484,-1.5502,-1.5114,-1.4733,-1.4413,-1.4229,-1.3737,-1.3285,-1.322,-1.3039,-1.2732,-1.2288,-1.1904,-1.1418,-1.0634,-1.0934,-1.1121,-1.06,-1.0951,-1.1301,-1.1301,-1.1301,-1.1301,-1.1301,-1.1301,-1.1226,-1.1049,-1.0906,-1.0385,-0.9314,-0.9097,-0.8624,-0.7734,-0.765,-0.7373,-0.6808,-0.6295,-0.5762,-0.5233,0.0,0.0,0.0,0.0,0.0,0.0,0.0,0.0,0.0,0.0,0.0,0.0,0.0,0.0,0.0,0.0,0.0,0.0,0.0,0.0,0.0,0.0,0.0,-1.0938,-1.1292,-1.2016,-1.3262,-1.3036,-1.34,-1.4981,-1.4744,-1.5096,-1.6535,-1.7105,-1.7407,-1.7419,-1.7825,-1.8073,-1.8084,-1.8118,-1.8157,-1.8134,-1.8164,-1.8203,-1.8164,-1.8203,-1.8467,-1.8965,-1.8965,-1.9505,-2.0435,-2.0423,-2.0699,-2.119,-2.1178,-2.1178,-2.1098,-2.0143,-1.9734,-1.9711,-1.9711,-1.97,-1.9629,-1.9659,-1.9629,-1.942,-1.8346,-1.7316,-1.6309,-1.5213,-1.4487,-1.4099,-1.4683,-1.5126,-1.54,-1.5391,-1.5381,-1.5216,-1.4654,-1.4203,-1.3872,-1.3654,-1.33,-1.2949,-1.2664,-1.2313,-1.1878,-1.1412,-1.131,-1.1301,-1.1301,-1.1301,0.0,-1.1301,-1.1301,-1.1301,-1.1301,-1.1301,-1.1301,-1.1301,-1.0951,-1.0384,-0.9553,-0.9147,-0.8559,-0.7747,-0.7579,-0.7345,-0.7005,-0.6028,-0.5774,-0.6291,0.0,0.0,0.0,0.0,0.0,0.0,0.0,0.0,0.0,0.0,0.0,0.0,0.0,0.0,0.0,0.0,0.0,0.0,0.0,0.0,0.0,0.0,-1.177,-1.177,-1.2376,-1.3044,-1.3686,-1.4037,-1.4681,-1.587,-1.624,-1.6785,-1.7634,-1.7507,-1.7542,-1.7882,-1.7714,-1.776,-1.81,-1.8845,-1.908,-1.869,-1.978,-2.0148,-1.9762,-2.0159,-2.0431,-2.0569,-2.0569,-2.0718,-2.0971,-2.0572,-2.0699,-2.1167,-2.0768,-2.0868,-2.1167,-2.0891,-2.0569,-2.0217,-2.0217,-1.939,-1.8312,-1.8816,-1.8362,-1.7616,-1.7807,-1.7328,-1.6758,-1.686,-1.6406,-1.5838,-1.5712,-1.5742,-1.5681,-1.4928,-1.4743,-1.4704,-1.4536,-1.4335,-1.4125,-1.393,-1.3732,-1.3427,-1.2984,-1.2788,-1.2513,-1.1798,-1.1456,-1.1301,-1.1301,-1.1301,-1.1301,-1.1301,-1.1301,-1.1301,-1.1301,-1.1301,-1.1301,-1.1301,-1.1207,-1.0726,-0.9785,-0.9486,-0.8897,-0.7948,-0.7747,-0.7486,-0.7162,-0.6441,-0.6134,0.0,0.0,0.0,0.0,0.0,0.0,0.0,0.0,0.0,0.0,0.0,0.0,0.0,0.0,0.0,0.0,0.0,0.0,0.0,0.0,0.0,0.0,-1.1742,-1.2606,-1.2606,-1.314,-1.3645,-1.3913,-1.4231,-1.4938,-1.6252,-1.6262,-1.6708,-1.8018,-1.7598,-1.7456,-1.7722,-1.7829,-1.8031,-1.834,-1.9137,-1.9527,-1.9539,-2.0205,-2.0431,-2.0113,-2.0412,-2.058,-2.058,-2.058,-2.0695,-2.0868,-2.0538,-2.0699,-2.1155,-2.0618,-2.071,-2.119,0.0,0.0,0.0,0.0,-2.0062,-1.9204,-1.9607,-1.9079,-1.8163,-1.8082,-1.759,-1.7103,-1.7262,-1.6825,-1.624,-1.6303,-1.6102,-1.5744,-1.5149,-1.4882,-1.4753,-1.4753,-1.4565,-1.4327,-1.4169,-1.401,-1.376,-1.3402,-1.3141,0.0,-1.237,-1.1867,-1.1456,-1.1318,-1.1301,-1.1301,-1.1301,-1.1301,-1.1301,-1.1301,-1.1301,-1.1301,-1.1301,-1.1155,0.0,0.0,0.0,-0.8808,-0.7833,-0.7669,0.0,0.0,0.0,0.0,0.0,0.0,0.0,0.0,-0.8006,-0.7792,0.0,0.0,0.0,0.0,0.0,0.0,0.0,0.0,0.0,0.0,0.0,0.0,0.0,0.0,0.0,0.0,-1.2147,-1.3314,-1.3351,-1.3708,-1.3979,-1.4035,-1.3961,-1.4561,-1.6213,-1.5464,-1.5741,-1.7895,-1.749,-1.721,-1.7329,0.0,0.0,0.0,0.0,-1.9625,-2.0301,-2.0021,-1.9826,-1.9769,-1.9884,-1.9941,-1.9941,-1.9941,-2.0217,-2.0653,-2.0549,-2.0814,-2.1328,-2.0791,-2.0848,-2.127,-2.1213,-2.119,-2.119,-2.1094,-2.1031,-2.0967,-2.0967,0.0,0.0,-1.8805,-1.8078,-1.7507,-1.7069,-1.643,-1.5947,-1.6574,-1.6277,-1.5744,-1.5698,-1.5432,-1.5166,-1.5166,-1.4864,-1.4519,-1.4399,-1.4165,-1.395,-1.383,-1.3411,-1.3023,-1.3017,-1.2319,-1.1704,-1.1413,-1.1327,-1.1301,-1.1301,-1.1301,-1.1301,-1.1301,-1.1301,0.0,-1.1301,-1.0976,-1.0666,-1.0447,-0.9507,-0.8574,-0.7718,-0.7656,-0.7708,-0.789,-0.7437,-0.8074,-0.9847,-0.9494,-0.9824,-1.0772,-0.9147,-0.8738,0.0,0.0,0.0,0.0,0.0,0.0,0.0,0.0,0.0,0.0,0.0,0.0,0.0,0.0,0.0,-1.2516,-1.3039,-1.3406,-1.3755,-1.413,-1.4389,-1.4394,-1.4096,-1.4345,-1.5503,-1.5427,-1.5987,-1.7659,-1.7265,-1.728,-1.8041,-1.7833,-1.7985,-1.8594,-1.9073,-1.947,-1.9838,-2.0557,-2.0707,-2.0285,-2.1101,0.0,-2.1459,-2.1459,-2.1766,-2.2191,-2.1408,-2.1569,-2.2385,-2.1847,-2.1653,-2.1743,-2.1351,-2.119,-2.1126,-2.0528,-1.9933,-1.9441,-1.9441,-1.9342,-1.9189,-1.8973,-1.881,-1.8568,-1.7955,-1.7263,0.0,-1.6452,-1.6293,-1.612,-1.578,-1.5634,-1.5579,-1.5579,-1.5276,-1.4961,-1.4798,-1.4353,-1.395,-1.383,-1.358,-1.3314,-1.306,-1.2319,-1.1789,-1.1712,-1.1473,-1.1301,-1.1301,-1.1301,-1.1301,-1.1301,-1.1301,-1.1301,-1.1301,-1.1233,-1.1036,-1.0665,-0.9789,-0.9148,-0.8806,-0.8588,-0.8497,-0.852,-0.8431,-0.8558,-0.8952,-0.96,-1.0046,-1.0263,-1.0587,-1.0655,0.0,0.0,0.0,0.0,0.0,0.0,0.0,0.0,0.0,0.0,0.0,-1.0272,0.0,0.0,-1.2218,-1.2883,-1.335,-1.3653,-1.3883,-1.4249,-1.4433,-1.4222,-1.4194,-1.453,-1.5332,-1.5319,-1.5818,-1.7204,-1.6972,-1.6948,-1.743,-1.7386,-1.7693,-1.8478,-1.9168,-1.9965,-2.0782,-2.118,-2.1428,-2.1548,-2.1654,-2.1925,-2.2306,-2.2306,-2.2444,-2.2684,-2.2178,-2.2002,-2.2023,-2.1344,-2.1137,-2.1274,-2.1051,-2.1043,-2.1158,-2.0796,-2.0431,-2.0063,-1.9671,-1.9309,-1.8944,-1.86,-1.824,-1.7978,-1.8003,-1.7467,-1.6932,-1.7094,-1.6868,-1.656,-1.6358,-1.6156,-1.6001,-1.6001,-1.5689,-1.534,-1.5045,-1.4722,-1.4341,-1.3955,-1.3761,-1.355,-1.3309,-1.2783,-1.225,-1.1848,-1.1652,-1.149,-1.1318,-1.1301,-1.1301,-1.1301,-1.1301,-1.1301,-1.1301,-1.1301,-1.1089,-1.0568,-1.0153,-0.9659,-0.9128,-0.8981,-0.9004,-0.9244,-0.9028,-0.9229,-0.9904,-1.028,-1.0655,-1.1107,-1.1696,-1.1755,0.0,0.0,0.0,0.0,0.0,0.0,0.0,0.0,-0.9904,-1.0549,-1.0908,-1.134,-1.2177,-1.2808,-1.314,-1.3066,-1.3534,-1.3938,-1.4021,-1.4359,-1.4497,-1.4157,-1.4423,-1.4768,-1.5196,-1.5158,-1.5543,-1.6588,-1.6604,-1.6587,-1.6664,-1.6958,-1.7556,-1.8404,-1.9165,-2.0204,-2.1543,-2.1352,-2.1572,-2.2206,-2.1671,-2.1726,-2.2398,-2.2536,-2.2662,-2.2764,-2.2937,-2.2545,-2.1726,-2.0913,-2.0649,-2.076,-2.0629,-2.0774,-2.1034,-2.1105,-2.1096,-2.0948,-2.0204,-1.9638,-1.9134,-1.8282,-1.7656,-1.7297,-1.7762,-1.743,-1.7003,-1.7638,-1.7373,-1.6908,-1.6908,-1.667,-1.6431,-1.6431,-1.6111,-1.5725,-1.5404,-1.5078,-1.4692,-1.4209,-1.3904,-1.37,-1.3541,-1.3271,-1.2851,-1.2139,-1.1909,-1.1704,-1.1422,-1.1344,-1.1301,-1.1301,-1.1301,-1.1301,-1.1301,-1.1301,-1.1089,-1.0621,-1.0531,-1.0181,-0.9471,-0.9337,-0.9447,-0.9831,-0.9518,-0.989,-1.1005,-1.1046,-1.1456,-1.2166,-1.2471,-1.2469,-0.6274,-0.664,-0.7514,-0.9553,-0.9591,-0.9644,0.0,0.0,-1.1749,-1.2314,-1.2459,-1.2634,-1.3075,-1.2955,-1.3111,-1.413,-1.4066,-1.4011,-1.4387,-1.4781,-1.5019,-1.4964,-1.501,-1.4922,-1.4632,-1.4894,-1.5302,-1.5811,-1.6141,-1.6505,-1.6855,-1.6911,-1.7442,-1.8546,-1.8679,-1.9259,-2.0367,-2.0348,-2.0404,-2.0486,-2.0876,-2.1084,-2.123,-2.1919,-2.252,-2.3022,-2.3727,-2.3582,-2.2805,-2.2201,-2.1588,-2.0923,-2.0462,-2.0265,-2.0348,-2.0781,-2.0753,-2.0375,-1.963,-1.9773,-2.0022,-1.855,-1.8231,-1.8318,-1.7743,-1.7254,-1.6908,-1.7012,-1.6968,-1.6908,-1.6908,-1.6872,-1.6844,-1.6844,-1.6541,-1.623,-1.6193,-1.5349,-1.46,-1.4555,-1.3987,-1.3541,-1.3511,-1.3476,-1.3314,-1.2911,-1.225,-1.1798,-1.1755,-1.1482,-1.1301,-1.1301,-1.1301,-1.1301,-1.1301,-1.1301,-1.1284,-1.1208,-1.099,-1.0788,-1.0705,-1.0191,-0.9911,-0.9987,-1.0158,-1.0394,-1.0663,-1.158,-1.215,-1.2374,-1.2813,-1.2958,-0.8051,-0.8455,-0.908,0.0,-1.0988,-1.1083,-1.2094,-1.2106,-1.2061,-1.258,-1.2505,-1.2551,-1.3176,-1.3149,-1.3304,0.0,-1.4203,-1.4313,-1.4488,-1.5047,-1.5276,-1.4808,-1.5377,-1.556,-1.4919,-1.5212,-1.5515,-1.568,-1.6294,-1.6835,-1.7229,-1.7248,-1.7787,-1.8913,-1.9192,-1.9763,-2.0674,-2.0461,-2.0619,-2.1149,-2.0858,-2.0987,-2.1476,-2.1813,-2.2067,-2.2333,-2.2681,-2.2333,-2.1527,-2.1285,-2.1024,-2.0643,-2.0158,-2.0128,-2.0389,-2.0465,-2.039,-2.0262,-2.0022,-1.9853,-1.9611,-1.9003,-1.8569,-1.8217,-1.7676,-1.7376,-1.7202,-1.6972,-1.6908,-1.6908,-1.6908,-1.6908,-1.6908,-1.6908,-1.678,-1.6597,-1.6367,-1.5915,-1.5436,-1.4872,-1.4422,-1.4044,-1.3735,-1.3571,-1.3459,-1.3314,-1.2646,-1.2054,-1.1822,-1.1507,-1.1301,-1.1301,-1.1301,-1.1301,-1.1301,-1.1301,-1.1301,-1.1301,-1.1192,-1.1074,-1.0896,-1.0514,-1.036,-1.0514,-1.0283,-1.0421,-1.0964,-1.1435,-1.1884,-1.2286,-1.2593,-1.2856,-0.9389,0.0,0.0,-1.1474,-1.1921,-1.2079,-1.2184,-1.217,-1.2239,-1.2634,-1.256,-1.2625,-1.3186,-1.3387,-1.3589,-1.3992,-1.4313,-1.4515,-1.4515,-1.5093,-1.5313,-1.4744,-1.545,-1.5753,-1.5157,-1.546,-1.5689,-1.5689,-1.645,-1.7082,-1.7477,-1.7605,-1.8109,-1.9028,-1.939,-1.9866,-2.0522,-2.0304,-2.0498,-2.1106,-2.0459,-2.0498,-2.1106,-2.1336,-2.1565,-2.1794,-2.1794,-2.1298,-2.0498,-2.0498,-2.0391,-2.0119,-1.9774,-1.988,-2.0149,-2.0001,-2.0096,-2.0315,-2.0388,-2.0042,-1.9535,-1.9349,-1.8835,-1.8229,-1.7926,-1.7678,-1.744,-1.7147,-1.6991,-1.6908,-1.6908,-1.6908,-1.6908,-1.6908,-1.6908,-1.6826,-1.6541,-1.6361,-1.6039,-1.5359,-1.4894,-1.4458,-1.404,-1.374,-1.3571,-1.3511,-1.2963,-1.2415,-1.2011,-1.1567,-1.1301,-1.1301,-1.1301,-1.1301,-1.1301,-1.1301,-1.1301,-1.1301,-1.1301,-1.1217,-1.1023,-1.0744,-1.0675,-1.0794,-1.0437,-1.0574,-1.1267,-1.146,-1.1859,-1.2467,-1.2618,-1.2832,0.0,0.0,-1.0447,-1.1532,-1.2,-1.2211,-1.2281,-1.249,-1.268,-1.2689,-1.301,-1.3259,-1.3286,-1.3635,-1.4002,-1.4423,-1.4506,-1.4515,-1.4515,-1.4864,-1.5111,-1.5084,-1.5111,-1.5129,0.0,-1.546,-1.5689,-1.5689,-1.645,-1.7082,-1.7477,-1.788,-1.8293,-1.8716,-1.8744,-1.8928,-1.9362,-1.9332,-1.9341,-1.9381,-1.9341,-1.9341,-1.942,-2.0187,-2.1001,-2.1794,-2.1794,-2.1298,-2.0498,-2.0498,-2.004,-1.9341,-1.9323,-1.9332,-1.9341,-1.9353,-1.9806,-2.0498,-2.0498,-2.0459,-2.0343,-1.9532,-1.9008,-1.8687,-1.8678,-1.8128,-1.7495,-1.7477,-1.7202,-1.6908,-1.6908,-1.6908,-1.6908,-1.6908,-1.6908,-1.6899,-1.689,-1.6485,-1.6111,-1.6084,-1.5271,-1.4546,-1.4407,-1.4053,-1.3731,-1.3541,-1.3194,-1.2846,-1.2423,-1.1756,-1.1301,-1.1301,-1.1301,-1.1301,-1.1301,-1.1301,-1.1301,-1.1301,-1.1301,-1.1301,-1.1301,-1.1023,-1.0769,-1.0522,-1.0744,-1.1032,-1.1391,-1.1916,-1.2516,-1.317,-1.3113,-1.3085,-0.9085,0.0,-1.0591,-1.1134,-1.1932,-1.252,-1.2299,-1.268,-1.3029,-1.2753,-1.2808,-1.3075,-1.3608,-1.3378,-1.3415,-1.4359,-1.4277,-1.4194,-1.4469,-1.5084,-1.5395,-1.5129,-1.5579,0.0,0.0,0.0,0.0,-1.567,-1.645,-1.7202,-1.788,-1.8293,-1.8696,-1.9091,-1.91,-1.9164,-1.9301,-1.9301,-1.9301,-1.9301,-1.9301,-1.9301,-1.9301,-1.9569,-1.9844,-2.0187,-2.0692,-2.0459,-1.9766,-2.0274,-2.004,-1.9301,-1.9301,-1.9301,-1.9301,-1.9301,-1.946,-1.9766,-2.0304,-2.0148,-1.9766,-2.0001,-1.9633,-1.9054,-1.8788,-1.8522,-1.8192,-1.7651,-1.7394,-1.7238,-1.6972,-1.6795,-1.6716,-1.6874,-1.6795,-1.6751,-1.6874,-1.6764,-1.6565,-1.6266,-1.5578,-1.4897,-1.4608,-1.4013,-1.3571,-1.3511,-1.3202,-1.2834,-1.244,-1.1961,-1.1627,-1.1627,-1.1422,-1.1301,-1.1301,-1.1301,-1.1301,-1.1301,-1.1301,-1.1301,-1.1301,-1.1049,-1.0871,-1.0769,-1.0462,-1.0557,-1.1082,-1.1376,-1.1875,-1.254,-1.2822,-1.3002,-0.935,-1.0122,-1.0814,-1.1535,-1.2359,-1.2918,-1.2502,-1.286,-1.3203,-1.2781,-1.2782,-1.2949,-1.3323,-1.3086,-1.3195,-1.4243,-1.4257,-1.4304,-1.4854,-1.5249,-1.5432,-1.5322,-1.5652,-1.5735,0.0,0.0,0.0,-1.567,-1.6578,-1.7413,-1.8045,-1.8632,-1.9036,-1.9292,-1.9301,-1.9301,-1.9301,-1.9301,-1.9301,-1.9301,-1.9301,-1.9301,-1.9301,-1.9301,-1.9301,-1.9341,-1.9844,-1.9766,-1.9341,-1.9844,-1.9766,-1.9301,-1.9301,-1.9301,-1.9301,-1.9301,-1.9301,-1.9381,-1.9883,-1.9726,-1.9381,-1.9883,-1.9726,-1.9256,-1.8999,-1.8825,-1.8577,-1.7908,-1.7614,-1.7403,-1.7009,-1.6795,-1.6751,-1.6874,-1.6795,-1.6751,-1.6874,-1.6908,-1.6835,-1.6544,-1.6036,-1.5465,-1.4988,-1.4193,-1.3571,-1.3511,-1.3314,-1.3031,-1.2646,-1.2269,-1.196,-1.1832,-1.1601,-1.1422,-1.131,-1.1301,-1.1301,-1.1301,-1.1301,-1.1301,-1.1301,-1.1124,-1.0998,-1.0896,-1.0608,-1.0684,-1.12,-1.1209,-1.1635,-1.2437,-1.2554,-1.2759,-1.0406,-1.085,-1.1062,-1.2505,-1.3119,-1.3252,-1.2892,-1.3059,-1.3176,-1.2808,-1.2886,-1.2933,0.0,0.0,-1.3311,-1.4162,-1.4407,-1.4763,-1.5579,-1.5368,-1.5285,0.0,0.0,0.0,0.0,0.0,0.0,-1.578,0.0,-1.7688,-1.8091,-1.888,-1.9301,-1.9301,-1.9301,-1.9301,-1.9301,-1.9301,-1.9301,-1.9301,-1.9301,-1.9301,-1.9301,-1.9301,-1.9301,-1.9301,-1.9301,-1.9301,-1.9301,-1.9301,-1.9301,-1.9301,-1.9301,-1.9301,-1.9301,-1.9301,-1.9301,-1.9301,-1.9301,-1.9301,-1.9301,-1.9301,-1.9301,-1.9301,-1.9301,-1.9036,-1.866,-1.8228,-1.7871,-1.7458,-1.7046,-1.6936,-1.6901,-1.6874,-1.6874,-1.6874,-1.6874,-1.6908,-1.6908,-1.6908,-1.6553,-1.6108,-1.5541,-1.4555,-1.3757,-1.3541,-1.3511,-1.3391,-1.3078,-1.2691,-1.2278,-1.1856,-1.1797,-1.1661,-1.1336,-1.1301,-1.1301,-1.1301,-1.1301,-1.1301,-1.1301,-1.1301,-1.1175,-1.0922,-1.115,-1.1402,-1.1678,-1.1334,-1.1735,-1.2856,-1.2348,-1.2397,-0.8962,-0.9938,-1.096,-1.1153,-1.2028,-1.2788,-1.2802,-1.2977,-1.3123,-1.3023,-1.2449,-1.2155,0.0,0.0,0.0,-1.4057,-1.4161,0.0,-1.5533,-1.5606,0.0,-1.6514,0.0,-1.6597,-1.6991,-1.7037,0.0,0.0,-1.7321,-1.7807,-1.8522,-1.9036,-1.9301,-1.9301,-1.9301,-1.9301,-1.9301,-1.9301,-1.9301,-1.9301,-1.9301,-1.9301,-1.9301,-1.9301,-1.9301,-1.9301,-1.9301,-1.9301,-1.9301,-1.9301,-1.9301,-1.9301,-1.9301,-1.9301,-1.9301,-1.9301,-1.9301,-1.9301,-1.9301,-1.9301,-1.9301,-1.9301,-1.9301,-1.9301,-1.9301,-1.9228,-1.9072,-1.8678,-1.8485,-1.8238,-1.7532,-1.7242,-1.7071,-1.6754,-1.6682,-1.6682,-1.6682,-1.6795,-1.6908,-1.6908,-1.6485,-1.5827,-1.4847,-1.4439,-1.4078,-1.3584,-1.3511,-1.3476,-1.3382,-1.3057,-1.268,-1.2295,-1.1977,-1.1661,-1.1336,-1.1301,-1.1301,-1.1301,-1.1301,-1.1301,-1.1301,-1.1301,-1.1276,-1.12,-1.0871,-1.0922,-1.1402,-1.0854,-1.1183,-1.2298,-1.215,-1.2431,-0.9174,-0.9917,-1.0713,-1.1106,-1.1953,-1.2706,-1.2716,-1.2797,-1.2751,-1.2307,-1.1797,0.0,-1.1481,-1.1722,0.0,0.0,0.0,0.0,-1.5542,-1.5845,-1.6266,0.0,-1.7165,0.0,-1.7734,-1.777,-1.7844,0.0,-1.8027,-1.8229,-1.8687,-1.9091,-1.9301,-1.9301,-1.9301,-1.9301,-1.9301,-1.9301,-1.9301,-1.9301,-1.9301,-1.9301,-1.9301,-1.9301,-1.9301,-1.9301,-1.9301,-1.9301,-1.9301,-1.9301,-1.9301,-1.9301,-1.9301,-1.9301,-1.9301,-1.9301,-1.9301,-1.9301,-1.9301,-1.9301,-1.9301,-1.9301,-1.9301,-1.9301,-1.9301,-1.9301,-1.9219,-1.8825,-1.8715,-1.8568,-1.7935,-1.7497,-1.7162,-1.7034,-1.6799,-1.6603,-1.6716,-1.683,-1.6908,-1.6908,-1.6519,-1.5912,-1.5032,-1.4656,-1.4276,-1.3722,-1.3571,-1.3511,-1.3511,-1.3339,-1.3065,-1.2689,-1.2466,-1.2184,-1.1825,-1.1619,-1.1524,-1.1524,-1.1396,-1.1301,-1.1301,-1.1301,-1.1301,-1.1301,-1.0998,-1.0998,-1.1301,-1.0684,-1.0981,-1.2101,-1.1819,-1.2166,-0.9972,-1.0228,-1.0407,-1.1487,-1.2164,-1.2584,-1.2422,-1.2377,-1.2111,-1.1147,0.0,-1.0666,-0.9887,-1.0996,-1.2105,-1.2405,0.0,-1.4744,-1.5643,-1.6083,-1.6633,-1.7477,-1.7623,-1.7825,-1.8238,-1.8246,-1.8383,-1.876,-1.8788,-1.8788,-1.8788,-1.9118,-1.9301,-1.9301,-1.9301,-1.9301,-1.9301,-1.9301,-1.9301,-1.9301,-1.9301,-1.9301,-1.9301,-1.9301,-1.9301,-1.9301,-1.9301,-1.9301,-1.9301,-1.9301,-1.9301,-1.9301,-1.9301,-1.9301,-1.9301,-1.9301,-1.9301,-1.9301,-1.9301,-1.9301,-1.9301,-1.9301,-1.9301,-1.9301,-1.9301,-1.9301,-1.9228,-1.8889,-1.8788,-1.8705,-1.8264,-1.7752,-1.7325,-1.7442,-1.7042,-1.6682,-1.683,-1.6874,-1.6908,-1.6908,-1.6633,-1.62,-1.5649,-1.5051,-1.4493,-1.393,-1.3636,-1.3511,-1.3511,-1.3511,-1.3374,-1.3043,-1.3009,-1.2846,-1.2423,-1.2028,-1.1788,-1.1788,-1.1482,-1.1301,-1.1301,-1.1301,-1.1301,-1.1301,-1.1276,-1.1301,-1.1402,-1.0761,-1.1065,-1.22,-1.161,-1.1884,-0.9279,-0.9886,-1.0439,-1.042,-1.1026,-1.1565,-1.1334,-1.1239,0.0,0.0,-0.9722,-0.943,-0.9867,-1.0275,-1.1147,-1.2996,0.0,0.0,0.0,0.0,-1.67,0.0,0.0,0.0,0.0,-1.91,0.0,0.0,-1.9201,-1.9201,-1.9201,-1.9265,-1.9301,-1.9301,-1.9301,-1.9301,-1.9301,-1.9301,-1.9301,-1.9301,-1.9301,-1.9301,-1.9301,-1.9301,-1.9301,-1.9301,-1.9301,-1.9301,-1.9301,-1.9301,-1.9301,-1.9301,-1.9301,-1.9301,-1.9301,-1.9301,-1.9301,-1.9301,-1.9301,-1.9301,-1.9301,-1.9301,-1.9301,-1.9301,-1.9301,-1.9301,-1.9283,-1.9219,-1.9201,-1.9109,-1.8715,-1.8274,-1.7825,-1.737,-1.706,-1.6795,-1.6682,-1.6795,-1.6908,-1.6908,-1.6853,-1.6567,-1.5856,-1.5406,-1.4854,-1.4153,-1.3747,-1.3511,-1.3511,-1.3511,-1.3374,-1.3043,-1.3009,-1.2846,-1.2423,-1.2028,-1.1788,-1.1788,-1.1482,-1.1301,-1.1301,-1.1301,-1.1301,-1.1301,-1.1074,-1.1301,-1.1952,-1.1192,-1.1469,-1.2759,-1.22,-1.2348,-0.9095,-0.9544,-0.9977,-1.0052,-1.0398,-1.0668,-1.0509,0.0,0.0,0.0,-0.8676,-0.8434,-0.8429,0.0,0.0,0.0,0.0,0.0,0.0,0.0,0.0,0.0,0.0,0.0,0.0,-1.9301,-1.9301,-1.9301,-1.9301,-1.9301,-1.9301,-1.9301,-1.9301,-1.9301,-1.9301,-1.9301,-1.9301,-1.9301,-1.9301,-1.9301,-1.9301,-1.9421,-1.9622,-1.9402,-1.9421,-1.9613,-1.9393,-1.9301,-1.9301,-1.9301,-1.9301,-1.9301,-1.9301,-1.9301,-1.9301,-1.9301,-1.9301,-1.9301,-1.9301,-1.9301,-1.9301,-1.9301,-1.9301,-1.9301,-1.9301,-1.9301,-1.9301,-1.9301,-1.9301,-1.9256,-1.9063,-1.8492,-1.7878,-1.7568,-1.7134,-1.6716,-1.6603,-1.676,-1.6908,-1.6908,-1.6908,-1.6677,-1.6031,-1.5503,-1.4951,-1.4311,-1.379,-1.3511,-1.3511,-1.3511,-1.3442,-1.3271,-1.3254,-1.3177,-1.2988,-1.2637,-1.2346,-1.2141,-1.1746,-1.1482,-1.131,-1.1301,-1.1301,-1.1301,-1.1049,-1.1023,-1.1276,-1.1023,-1.1141,-1.161,-1.1943,-1.2274,-0.9155,-0.9348,-0.9545,-0.9752,-0.9896,-0.9919,-0.9695,-0.9237,0.0,0.0,-0.7809,-0.7641,-0.7216,0.0,-1.0327,0.0,-1.1703,0.0,0.0,0.0,0.0,0.0,0.0,0.0,0.0,-1.9301,0.0,-1.9301,-1.9301,-1.9301,-1.9301,-1.9301,-1.9301,-1.9301,-1.9301,-1.9301,-1.9301,-1.9301,-1.9301,-1.9301,-1.9301,-1.9522,-1.9875,-1.9494,-1.9531,-1.9866,-1.9485,-1.9301,-1.9301,-1.9301,-1.9301,-1.9301,-1.9301,-1.9301,-1.9301,-1.9301,-1.9301,-1.9301,-1.9301,-1.9301,-1.9301,-1.9301,-1.9301,-1.9301,-1.9301,-1.9301,-1.9301,-1.9301,-1.9301,-1.9283,-1.9201,-1.8526,-1.7804,-1.7586,-1.7027,-1.6533,-1.6603,-1.6716,-1.6839,-1.6908,-1.6908,-1.6738,-1.6172,-1.5599,-1.5018,-1.4455,-1.3872,-1.3511,-1.3511,-1.3511,-1.3511,-1.3511,-1.3511,-1.3511,-1.3511,-1.3177,-1.288,-1.2535,-1.2139,-1.1763,-1.1413,-1.1421,-1.1362,-1.1301,-1.1099,-1.0922,-1.0769,-1.0922,-1.0871,-1.071,-1.1519,-1.1968,-0.9342,-0.9498,-0.945,-0.9229,-0.9424,-0.9453,-0.8633,0.0,0.0,-0.747,-0.7189,-0.7196,-0.7483,-0.8187,-0.915,0.0,0.0,-1.3086,0.0,0.0,0.0,0.0,0.0,0.0,0.0,-1.9301,-1.9301,-1.9301,-1.9301,-1.9301,-1.9301,-1.9301,-1.9301,-1.9301,-1.9301,-1.9301,-1.9301,-1.9301,-1.9301,-1.9301,-1.9301,-1.9522,-1.9875,-1.9494,-1.9531,-1.9866,-1.9485,-1.9301,-1.9301,-1.9301,-1.9301,-1.9301,-1.9301,-1.9301,-1.9301,-1.9301,-1.9301,-1.9301,-1.9301,-1.9301,-1.9301,-1.9301,-1.9301,-1.9301,-1.9301,-1.9301,-1.9301,-1.9301,-1.9301,-1.9219,-1.8861,-1.8411,-1.7852,-1.6927,-1.6491,-1.6377,-1.6577,-1.6603,-1.6682,-1.6864,-1.6908,-1.676,-1.6332,-1.5677,-1.5083,-1.473,-1.399,-1.3511,-1.3511,-1.3511,-1.3511,-1.3511,-1.3511,-1.3511,-1.3511,-1.3177,-1.2992,-1.2957,-1.256,-1.2175,-1.178,-1.1763,-1.1601,-1.1301,-1.1276,-1.1368,-1.1603,-1.1377,-1.1368,-1.1578,-1.1385,-1.1585,-0.9161,-0.9149,-0.9077,-0.9293,-0.9088,-0.8773,-0.857,0.0,-0.7695,-0.7272,-0.691,-0.6691,-0.6855,-0.7465,-0.834,-0.9525,-1.0507,-1.155,-1.2802,0.0,0.0,0.0,0.0,0.0,0.0,0.0,-1.9301,-1.9301,-1.9301,-1.9301,-1.9301,-1.9301,-1.9301,-1.9301,-1.9301,-1.9301,-1.9301,-1.9301,-1.9301,-1.9301,-1.9301,-1.9522,-1.9875,-1.9494,-1.9531,-1.9866,-1.9485,-1.9301,-1.9301,-1.9301,-1.9301,-1.9301,-1.9301,-1.9301,-1.9301,-1.9301,-1.9301,-1.9301,-1.9301,-1.9301,-1.9301,-1.9301,-1.9301,-1.9301,-1.9301,-1.9301,-1.9301,-1.9301,-1.9301,-1.921,-1.8815,-1.8088,-1.7288,-1.6581,-1.6307,-1.6202,-1.6263,-1.6473,-1.6603,-1.6682,-1.683,-1.676,-1.6386,-1.5703,-1.5092,-1.4749,-1.4016,-1.3511,-1.3511,-1.3511,-1.3511,-1.3511,-1.3511,-1.3511,-1.3511,-1.3382,-1.3202,-1.3017,-1.2863,-1.2569,-1.2184,-1.2175,-1.2098,-1.1944,-1.173,-1.1567,-1.1514,-1.1362,-1.1267,-1.1226,-1.1209,-1.1658,-0.9023,-0.9023,-0.9035,-0.942,-0.8969,-0.8463,0.0,-0.7858,-0.7176,-0.7097,-0.6726,-0.6395,-0.6395,-0.7019,-0.7788,-0.859,-0.9499,-1.047,-1.148,-1.2612,0.0,0.0,0.0,-1.7379,0.0,-1.9125,-1.9301,-1.9301,-1.9301,-1.9301,-1.9301,-1.9301,-1.9301,-1.9301,-1.9301,-1.9301,-1.9301,-1.9301,-1.9301,-1.9301,-1.9301,-1.9522,-1.9875,-1.9494,-1.9531,-1.9866,-1.9485,-1.9301,-1.9301,-1.9301,-1.9301,-1.9301,-1.9301,-1.9301,-1.9301,-1.9301,-1.9301,-1.9301,-1.9301,-1.9301,-1.9301,-1.9301,-1.9301,-1.9301,-1.9301,-1.9301,-1.9301,-1.9301,-1.9136,-1.8889,-1.8614,-1.764,-1.6723,-1.6378,-1.6132,-1.6035,-1.6096,-1.6307,-1.6473,-1.6568,-1.6716,-1.6726,-1.6447,-1.5728,-1.5092,-1.4806,-1.4039,-1.3511,-1.3511,-1.3511,-1.3511,-1.3511,-1.3511,-1.3511,-1.3511,-1.3511,-1.3399,-1.3151,-1.3134,-1.2992,-1.2577,-1.2588,-1.2509,-1.2389,-1.2105,-1.1869,-1.1708,-1.1467,-1.1263,-1.108,-1.1045,-1.1598,-0.9023,-0.93,-0.9478,-0.9484,-0.9107,-0.8638,0.0,-0.7731,-0.7127,-0.6866,-0.6577,-0.6395,-0.6395,-0.694,-0.7533,-0.795,-0.9073,-1.0245,-1.1254,-1.2432,0.0,0.0,0.0,-1.6374,-1.7796,-1.8766,-1.9301,-1.9301,-1.9301,0.0,-1.9301,-1.9301,-1.9301,-1.9301,-1.9301,-1.9301,-1.9301,-1.9301,-1.9301,-1.9301,-1.9301,-1.9522,-1.9875,-1.9494,-1.9531,-1.9866,-1.9485,-1.9301,-1.9301,-1.9301,-1.9301,-1.9301,-1.9301,-1.9301,-1.9301,-1.9301,-1.9301,-1.9301,-1.9301,-1.9301,-1.9301,-1.9301,-1.9301,-1.9301,-1.9301,-1.9301,-1.9301,-1.9301,-1.8742,-1.81,-1.8091,-1.7198,-1.6316,-1.6307,-1.6035,-1.5867,-1.607,-1.6096,-1.6202,-1.6542,-1.6603,-1.6603,-1.6603,-1.5829,-1.5115,-1.4944,-1.4093,-1.3511,-1.3511,-1.3511,-1.3511,-1.3511,-1.3511,-1.3511,-1.3511,-1.3511,-1.3511,-1.3502,-1.3502,-1.3339,-1.3017,-1.3,-1.282,-1.2398,-1.2389,-1.2381,-1.2381,-1.1788,-1.1507,-1.1479,-1.0886,-1.1254,-0.8445,-0.8471,-0.8447,-0.8621,-0.8405,-0.8123,-0.8045,-0.7599,-0.7127,-0.6866,-0.6599,-0.6395,-0.6395,-0.6563,-0.7068,-0.809,-0.8614,0.0,0.0,0.0,0.0,0.0,-1.6619,-1.8352,0.0,0.0,-1.9301,-1.9301,-1.9301,-1.9301,-1.9301,-1.9301,-1.9301,-1.9301,-1.9301,-1.9301,-1.9301,-1.9301,-1.9301,-1.9301,-1.9301,-1.9366,-1.9494,-1.9366,-1.9375,-1.9494,-1.9356,-1.9301,-1.9301,-1.9301,-1.9301,-1.9301,-1.9301,-1.9301,-1.9301,-1.9301,-1.9301,-1.9301,-1.9301,-1.9301,-1.9301,-1.9301,-1.9301,-1.9301,-1.9301,-1.9301,-1.9301,-1.9301,-1.8733,-1.8081,-1.7923,-1.7108,-1.6272,-1.6202,-1.5973,-1.5841,-1.5867,-1.6,-1.6167,-1.6377,-1.6508,-1.6603,-1.6603,-1.6043,-1.5449,-1.4979,-1.4348,-1.381,-1.3545,-1.3511,-1.3511,-1.3511,-1.3511,-1.3511,-1.3511,-1.3511,-1.3511,-1.3511,-1.3511,-1.3459,-1.3348,-1.3339,-1.328,-1.316,-1.292,-1.282,-1.282,-1.2161,-1.1636,-1.1249,-1.1885,-1.2402,0.0,-0.8093,-0.8111,-0.8369,-0.8165,-0.7871,-0.7796,-0.7412,-0.6975,-0.6714,-0.651,-0.6395,-0.6395,-0.6474,-0.6869,-0.7785,-0.8028,-0.8495,0.0,0.0,0.0,0.0,0.0,0.0,0.0,-1.8597,-1.8935,-1.9262,-1.9301,-1.9301,-1.9301,-1.9301,-1.9301,-1.9301,-1.9301,-1.9301,-1.9301,-1.9301,-1.9301,-1.9301,-1.9301,-1.9301,-1.9301,-1.9301,-1.9301,-1.9301,-1.9301,-1.9301,0.0,-1.9301,-1.9301,-1.9301,-1.9301,-1.9301,-1.9301,-1.9301,-1.9301,-1.9301,-1.9301,-1.9301,-1.9301,-1.9301,-1.9301,-1.9301,-1.9301,-1.9301,-1.9265,-1.9118,-1.8614,-1.8045,-1.777,-1.7,-1.6272,-1.6202,-1.5964,-1.5805,-1.5805,-1.5903,-1.6035,-1.6272,-1.6403,-1.6542,-1.6682,-1.6219,-1.5668,-1.5296,-1.4588,-1.4007,-1.3759,-1.3596,-1.3511,-1.3511,-1.3511,-1.3511,-1.3511,-1.3511,-1.3511,-1.3511,-1.3511,-1.3511,-1.3511,-1.3511,-1.3511,-1.3511,-1.3288,-1.3177,-1.3177,-1.253,-1.1892,-1.1314,-1.2284,-1.2915,0.0,-0.8003,0.0,-0.8512,-0.8217,-0.7802,-0.7601,-0.7158,0.0,-0.6449,-0.6395,-0.6401,-0.6413,-0.6619,-0.6908,-0.7212,-0.748,-0.8108,0.0,-1.0037,0.0,0.0,-1.4239,0.0,-1.6436,-1.7358,-1.8238,-1.9134,-1.9183,-1.9183,-1.9301,-1.9301,-1.9301,-1.9301,-1.9301,-1.9301,-1.9301,-1.9301,-1.9301,-1.9301,-1.9301,-1.9301,-1.9301,-1.9301,-1.9301,-1.9301,-1.9301,-1.9301,-1.9301,-1.9301,-1.9301,-1.9301,-1.9301,-1.9301,-1.9301,-1.9301,-1.9301,-1.9301,-1.9301,-1.9301,-1.9301,-1.9301,-1.9301,-1.9301,-1.9301,-1.9301,-1.9219,-1.8825,-1.8393,-1.799,-1.7605,-1.6883,-1.6307,-1.6272,-1.6044,-1.5805,-1.5805,-1.5805,-1.5903,-1.6237,-1.6307,-1.6412,-1.6795,-1.628,-1.5817,-1.579,-1.4885,-1.4153,-1.4101,-1.3776,-1.3536,-1.3511,-1.3511,-1.3511,-1.3511,-1.3511,-1.3511,-1.3511,-1.3511,-1.3511,-1.3511,-1.3511,-1.3511,-1.3511,-1.3511,-1.3511,-1.3511,-1.282,-1.2205,-1.1685,-1.2182,-1.2795,-0.6935,0.0,-0.7424,-0.7285,-0.7309,-0.7297,0.0,-0.6896,-0.6732,-0.6449,0.0,0.0,-0.6678,-0.6763,-0.7006,-0.7633,-0.7958,-0.8387,-0.9131,0.0,0.0,-1.3793,-1.5023,-1.5855,-1.6106,-1.6327,-1.6911,-1.7989,-1.7917,-1.8287,-1.9262,-1.9152,-1.9152,-1.9301,-1.9301,-1.9301,-1.9301,-1.9301,-1.9301,-1.9301,-1.9301,-1.9301,-1.9301,-1.9301,-1.9301,-1.9301,-1.9301,-1.9301,-1.9301,-1.9301,-1.9301,-1.9301,-1.9301,-1.9301,-1.9301,-1.9301,-1.9301,-1.9301,-1.9301,-1.9301,-1.9301,-1.9301,-1.9301,-1.9301,-1.9301,-1.9301,-1.9219,-1.8825,-1.8393,-1.7953,-1.7397,-1.6786,-1.6272,-1.6167,-1.5964,-1.5805,-1.5805,-1.5805,-1.5903,-1.6237,-1.6202,-1.6272,-1.6612,-1.6297,-1.593,-1.5615,-1.5204,-1.4744,-1.417,-1.4016,-1.3845,-1.3545,-1.3511,-1.3511,-1.3511,-1.3511,-1.3511,-1.3511,-1.3511,-1.3511,-1.3511,-1.3511,-1.3511,-1.3511,-1.3511,-1.3511,-1.3511,-1.282,-1.2421,-1.2266,-1.1957,-1.2128,-0.6471,-0.6856,-0.7194,-0.7176,-0.7188,-0.7164,-0.7024,0.0,0.0,0.0,0.0,0.0,0.0,0.0,0.0,0.0,-0.8021,0.0,0.0,0.0,0.0,-1.3292,-1.4108,-1.4859,0.0,-1.5391,-1.5846,-1.683,-1.6838,-1.7253,-1.8367,-1.8407,-1.8656,-1.9152,-1.9262,-1.9301,-1.9301,-1.9301,-1.9301,-1.9301,-1.9301,-1.9301,-1.9301,-1.9301,-1.9301,-1.9301,-1.9301,-1.9301,-1.9301,-1.9301,-1.9301,-1.9301,-1.9301,-1.9301,-1.9301,-1.9301,-1.9301,-1.9301,-1.9301,-1.9301,-1.9301,-1.9301,-1.9301,-1.9301,-1.9301,-1.9173,-1.8944,-1.855,-1.8146,-1.7706,-1.7197,-1.6678,-1.6272,-1.6202,-1.6,-1.5805,-1.5805,-1.5805,-1.5867,-1.6175,-1.6132,-1.6167,-1.6403,-1.6272,-1.6027,-1.5826,-1.5463,-1.5069,-1.4658,-1.447,-1.4213,-1.3819,-1.3776,-1.3708,-1.3528,-1.3511,-1.3511,-1.3511,-1.3511,-1.3511,-1.3511,-1.3511,-1.3511,-1.3511,-1.3511,-1.342,-1.3277,-1.2758,-1.2451,-1.2305,-1.1809,-1.1919,-0.6253,-0.6732,-0.7243,-0.7425,-0.7334,-0.72,0.0,0.0,0.0,0.0,0.0,0.0,0.0,0.0,0.0,0.0,0.0,0.0,-0.9901,-1.1362,-1.2286,-1.2305,-1.2748,0.0,-1.4329,-1.4413,-1.4775,-1.5674,-1.5715,-1.6134,-1.7147,-1.7334,-1.7747,-1.8536,-1.8895,-1.9054,-1.9054,-1.9222,-1.9301,-1.9301,-1.9301,-1.9301,-1.9301,-1.9301,-1.9301,-1.9301,-1.9301,-1.9301,-1.9301,-1.9301,-1.9301,-1.9301,-1.9301,-1.9301,-1.9301,-1.9301,-1.9301,-1.9301,-1.9301,-1.9301,-1.9262,-1.9134,-1.9183,-1.9262,-1.9134,-1.8864,-1.855,-1.8182,-1.7743,-1.726,-1.6834,-1.6412,-1.6132,-1.6132,-1.5964,-1.5761,-1.5647,-1.5611,-1.5682,-1.5885,-1.5877,-1.5947,-1.6202,-1.6132,-1.6061,-1.6061,-1.5618,-1.5283,-1.5223,-1.4949,-1.4615,-1.423,-1.4187,-1.4024,-1.3631,-1.3596,-1.3571,-1.3511,-1.3511,-1.3511,-1.3511,-1.3511,-1.3511,-1.3511,-1.3511,-1.3359,-1.3072,-1.2736,-1.2428,-1.2151,-1.184,-1.1919,-0.6449,-0.6864,-0.7158,-0.6975,-0.7066,-0.72,-0.72,0.0,0.0,0.0,0.0,0.0,0.0,0.0,-0.7928,0.0,0.0,-0.9654,0.0,0.0,-1.1552,-1.2208,0.0,-1.2833,-1.2997,-1.2997,-1.3451,-1.4566,-1.4448,-1.4866,-1.6134,-1.6101,-1.6142,-1.6462,-1.7447,-1.794,-1.794,-1.8847,-1.9301,-1.9301,-1.9301,-1.9301,-1.9301,-1.9301,-1.9301,-1.9301,-1.9301,-1.9301,-1.9301,-1.9301,-1.9301,-1.9301,-1.9301,-1.9301,-1.9301,-1.9301,-1.9301,-1.9301,-1.9301,-1.9301,-1.9183,-1.8447,-1.8687,-1.9173,-1.8399,-1.8198,-1.8164,-1.81,-1.7367,-1.6478,-1.6069,-1.5657,-1.5382,-1.5382,-1.5576,-1.5611,-1.4939,-1.4788,-1.4832,-1.5046,-1.4939,-1.5117,-1.5991,-1.5964,-1.5832,-1.5832,-1.5781,-1.5591,-1.5223,-1.5163,-1.4992,-1.4632,-1.4598,-1.4435,-1.4042,-1.4007,-1.3862,-1.3528,-1.3511,-1.3511,-1.3511,-1.3511,-1.3511,-1.3511,-1.3511,-1.348,-1.342,-1.3103,-1.2767,-1.2421,-1.2151,-1.1934,-0.62,-0.6683,-0.708,-0.7031,-0.7218,-0.7413,-0.7413,0.0,0.0,0.0,0.0,0.0,0.0,0.0,-0.8165,-0.9011,0.0,-1.0364,-1.1021,-1.1365,-1.17,0.0,0.0,-1.2705,-1.2705,-1.2705,-1.2912,-1.3451,-1.3372,-1.3789,-1.4859,-1.4991,-1.5274,-1.5812,-1.6593,-1.7009,-1.7009,-1.7585,-1.8367,-1.9301,-1.9301,-1.9301,-1.9301,-1.9301,-1.9301,-1.9301,-1.9301,-1.9301,-1.9301,-1.9301,-1.9301,-1.9301,-1.9301,-1.9301,-1.9301,-1.9301,-1.9301,-1.9301,-1.9301,-1.9301,-1.9143,-1.8278,-1.8607,-1.9143,-1.8238,-1.8038,-1.8091,-1.8091,-1.7105,-1.6048,-1.5841,-1.5515,-1.5204,-1.5204,-1.5505,-1.5576,-1.4788,-1.4601,-1.4494,-1.4214,-1.4394,-1.4752,-1.5223,-1.5568,-1.5805,-1.5805,-1.5426,-1.5253,-1.5479,-1.5123,-1.4912,-1.4975,-1.4966,-1.4735,-1.4144,-1.4093,-1.393,-1.3536,-1.3511,-1.3511,-1.3511,-1.3511,-1.3511,-1.3511,-1.3511,-1.3511,-1.3511,-1.3155,-1.2828,-1.2482,-1.2212,-1.1903,-0.5989,-0.6458,-0.6955,-0.7194,0.0,-0.7679,-0.7745,0.0,0.0,0.0,0.0,0.0,0.0,-0.8195,0.0,-0.9552,-1.025,-1.0834,-1.1166,-1.1471,-1.1854,-1.2186,-1.2451,-1.2614,-1.2614,-1.2668,-1.2705,-1.2705,-1.2705,-1.2997,-1.3669,-1.3909,-1.4329,-1.4991,-1.5613,-1.5944,-1.5985,-1.6404,-1.7423,-1.8975,-1.8776,-1.8895,-1.9301,-1.9094,-1.9094,-1.9301,-1.9301,-1.9301,-1.9301,-1.9301,-1.9301,-1.9301,-1.9301,-1.9301,-1.9301,-1.9301,-1.9301,-1.9301,-1.9301,-1.9183,-1.8838,-1.7854,-1.8049,-1.847,-1.7734,-1.7609,-1.7737,-1.7821,-1.6682,-1.5436,-1.5436,-1.5196,-1.4911,-1.4875,-1.5204,-1.5311,-1.4502,-1.4171,-1.3882,-1.3317,-1.3818,-1.4386,-1.4565,-1.5275,-1.5805,-1.5805,-1.5125,-1.4903,-1.5691,-1.5089,-1.479,-1.5274,-1.5352,-1.5086,-1.4418,-1.4281,-1.4067,-1.3673,-1.3554,-1.3511,-1.3511,-1.3511,-1.3511,-1.3511,-1.3511,-1.3511,-1.3511,-1.3246,-1.295,-1.2613,-1.2336,-1.2027,-0.6069,-0.6413,-0.6759,-0.725,-0.7622,0.0,-0.8205,-0.8247,0.0,-0.8229,0.0,0.0,0.0,-0.9101,-0.9865,-1.019,-1.0491,-1.0863,-1.1387,0.0,-1.1365,-1.189,-1.2186,-1.2343,-1.2343,-1.256,-1.2705,-1.2705,-1.2705,-1.2747,-1.279,-1.2826,-1.2869,-1.2912,-1.3951,-1.4615,-1.4824,-1.5902,-1.6976,-1.8078,-1.7269,-1.7715,-1.9262,-1.8447,-1.8527,-1.9301,-1.9301,-1.9301,-1.9301,-1.9301,-1.9301,-1.9301,-1.9301,-1.9301,-1.9301,-1.9301,-1.9301,-1.9301,-1.9301,-1.8767,-1.7897,-1.6557,-1.634,-1.6545,-1.6221,-1.6342,-1.6695,-1.6977,-1.5778,-1.4414,-1.4414,-1.4286,-1.4129,-1.3941,-1.4294,-1.4466,-1.3745,-1.2989,-1.2445,-1.2409,-1.3025,-1.3781,-1.4494,-1.5275,-1.5805,-1.5805,-1.5125,-1.4903,-1.5691,-1.5089,-1.4895,-1.5683,-1.5762,-1.5591,-1.5172,-1.4829,-1.4478,-1.4076,-1.3708,-1.3511,-1.3511,-1.3511,-1.3511,-1.3511,-1.3511,-1.3511,-1.3511,-1.348,-1.3307,-1.2958,-1.2644,-1.2336,-0.5755,-0.6361,-0.6836,-0.709,-0.7776,0.0,0.0,-0.8297,-0.856,-0.856,-0.8909,0.0,0.0,0.0,-1.0178,-1.028,-1.0647,-1.1099,-1.1441,-1.1405,-1.1471,-1.1838,-1.2011,-1.2131,-1.2294,-1.2403,-1.253,-1.2693,-1.2705,-1.2705,-1.2705,-1.2548,-1.2536,-1.2699,-1.313,-1.3451,-1.3711,-1.4258,-1.5081,-1.615,-1.6527,-1.735,-1.8487,-1.8158,-1.8487,-1.9301,-1.9301,-1.9301,-1.9301,-1.9301,-1.9301,-1.9301,-1.9301,-1.9301,-1.9301,-1.9301,-1.9301,-1.9222,-1.8687,-1.8082,-1.7304,-1.5703,-1.5397,-1.5614,-1.5498,-1.5457,-1.564,-1.6245,-1.5093,-1.3629,-1.3629,-1.3753,-1.3905,-1.3833,-1.4222,-1.4386,-1.368,-1.2879,-1.215,-1.1632,-1.2615,-1.3426,-1.32,-1.4214,-1.4911,-1.4446,-1.3673,-1.3637,-1.4911,-1.4394,-1.4402,-1.5655,-1.5583,-1.5377,-1.5198,-1.4889,-1.4521,-1.4119,-1.3956,-1.3759,-1.3519,-1.3511,-1.3511,-1.3511,-1.3511,-1.339,-1.3194,-1.339,-1.3117,-1.2428,-1.249,-1.2243,-0.5642,-0.6378,-0.6982,0.0,0.0,0.0,-0.8315,-0.8644,-0.8963,-0.8963,-0.9257,0.0,0.0,0.0,0.0,0.0,-1.0731,-1.111,-1.1218,-1.1309,-1.1423,-1.1648,-1.1706,-1.1832,-1.2047,-1.2137,-1.2294,-1.256,-1.2506,-1.2493,-1.2578,-1.233,-1.227,-1.2451,-1.2453,-1.257,-1.2839,-1.2971,-1.3457,-1.4268,-1.5039,-1.6146,-1.7458,-1.7458,-1.7945,-1.8746,-1.8746,-1.8913,-1.9061,-1.8455,-1.8433,-1.8746,-1.8746,-1.8913,-1.9127,-1.9256,-1.9097,-1.874,-1.8021,-1.7254,-1.6335,-1.4751,-1.4241,-1.4314,-1.4451,-1.4456,-1.4508,-1.5104,-1.422,-1.3011,-1.2725,-1.32,-1.3724,-1.3397,-1.3781,-1.4034,-1.328,-1.2475,-1.1744,-1.1223,-1.2395,-1.3244,-1.2445,-1.3593,-1.435,-1.36,-1.2813,-1.2842,-1.4386,-1.3962,-1.4078,-1.5655,-1.5557,-1.5403,-1.5403,-1.518,-1.4872,-1.4478,-1.4341,-1.405,-1.3528,-1.3511,-1.3511,-1.3511,-1.3511,-1.3338,-1.2989,-1.3216,-1.2972,-1.2212,-1.2336,-1.2151,-0.5755,-0.6435,-0.7119,0.0,0.0,0.0,-0.8981,-0.9318,-0.9522,-0.9528,0.0,-0.9684,-1.0202,-1.0298,0.0,-1.0298,-1.0737,-1.1021,-1.0725,-1.0948,-1.1111,-1.1111,-1.1321,-1.1489,-1.1489,-1.1724,-1.2029,-1.2288,-1.2071,-1.2035,-1.2294,-1.2024,-1.192,-1.188,-1.192,-1.2,-1.2292,-1.2292,-1.2412,-1.2611,-1.2605,-1.3891,-1.6301,-1.6301,-1.6775,-1.7596,-1.7596,-1.7993,-1.8515,-1.6571,-1.6484,-1.7596,-1.7596,-1.8032,-1.8713,-1.9146,-1.8672,-1.7744,-1.7381,-1.6325,-1.4865,-1.3584,-1.2784,-1.2382,-1.3011,-1.3227,-1.331,-1.3454,-1.3184,-1.2645,-1.1663,-1.2586,-1.3542,-1.2526,-1.2922,-1.328,-1.2482,-1.1669,-1.1111,-1.1111,-1.2395,-1.3244,-1.2409,-1.3564,-1.4314,-1.3608,-1.2806,-1.2842,-1.4386,-1.3962,-1.4114,-1.5655,-1.5805,-1.5805,-1.5797,-1.5805,-1.5634,-1.5206,-1.4881,-1.4333,-1.3545,-1.3511,-1.3511,-1.3511,-1.3511,-1.3338,-1.2989,-1.2989,-1.2828,-1.249,-1.2212,-1.2096,-0.5078,-0.588,0.0,-0.694,0.0,0.0,0.0,-0.9594,0.0,0.0,-1.0466,-1.0382,-1.0539,-1.0569,0.0,-1.0569,-1.0851,-1.1087,-1.1009,-1.1063,-1.1111,-1.1111,-1.1184,-1.1238,-1.1238,-1.1447,-1.1639,-1.1718,-1.1826,-1.1916,-1.1994,-1.1748,-1.1694,-1.1874,-1.1706,-1.1739,-1.2006,-1.2006,-1.2126,-1.2406,-1.2132,-1.3299,-1.5661,-1.5661,-1.6434,-1.771,-1.7199,-1.7009,-1.6992,-1.5996,-1.5867,-1.6388,-1.6941,-1.7293,-1.7576,-1.8232,-1.7934,-1.7136,-1.6278,-1.5081,-1.3803,-1.2664,-1.191,-1.1601,-1.234,-1.2276,-1.2089,-1.2692,-1.2365,-1.1774,-1.1484,-1.207,-1.2666,-1.2372,-1.2482,-1.2592,-1.2342,-1.1669,-1.1111,-1.1111,-1.1922,-1.2402,-1.1595,-1.2291,-1.2725,-1.1922,-1.1589,-1.2033,-1.3637,-1.4589,-1.5292,-1.5761,-1.5805,-1.5576,-1.5018,-1.5461,-1.5424,-1.4478,-1.4807,-1.4718,-1.3956,-1.3656,-1.3511,-1.3511,-1.3511,-1.3208,-1.2644,-1.2897,-1.2613,-1.1872,-1.2034,-1.1965,-0.5531,-0.6422,0.0,-0.7406,-0.8392,-0.939,-0.9871,0.0,0.0,0.0,0.0,-1.0719,-1.0858,-1.0755,0.0,-1.0683,-1.0942,-1.1075,-1.0972,-1.1045,-1.1111,-1.1111,-1.1111,-1.1111,-1.1111,-1.1268,-1.1375,-1.1483,-1.1537,-1.1648,-1.1718,-1.1477,-1.1437,-1.1594,-1.1449,-1.1405,-1.16,-1.1561,-1.1639,-1.184,-1.1635,-1.25,-1.4298,-1.4554,-1.5224,-1.6205,-1.6055,-1.5477,-1.4659,-1.4705,-1.4872,-1.5194,-1.5988,-1.6296,-1.6388,-1.7217,-1.6816,-1.5679,-1.4835,-1.3874,-1.2866,-1.1898,-1.1369,-1.1186,-1.1669,-1.1632,-1.1484,-1.1892,-1.1706,-1.1372,-1.1298,-1.1558,-1.1818,-1.1818,-1.2077,-1.2224,-1.1892,-1.1446,-1.1111,-1.1111,-1.1744,-1.204,-1.1223,-1.1781,-1.204,-1.1223,-1.1372,-1.2033,-1.331,-1.4553,-1.5461,-1.5761,-1.5505,-1.5125,-1.4645,-1.5054,-1.5043,-1.435,-1.488,-1.5009,-1.4555,-1.4024,-1.3665,-1.3511,-1.3511,-1.3177,-1.2482,-1.2705,-1.2398,-1.1591,-1.1809,-1.1778,-0.6501,0.0,0.0,0.0,-0.899,0.0,-1.0509,-1.0665,-1.0719,-1.1026,0.0,-1.0828,-1.1069,-1.0918,-1.0755,-1.0755,-1.0954,-1.1027,-1.0755,-1.096,-1.1111,-1.1111,-1.1111,-1.1099,-1.1081,-1.1099,-1.1208,-1.1405,-1.1206,-1.1226,-1.1441,-1.1212,-1.1111,-1.1111,-1.1111,-1.1111,-1.1111,-1.1111,-1.1111,-1.1111,-1.1111,-1.1589,-1.2505,-1.3128,-1.3532,-1.3721,-1.438,-1.3652,-1.204,-1.2989,-1.3601,-1.4029,-1.4768,-1.502,-1.5133,-1.613,-1.538,-1.3834,-1.3306,-1.2743,-1.2077,-1.1335,-1.1111,-1.1111,-1.1111,-1.1223,-1.1335,-1.1149,-1.1223,-1.1335,-1.1149,-1.1111,-1.1111,-1.1111,-1.1669,-1.2003,-1.126,-1.1111,-1.1111,-1.1111,-1.1706,-1.1966,-1.1223,-1.1706,-1.1929,-1.1223,-1.1781,-1.2592,-1.339,-1.4142,-1.4867,-1.5611,-1.5054,-1.453,-1.4386,-1.453,-1.4565,-1.4494,-1.4952,-1.5257,-1.5215,-1.4495,-1.393,-1.3571,-1.3498,-1.3147,-1.2482,-1.2482,-1.2182,-1.1591,-1.1591,-1.1591,0.0,-0.6365,0.0,0.0,0.0,-0.9186,-1.0408,-1.0369,-1.0269,-1.095,-1.1063,-1.1045,-1.1099,-1.1063,-1.1027,-1.1027,-1.1075,-1.1093,-1.1033,-1.1075,-1.1111,-1.1111,-1.1111,-1.1033,-1.0828,-1.0991,-1.1051,-1.0869,-1.099,-1.1135,-1.1196,-1.1141,-1.1111,-1.1111,-1.1111,-1.1111,-1.1111,-1.1111,-1.1111,-1.1111,-1.1111,-1.1298,-1.1663,-1.2456,-1.2815,-1.2852,-1.3014,-1.258,-1.1781,-1.2187,-1.2486,-1.2769,-1.3565,-1.3777,-1.3711,-1.4501,-1.4105,-1.3098,-1.2824,-1.2227,-1.1558,-1.1223,-1.1111,-1.1111,-1.1111,-1.1149,-1.1149,-1.1111,-1.1149,-1.1149,-1.1111,-1.1111,-1.1111,-1.1111,-1.1223,-1.1298,-1.1149,-1.1111,-1.1111,-1.1111,-1.1223,-1.1298,-1.1149,-1.1223,-1.1298,-1.1149,-1.1781,-1.2592,-1.339,-1.4142,-1.4681,-1.4832,-1.4716,-1.4099,-1.2915,-1.3882,-1.435,-1.3781,-1.4953,-1.554,-1.5198,-1.4495,-1.4059,-1.3973,-1.3406,-1.292,-1.2482,-1.2274,-1.1965,-1.1591,-1.1591,-1.1591,0.0,0.0,0.0,0.0,0.0,0.0,-0.9937,-0.9702,-0.9539,-1.0363,-1.0812,-1.1111,-1.1111,-1.1111,-1.1111,-1.1111,-1.1111,-1.1111,-1.1111,-1.1111,-1.1111,-1.1111,-1.1111,-1.1057,-1.0924,-1.1033,-1.1057,-1.0882,-1.1033,-1.1111,-1.1111,-1.1111,-1.1111,-1.1111,-1.1111,-1.1111,-1.1111,-1.1111,-1.1111,-1.1111,-1.1111,-1.1149,-1.126,-1.1805,-1.199,-1.1879,-1.2077,-1.2003,-1.1706,-1.2003,-1.2224,-1.2378,-1.3208,-1.3135,-1.2725,-1.3368,-1.3004,-1.2137,-1.1946,-1.162,-1.1223,-1.1149,-1.1111,-1.1111,-1.1111,-1.1111,-1.1111,-1.1111,-1.1111,-1.1111,-1.1111,-1.1111,-1.1111,-1.1111,-1.1111,-1.1111,-1.1111,-1.1111,-1.1111,-1.1111,-1.1111,-1.1111,-1.1111,-1.1111,-1.1111,-1.1111,-1.1446,-1.204,-1.2806,-1.3273,-1.3637,-1.4034,-1.3745,-1.3164,-1.2372,-1.3382,-1.3926,-1.3535,-1.4955,-1.5632,-1.5211,-1.4631,-1.4267,-1.4101,-1.3232,-1.2674,-1.2482,-1.2243,-1.1934,-1.1591,-1.1591,-1.1591,0.0,0.0,0.0,0.0,0.0,0.0,-0.9228,-0.8879,-0.8737,-0.9539,-1.0325,-1.0925,-1.1074,-1.1111,-1.1111,-1.1111,-1.1111,-1.1111,-1.1111,-1.1111,-1.1111,-1.1111,-1.1111,-1.1111,-1.1111,-1.1111,-1.1111,-1.1111,-1.1111,-1.1111,-1.1111,-1.1111,-1.1111,-1.1111,-1.1111,-1.1111,-1.1111,-1.1111,-1.1111,-1.1111,-1.1111,-1.1111,-1.1111,-1.126,-1.126,-1.1111,-1.1521,-1.1669,-1.1669,-1.2077,-1.2224,-1.2261,-1.2915,-1.2659,-1.1966,-1.2469,-1.21,-1.1335,-1.1149,-1.1111,-1.1111,-1.1111,-1.1111,-1.1111,-1.1111,-1.1111,-1.1111,-1.1111,-1.1111,-1.1111,-1.1111,-1.1111,-1.1111,-1.1111,-1.1111,-1.1111,-1.1111,-1.1111,-1.1111,-1.1111,-1.1111,-1.1111,-1.1111,-1.1111,-1.1111,-1.1111,-1.1111,-1.1409,-1.2187,-1.2305,-1.2556,-1.3208,-1.2703,-1.2224,-1.2114,-1.2952,-1.3462,-1.339,-1.4919,-1.5584,-1.5133,-1.4718,-1.4362,-1.4013,-1.3033,-1.2515,-1.2515,-1.2181,-1.1872,-1.1591,-1.1591,-1.1591,0.0,0.0,0.0,0.0,0.0,0.0,0.0,0.0,-0.7902,0.0,-0.9501,-1.0255,-1.0962,-1.1111,-1.1111,-1.1111,-1.1111,-1.1111,-1.1111,-1.1111,-1.1111,-1.1111,-1.1111,-1.1111,-1.1111,-1.1111,-1.1111,-1.1111,-1.1111,-1.1111,-1.1111,-1.1111,-1.1111,-1.1111,-1.1111,-1.1111,-1.1111,-1.1111,-1.1111,-1.1111,-1.1111,-1.1111,-1.1111,-1.1149,-1.1149,-1.1111,-1.1521,-1.1595,-1.1484,-1.1855,-1.1929,-1.1781,-1.1885,-1.1737,-1.1484,-1.1552,-1.1409,-1.1149,-1.1111,-1.1111,-1.1111,-1.1111,-1.1111,-1.1111,-1.1111,-1.1111,-1.1111,-1.1111,-1.1111,-1.1111,-1.1111,-1.1111,-1.1111,-1.1111,-1.1111,-1.1111,-1.1111,-1.1111,-1.1111,-1.1111,-1.1111,-1.1111,-1.1111,-1.1111,-1.1111,-1.1111,-1.1111,-1.1409,-1.2187,-1.2305,-1.2335,-1.2445,-1.2372,-1.2003,-1.1335,-1.2652,-1.3353,-1.3003,-1.4748,-1.5478,-1.4713,-1.442,-1.407,-1.3686,-1.2913,-1.2485,-1.2485,-1.1951,-1.1654,-1.1591,-1.1591,-1.1591,-0.3958,0.0,0.0,0.0,0.0,0.0,-0.7258,0.0,-0.6908,-0.7842,-0.8322,-0.8927,-1.0212,-1.0438,-1.0588,-1.1037,-1.1111,-1.1111,-1.1111,-1.1111,-1.1111,-1.1111,-1.1111,-1.1111,-1.1111,-1.1111,-1.1111,-1.1111,-1.1111,-1.1111,-1.1111,-1.1111,-1.1111,-1.1111,-1.1111,-1.1111,-1.1111,-1.1111,-1.1111,-1.1111,-1.1111,-1.1111,-1.1111,-1.1111,-1.1111,-1.1111,-1.1409,-1.1484,-1.1409,-1.1706,-1.1781,-1.1706,-1.1706,-1.1595,-1.1409,-1.1409,-1.126,-1.1111,-1.1111,-1.1111,-1.1111,-1.1111,-1.1111,-1.1111,-1.1111,-1.1111,-1.1111,-1.1111,-1.1111,-1.1111,-1.1111,-1.1111,-1.1111,-1.1111,-1.1111,-1.1111,-1.1111,-1.1111,-1.1111,-1.1111,-1.1111,-1.1111,-1.1111,-1.1111,-1.1111,-1.1111,-1.1111,-1.1223,-1.1595,-1.1632,-1.1632,-1.1632,-1.1632,-1.1484,-1.1149,-1.2579,-1.3324,-1.2936,-1.4525,-1.5106,-1.4346,-1.4205,-1.3859,-1.3279,-1.259,-1.2238,-1.2279,-1.1821,-1.1687,-1.1823,-1.1823,-1.1823,0.0,0.0,0.0,0.0,0.0,0.0,0.0,0.0,-0.617,0.0,-0.7145,-0.7638,-0.9046,-0.9463,-0.9803,-1.0395,-1.047,-1.0545,-1.0775,-1.0812,-1.085,-1.1074,-1.1111,-1.1111,-1.1111,-1.1111,-1.1111,-1.1111,-1.1111,-1.1111,-1.1111,-1.1051,-1.1045,-1.1105,-1.0979,-1.0942,-1.1009,-1.0942,-1.0942,-1.1015,-1.1015,-1.1045,-1.1111,-1.1111,-1.1111,-1.1111,-1.1298,-1.1372,-1.1335,-1.1558,-1.1595,-1.1558,-1.1558,-1.1446,-1.1335,-1.1335,-1.1223,-1.1111,-1.1111,-1.1111,-1.1111,-1.1111,-1.1111,-1.1111,-1.1111,-1.1111,-1.1111,-1.1111,-1.1111,-1.1111,-1.1111,-1.1111,-1.1111,-1.1111,-1.1111,-1.1111,-1.1111,-1.1111,-1.1111,-1.1111,-1.1111,-1.1111,-1.1111,-1.1111,-1.1111,-1.1111,-1.1111,-1.1111,-1.1111,-1.1111,-1.1111,-1.1111,-1.1037,-1.1037,-1.1111,-1.2439,-1.3105,-1.2783,-1.4194,-1.4705,-1.3992,-1.3829,-1.342,-1.2717,-1.2128,-1.1919,-1.2062,-1.1811,-1.1802,-1.2003,-1.2091,-1.2127,0.0,0.0,0.0,0.0,0.0,0.0,0.0,0.0,-0.5878,-0.6037,-0.6235,-0.6606,-0.7484,-0.8246,-0.878,-0.8818,-0.8813,-0.9084,-0.9841,-0.996,-1.0255,-1.0999,-1.1111,-1.1111,-1.1111,-1.1111,-1.1111,-1.1111,-1.1111,-1.1111,-1.1111,-1.0876,-1.0852,-1.1105,-1.0593,-1.0454,-1.0737,-1.046,-1.046,-1.0701,-1.0701,-1.0833,-1.1111,-1.1111,-1.1111,-1.1111,-1.1298,-1.1298,-1.1149,-1.1335,-1.1298,-1.1149,-1.1149,-1.1111,-1.1111,-1.1111,-1.1111,-1.1111,-1.1111,-1.1111,-1.1111,-1.1111,-1.1111,-1.1111,-1.1111,-1.1111,-1.1111,-1.1111,-1.1111,-1.1111,-1.1111,-1.1111,-1.1111,-1.1111,-1.1111,-1.1111,-1.1111,-1.1111,-1.1111,-1.1111,-1.1111,-1.1111,-1.1111,-1.1111,-1.1111,-1.1111,-1.1111,-1.1111,-1.1111,-1.1111,-1.1111,-1.1111,-1.0925,-1.0887,-1.1074,-1.204,-1.2562,-1.2335,-1.376,-1.4317,-1.3564,-1.3106,-1.2549,-1.1881,-1.1523,-1.1547,-1.2014,-1.1974,-1.1989,-1.201,-1.2317,-1.2463,0.0,0.0,0.0,0.0,0.0,-0.4285,-0.4568,-0.4944,-0.5243,-0.54,-0.5534,-0.5744,-0.6036,-0.6979,-0.7931,-0.8585,-0.858,-0.8651,-0.9079,-0.9122,-0.9231,-0.9528,-0.9566,-0.976,-1.0293,-1.0331,-1.0556,-1.1074,-1.1111,-1.1033,-1.0833,-1.0737,-1.0653,-1.0575,-1.0394,-1.034,-1.0436,-1.034,-1.034,-1.0436,-1.0436,-1.0485,-1.0575,-1.0575,-1.0575,-1.0587,-1.0822,-1.0991,-1.1111,-1.1186,-1.1186,-1.1111,-1.1111,-1.1111,-1.1111,-1.1111,-1.1111,-1.1111,-1.1111,-1.1111,-1.1111,-1.1111,-1.1111,-1.1111,-1.1111,-1.1111,-1.1111,-1.1111,-1.1111,-1.1111,-1.1111,-1.1111,-1.1111,-1.1111,-1.1111,-1.1111,-1.1111,-1.1111,-1.1111,-1.1111,-1.1111,-1.1111,-1.1111,-1.1111,-1.1111,-1.1111,-1.1111,-1.1111,-1.1111,-1.1111,-1.1037,-1.0925,-1.085,-1.0775,-1.07,-1.1855,-1.2298,-1.1595,-1.2908,-1.328,-1.2378,-1.2198,-1.181,-1.1237,-1.1391,-1.1414,-1.122,-1.157,-1.1941,-1.2317,-1.2434,-1.2636,-0.2427,0.0,0.0,0.0,0.0,-0.3715,-0.4151,0.0,-0.4745,-0.499,-0.5136,-0.5244,-0.5294,-0.5925,-0.6716,-0.7492,-0.7546,-0.7621,-0.8122,-0.8199,-0.8318,-0.8665,-0.8703,-0.8894,-0.9463,-0.9501,-0.9804,-1.0498,-1.0567,-1.0566,-1.0569,-1.0472,-1.0304,-1.0039,-1.0118,-1.0124,-1.0033,-1.0033,-1.0075,-1.0166,-1.0166,-1.0208,-1.0292,-1.0292,-1.0292,-1.0304,-1.0478,-1.0737,-1.0985,-1.1075,-1.1111,-1.1111,-1.1111,-1.1111,-1.1111,-1.1111,-1.1111,-1.1111,-1.1111,-1.1111,-1.1111,-1.1111,-1.1111,-1.1111,-1.1111,-1.1111,-1.1111,-1.1111,-1.1111,-1.1111,-1.1111,-1.1111,-1.1111,-1.1111,-1.1111,-1.1111,-1.1111,-1.1111,-1.1111,-1.1111,-1.1111,-1.1111,-1.1111,-1.1111,-1.1111,-1.1111,-1.1111,-1.1111,-1.1111,-1.1037,-1.0962,-1.0925,-1.07,-1.0594,-1.0594,-1.1446,-1.1744,-1.1149,-1.21,-1.2395,-1.1744,-1.1339,-1.0999,-1.0644,-1.0919,-1.0896,-1.0541,-1.1347,-1.1941,-1.2332,-1.255,-1.2855,0.0,0.0,0.0,0.0,0.0,0.0,-0.386,0.0,-0.4303,-0.4757,-0.4984,-0.5117,-0.5256,-0.5114,-0.5092,-0.5402,-0.5536,-0.5967,-0.6996,-0.7149,-0.7532,-0.849,-0.8609,-0.8609,-0.8642,-0.8642,-0.8858,-0.9405,-0.9498,-0.9724,-1.0223,-1.0033,-0.9781,-0.9522,-0.9763,-0.9775,-0.9516,-0.9516,-0.9642,-0.9895,-0.9895,-1.0027,-1.0274,-1.0274,-1.0274,-1.0274,-1.028,-1.043,-1.0695,-1.0991,-1.1105,-1.1111,-1.1111,-1.1111,-1.1111,-1.1111,-1.1111,-1.1111,-1.1111,-1.1111,-1.1111,-1.1111,-1.1111,-1.1111,-1.1111,-1.1111,-1.1111,-1.1111,-1.1111,-1.1111,-1.1111,-1.1111,-1.1111,-1.1111,-1.1111,-1.1111,-1.1111,-1.1111,-1.1111,-1.1111,-1.1111,-1.1111,-1.1111,-1.1111,-1.1111,-1.1111,-1.1111,-1.1111,-1.1111,-1.0925,-1.085,-1.1074,-1.055,-1.0368,-1.0738,-1.0775,-1.0887,-1.1037,-1.1446,-1.1669,-1.1632,-1.064,-1.0078,-1.0066,-1.0019,-0.9996,-0.9983,-1.1346,-1.1996,-1.2032,-1.2682,-1.3184,-0.2503,0.0,0.0,0.0,0.0,0.0,0.0,0.0,-0.3702,-0.4037,-0.4185,-0.4281,-0.4408,-0.4543,-0.4672,-0.4779,-0.5002,-0.5347,-0.5892,-0.5965,-0.6145,-0.6543,-0.6616,-0.6831,-0.7409,-0.7481,-0.778,-0.8507,-0.905,-0.934,-0.9293,-0.9493,-0.9588,-0.9484,-0.9588,-0.9588,-0.9516,-0.9516,-0.9552,-0.9624,-0.9624,-0.966,-0.9733,-0.9733,-0.9733,-0.9745,-0.9931,-1.016,-1.0418,-1.0683,-1.0936,-1.1111,-1.1111,-1.1111,-1.1111,-1.1111,-1.1111,-1.1111,-1.1111,-1.1111,-1.1111,-1.1111,-1.1111,-1.1111,-1.1111,-1.1111,-1.1111,-1.1111,-1.1111,-1.1111,-1.1111,-1.1111,-1.1111,-1.1111,-1.1111,-1.1111,-1.1111,-1.1111,-1.1111,-1.1111,-1.1111,-1.1111,-1.1111,-1.1111,-1.1111,-1.1111,-1.1111,-1.1111,-1.1111,-1.0925,-1.0775,-1.0663,-1.0406,-1.018,-1.0143,-1.055,-1.0625,-1.0255,-1.0738,-1.085,-1.0406,-0.996,-0.9639,-0.9451,-0.9607,-0.9803,-0.9983,-1.1161,-1.1933,-1.2368,-1.306,-1.3287,0.0,0.0,0.0,0.0,0.0,0.0,-0.3246,-0.3311,-0.3406,0.0,-0.3838,-0.3895,-0.3989,-0.4153,-0.4262,-0.4314,-0.4487,-0.4798,-0.5212,-0.5342,-0.5447,-0.5663,-0.5731,-0.5979,-0.644,-0.6508,-0.6903,-0.7903,-0.8389,-0.8777,-0.9146,-0.9368,-0.9516,-0.9516,-0.9516,-0.9516,-0.9516,-0.9516,-0.9516,-0.9516,-0.9516,-0.9516,-0.9516,-0.9516,-0.9516,-0.9496,-0.9678,-0.9889,-1.0154,-1.0412,-1.0773,-1.1111,-1.1111,-1.1111,-1.1111,-1.1111,-1.1111,-1.1111,-1.1111,-1.1111,-1.1111,-1.1111,-1.1111,-1.1111,-1.1111,-1.1111,-1.1111,-1.1111,-1.1111,-1.1111,-1.1111,-1.1111,-1.1111,-1.1111,-1.1111,-1.1111,-1.1111,-1.1111,-1.1111,-1.1111,-1.1111,-1.1111,-1.1111,-1.1111,-1.1111,-1.1111,-1.1111,-1.1074,-1.0999,-1.0812,-1.0625,-1.0519,-1.0255,-1.0067,-1.003,-1.0255,-1.0255,-0.9916,-1.0218,-1.0211,-0.9782,-0.955,-0.9308,-0.9066,-0.9326,-0.9636,-0.9983,-1.0856,-1.1536,-1.2002,-1.2493,-1.2699,0.0,0.0,0.0,0.0,0.0,0.0,-0.3294,-0.3286,-0.3308,0.0,-0.3723,-0.3758,-0.3825,-0.3868,-0.3919,-0.4061,-0.4088,-0.4284,-0.4888,-0.5042,-0.5218,-0.5402,-0.5613,-0.5716,-0.5716,-0.5752,-0.6218,-0.7358,-0.7581,-0.8212,-0.9432,-0.9516,-0.9516,-0.9516,-0.9516,-0.9516,-0.9516,-0.9516,-0.9516,-0.9516,-0.9516,-0.9516,-0.9516,-0.9516,-0.9516,-0.9516,-0.9516,-0.9666,-0.9925,-1.0154,-1.0557,-1.1069,-1.1099,-1.1111,-1.1111,-1.1111,-1.1111,-1.1111,-1.1111,-1.1111,-1.1111,-1.1111,-1.1111,-1.1111,-1.1111,-1.1111,-1.1111,-1.1111,-1.1111,-1.1111,-1.1111,-1.1111,-1.1111,-1.1111,-1.1111,-1.1111,-1.1111,-1.1111,-1.1111,-1.1111,-1.1111,-1.1111,-1.1111,-1.1111,-1.1111,-1.1111,-1.1074,-1.0999,-1.0812,-1.0594,-1.0481,-1.0481,-1.0143,-0.996,-1.0143,-0.9997,-0.9884,-0.9884,-0.9895,-0.9793,-0.9625,-0.9314,-0.9071,-0.89,-0.9181,-0.9492,-0.9926,-1.0479,-1.0907,-1.1145,-1.1438,-1.1805,-0.3183,-0.324,0.0,0.0,-0.315,0.0,-0.3121,-0.3145,-0.3212,0.0,-0.3322,-0.336,-0.3482,-0.3659,-0.3827,-0.3851,-0.3906,-0.4127,-0.4596,-0.4701,-0.4769,-0.491,-0.5106,-0.5238,-0.5238,-0.5376,-0.5568,-0.5833,-0.6854,-0.805,-0.942,-0.9516,-0.9516,-0.9516,-0.9516,-0.9516,-0.9516,-0.9516,-0.9516,-0.9516,-0.9516,-0.9516,-0.9516,-0.9516,-0.9516,-0.9516,-0.9516,-0.9666,-0.9907,-0.9961,-1.0286,-1.0816,-1.1033,-1.1111,-1.1111,-1.1111,-1.1111,-1.1111,-1.1111,-1.1111,-1.1111,-1.1111,-1.1111,-1.1111,-1.1111,-1.1111,-1.1111,-1.1111,-1.1111,-1.1111,-1.1111,-1.1111,-1.1111,-1.1111,-1.1111,-1.1111,-1.1111,-1.1111,-1.1111,-1.1111,-1.1111,-1.1111,-1.1111,-1.1111,-1.1111,-1.1111,-1.0962,-1.085,-1.0812,-1.0481,-1.0255,-1.0255,-1.003,-0.9916,-0.9954,-0.9916,-0.9884,-0.9884,-0.9744,-0.9626,-0.9619,-0.9198,-0.8944,-0.8895,-0.9181,-0.9338,-0.9428,-1.0185,-1.0432,-1.0283,-1.1073,-1.1585,-0.3433,-0.3447,-0.3466,-0.332,-0.336,0.0,0.0,-0.3239,-0.3228,-0.3376,-0.3303,-0.3231,-0.3379,-0.3498,-0.3627,-0.3687,-0.3797,-0.3939,-0.4215,-0.4339,-0.4437,-0.4501,-0.469,-0.4807,-0.4847,-0.5019,-0.5346,-0.5877,-0.683,-0.7874,-0.8952,-0.8985,-0.9151,-0.9484,-0.9516,-0.9516,-0.9516,-0.9516,-0.9516,-0.9516,-0.9516,-0.9516,-0.9516,-0.9516,-0.9516,-0.9516,-0.9516,-0.9588,-0.9721,-0.9853,-1.0063,-1.0334,-1.0725,-1.0997,-1.1111,-1.1111,-1.1111,-1.1111,-1.1111,-1.1111,-1.1111,-1.1111,-1.1111,-1.1111,-1.1111,-1.1111,-1.1111,-1.1111,-1.1111,-1.1111,-1.1111,-1.1111,-1.1111,-1.1111,-1.1111,-1.1111,-1.1111,-1.1111,-1.1111,-1.1111,-1.1111,-1.1111,-1.1111,-1.1037,-1.0962,-1.0962,-1.0775,-1.0625,-1.0519,-1.0331,-1.0143,-1.0067,-0.9954,-0.9884,-0.9884,-0.9884,-0.9873,-0.976,-0.9642,-0.9511,-0.9268,-0.9133,-0.9034,-0.9034,-0.907,-0.9136,-0.9254,-0.9555,-0.9745,-0.9821,-1.041,-1.1019,-0.3647,-0.3651,-0.3645,-0.3652,-0.3561,-0.3512,0.0,0.0,0.0,0.0,0.0,0.0,0.0,0.0,0.0,-0.3496,0.0,0.0,0.0,-0.3938,0.0,-0.4144,-0.4333,-0.4467,-0.4514,-0.4694,-0.5206,-0.6185,-0.6747,-0.7401,-0.8222,-0.826,-0.8575,-0.9285,-0.9318,-0.9382,-0.9484,-0.9516,-0.9516,-0.9516,-0.9516,-0.9516,-0.9516,-0.9516,-0.9516,-0.9516,-0.9516,-0.9516,-0.9534,-0.9745,-0.9859,-0.9949,-1.0424,-1.0803,-1.1033,-1.1033,-1.1069,-1.1111,-1.1111,-1.1111,-1.1111,-1.1111,-1.1111,-1.1111,-1.1111,-1.1111,-1.1111,-1.1111,-1.1111,-1.1074,-1.1037,-1.1037,-1.1037,-1.1037,-1.1037,-1.1037,-1.1074,-1.1111,-1.1074,-1.1037,-1.1037,-1.1037,-1.1037,-1.0925,-1.0775,-1.0738,-1.0556,-1.0368,-1.0218,-1.018,-1.0067,-0.9916,-0.9884,-0.9884,-0.9884,-0.9884,-0.9825,-0.963,-0.957,-0.9371,-0.8981,-0.9104,-0.9206,-0.9206,-0.9057,-0.9052,-0.9206,-0.9052,-0.9158,-0.9524,-0.9794,-1.0455,-0.3716,-0.3865,-0.3838,-0.3791,-0.3806,-0.3765,-0.349,0.0,-0.3487,-0.3297,0.0,0.0,0.0,0.0,0.0,0.0,0.0,0.0,-0.3288,-0.3392,-0.3608,-0.3898,-0.4119,-0.425,-0.4237,-0.4315,-0.4769,-0.5696,-0.5783,-0.6254,-0.7305,-0.7356,-0.7733,-0.8581,-0.8619,-0.8888,-0.9484,-0.9516,-0.9516,-0.9516,-0.9516,-0.9516,-0.9516,-0.9516,-0.9516,-0.9516,-0.9516,-0.9516,-0.9484,-0.9546,-0.9697,-0.9937,-1.0226,-1.0497,-1.0767,-1.0767,-1.0912,-1.1111,-1.1111,-1.1111,-1.1111,-1.1111,-1.1111,-1.1111,-1.1111,-1.1111,-1.1111,-1.1111,-1.1111,-1.1074,-1.0887,-1.0812,-1.0812,-1.0812,-1.0812,-1.0887,-1.1074,-1.1111,-1.1037,-1.085,-1.0812,-1.0812,-1.0812,-1.0812,-1.0738,-1.055,-1.0368,-1.0218,-1.0218,-1.003,-0.9916,-0.9922,-0.9884,-0.9884,-0.9884,-0.9884,-0.9825,-0.963,-0.9367,-0.9222,-0.9168,-0.919,-0.9206,-0.9206,-0.9179,-0.9179,-0.9206,-0.9179,-0.9198,-0.9238,-0.9529,-1.0275,-0.3243,-0.3334,-0.3415,-0.3766,-0.3532,-0.3271,-0.3571,-0.3567,-0.3468,-0.3439,0.0,0.0,0.0,0.0,0.0,0.0,-0.3237,0.0,0.0,0.0,-0.3326,-0.3474,-0.3575,-0.3713,-0.3946,-0.4068,-0.4366,-0.4951,-0.4971,-0.5361,-0.6297,-0.6515,-0.6962,-0.7706,-0.7837,-0.8004,-0.8269,-0.8269,-0.8495,-0.892,-0.892,-0.9119,-0.9516,-0.9516,-0.9516,-0.9516,-0.9516,-0.9516,-0.9516,-0.9516,-0.9582,-0.969,-0.9799,-1.0094,-1.0478,-1.0629,-1.0755,-1.0906,-1.1057,-1.1111,-1.1111,-1.1111,-1.1111,-1.1111,-1.1111,-1.1111,-1.1111,-1.1111,-1.1037,-1.0925,-1.0812,-1.07,-1.0663,-1.0775,-1.0812,-1.085,-1.1074,-1.1111,-1.1037,-1.085,-1.0812,-1.0738,-1.0475,-1.0443,-1.0406,-1.0331,-1.0143,-1.003,-1.003,-0.9954,-0.9884,-0.9884,-0.9884,-0.9884,-0.9884,-0.9884,-0.9825,-0.963,-0.934,-0.927,-0.9416,-0.9421,-0.948,-0.9615,-0.9491,-0.9486,-0.962,-0.9486,-0.9491,-0.962,-0.9593,-1.03,-0.2644,-0.2674,-0.2835,-0.3454,-0.3197,-0.2921,-0.3595,-0.3627,-0.3515,-0.3599,-0.3468,0.0,0.0,0.0,0.0,0.0,0.0,-0.3172,0.0,-0.3126,0.0,0.0,0.0,-0.3312,-0.3595,-0.3692,-0.3879,-0.4218,-0.4219,-0.4514,-0.5244,-0.5559,-0.6069,-0.6849,-0.6999,-0.7168,-0.7386,-0.7386,-0.7679,-0.8199,-0.8199,-0.8463,-0.8926,-0.8926,-0.8926,-0.8926,-0.8926,-0.8926,-0.8926,-0.8926,-0.8926,-0.8926,-0.8926,-0.9318,-0.9973,-1.0408,-1.0623,-1.0725,-1.1021,-1.1111,-1.1111,-1.1111,-1.1111,-1.1111,-1.1111,-1.1111,-1.1074,-1.1037,-1.0925,-1.0775,-1.0663,-1.0513,-1.0481,-1.0663,-1.07,-1.0775,-1.0962,-1.1037,-1.0925,-1.07,-1.0625,-1.0513,-1.018,-1.0143,-1.018,-1.0143,-0.9992,-0.9884,-0.9884,-0.9884,-0.9884,-0.9884,-0.9884,-0.9884,-0.9884,-0.9884,-0.9825,-0.963,-0.941,-0.9389,-0.9608,-0.9637,-0.975,-0.9879,-0.976,-0.9755,-0.9884,-0.9644,-0.9612,-0.9728,-0.9712,-1.031,-0.1936,-0.2117,-0.2258,-0.2798,-0.2921,-0.3028,-0.3501,-0.3698,-0.3742,-0.3632,-0.3693,-0.3734,-0.3627,0.0,0.0,0.0,0.0,0.0,0.0,0.0,0.0,0.0,0.0,0.0,-0.3229,-0.311,-0.3194,-0.3588,-0.3513,-0.3682,-0.4213,-0.4436,-0.5009,-0.5998,-0.618,-0.6617,-0.7381,-0.7386,-0.7419,-0.7419,-0.7419,-0.7451,-0.7451,-0.7451,-0.7451,-0.7451,-0.7451,-0.7451,-0.7451,-0.7451,-0.7451,-0.7451,-0.7451,-0.8075,-0.9046,-0.9961,-1.0466,-1.0725,-1.1021,-1.1111,-1.1111,-1.1111,-1.1111,-1.1111,-1.1111,-1.1111,-1.1074,-1.085,-1.0812,-1.07,-1.0331,-1.0218,-1.0255,-1.0475,-1.0519,-1.055,-1.0775,-1.0812,-1.07,-1.0293,-1.0218,-1.0143,-0.9954,-1.0067,-1.0143,-0.996,-0.9922,-0.9884,-0.9884,-0.9884,-0.9884,-0.9884,-0.9884,-0.9884,-0.9884,-0.9884,-0.9825,-0.963,-0.9608,-0.9608,-0.9614,-0.9793,-0.9911,-0.9884,-0.9911,-0.9911,-0.9884,-0.9501,-0.9316,-0.9322,-0.9722,-1.0244,-0.139,-0.1445,-0.1589,-0.2164,-0.1924,-0.1727,-0.2269,-0.2458,-0.2478,-0.2405,-0.2772,-0.3068,-0.3021,0.0,0.0,0.0,0.0,0.0,0.0,0.0,0.0,0.0,0.0,0.0,0.0,-0.2999,-0.3091,-0.3321,-0.3371,-0.3551,-0.3904,-0.4177,-0.4512,-0.4941,-0.5077,-0.5392,-0.5873,-0.5877,-0.617,-0.6728,-0.6728,-0.6957,-0.7386,-0.7386,-0.7386,-0.7386,-0.7386,-0.7386,-0.7386,-0.7386,-0.7386,-0.7386,-0.7386,-0.8004,-0.8968,-0.9466,-1.0102,-1.0725,-1.1021,-1.1111,-1.1111,-1.1111,-1.1111,-1.0999,-1.0481,-1.0588,-1.0775,-1.0164,-1.0212,-1.0368,-1.0255,-1.0105,-1.0067,-1.0255,-1.0293,-1.0368,-1.055,-1.0594,-1.0513,-1.0255,-1.0218,-1.0143,-0.9922,-0.9954,-0.9992,-0.9922,-0.9884,-0.9884,-0.9884,-0.9884,-0.9884,-0.9884,-0.9884,-0.9884,-0.9884,-0.9884,-0.9884,-0.9809,-0.9803,-0.9803,-0.9803,-0.9879,-0.9884,-0.9884,-0.962,-0.9511,-0.9511,-0.9089,-0.8899,-0.8899,-0.9046,-0.942,-0.0696,-0.0705,-0.0855,-0.1456,-0.1261,-0.1068,-0.1649,-0.1837,-0.1851,-0.1816,-0.2136,-0.2439,-0.2394,-0.2813,0.0,0.0,0.0,0.0,0.0,-0.2726,0.0,0.0,0.0,0.0,0.0,-0.29,-0.298,-0.3177,-0.323,-0.3386,-0.3702,-0.3937,-0.4126,-0.4255,-0.442,-0.4648,-0.4915,-0.5031,-0.5382,-0.5939,-0.6009,-0.6272,-0.6704,-0.6704,-0.6704,-0.6704,-0.6704,-0.6704,-0.6704,-0.6704,-0.6704,-0.6704,-0.6704,-0.728,-0.8258,-0.9016,-0.9946,-1.0845,-1.0717,-1.0663,-1.0625,-1.0325,-1.0207,-1.0051,-0.9528,-0.9604,-0.9787,-0.9485,-0.9566,-0.9841,-1.003,-0.9997,-0.9954,-1.0143,-1.0218,-1.0255,-1.0368,-1.0406,-1.0255,-0.9765,-0.9647,-0.9533,-0.9112,-0.9268,-0.9576,-0.9841,-0.9884,-0.9884,-0.9884,-0.9884,-0.9884,-0.9884,-0.9884,-0.9884,-0.9884,-0.9884,-0.9884,-0.9884,-0.9884,-0.9846,-0.9695,-0.9695,-0.9695,-0.9695,-0.9279,-0.9165,-0.9284,-0.8746,-0.8475,-0.8475,-0.8322,-0.847]}]]